<?xml version="1.0" encoding="UTF-8" standalone="no" ?>
<gpx xmlns="http://www.topografix.com/GPX/1/1" xmlns:xsi="http://www.w3.org/2001/XMLSchema-instance" xsi:schemaLocation="http://www.topografix.com/GPX/1/1 http://www.topografix.com/GPX/1/1/gpx.xsd" version="1.1" creator="VisuGPX - https://www.visugpx.com">
  <metadata>
    <name>Bretagne 2022-06-14 18:02:08</name>
    <desc><![CDATA[Philman52]]></desc>
  </metadata>
  <trk>
    <name><![CDATA[2022-06-14 18:02:08]]></name>
    <extensions>
      <line xmlns="http://www.topografix.com/GPX/gpx_style/0/2">
        <color>0000FF</color>
        <width>4</width>
      </line>
    </extensions>
    <trkseg>
      <trkpt lat="47.7278" lon="-3.3616">
        <ele>0.2</ele>
        <time>2022-06-14T09:01:29Z</time>
      </trkpt>
      <trkpt lat="47.72737" lon="-3.36212">
        <ele>-0.17</ele>
        <time>2022-06-14T09:01:41Z</time>
      </trkpt>
      <trkpt lat="47.72684" lon="-3.36282">
        <ele>-0.69</ele>
        <time>2022-06-14T09:01:56Z</time>
      </trkpt>
      <trkpt lat="47.72635" lon="-3.36339">
        <ele>-1.92</ele>
        <time>2022-06-14T09:02:09Z</time>
      </trkpt>
      <trkpt lat="47.72577" lon="-3.36405">
        <ele>-0.43</ele>
        <time>2022-06-14T09:02:24Z</time>
      </trkpt>
      <trkpt lat="47.72515" lon="-3.36473">
        <ele>1.79</ele>
        <time>2022-06-14T09:02:41Z</time>
      </trkpt>
      <trkpt lat="47.72472" lon="-3.36506">
        <ele>-0.49</ele>
        <time>2022-06-14T09:02:52Z</time>
      </trkpt>
      <trkpt lat="47.72424" lon="-3.36528">
        <ele>0.55</ele>
        <time>2022-06-14T09:03:03Z</time>
      </trkpt>
      <trkpt lat="47.72382" lon="-3.36541">
        <ele>0.35</ele>
        <time>2022-06-14T09:03:13Z</time>
      </trkpt>
      <trkpt lat="47.72334" lon="-3.36547">
        <ele>-0.43</ele>
        <time>2022-06-14T09:03:24Z</time>
      </trkpt>
      <trkpt lat="47.72276" lon="-3.36536">
        <ele>0.44</ele>
        <time>2022-06-14T09:03:37Z</time>
      </trkpt>
      <trkpt lat="47.72215" lon="-3.36518">
        <ele>0.79</ele>
        <time>2022-06-14T09:03:51Z</time>
      </trkpt>
      <trkpt lat="47.72147" lon="-3.36504">
        <ele>0.79</ele>
        <time>2022-06-14T09:04:06Z</time>
      </trkpt>
      <trkpt lat="47.72093" lon="-3.3649">
        <ele>0.92</ele>
        <time>2022-06-14T09:04:18Z</time>
      </trkpt>
      <trkpt lat="47.72049" lon="-3.36472">
        <ele>0.82</ele>
        <time>2022-06-14T09:04:29Z</time>
      </trkpt>
      <trkpt lat="47.71995" lon="-3.36446">
        <ele>0.42</ele>
        <time>2022-06-14T09:04:42Z</time>
      </trkpt>
      <trkpt lat="47.71925" lon="-3.36422">
        <ele>0.8</ele>
        <time>2022-06-14T09:04:57Z</time>
      </trkpt>
      <trkpt lat="47.71869" lon="-3.36397">
        <ele>0.96</ele>
        <time>2022-06-14T09:05:09Z</time>
      </trkpt>
      <trkpt lat="47.71836" lon="-3.3638">
        <ele>1.67</ele>
        <time>2022-06-14T09:05:18Z</time>
      </trkpt>
      <trkpt lat="47.71786" lon="-3.36358">
        <ele>1.09</ele>
        <time>2022-06-14T09:05:30Z</time>
      </trkpt>
      <trkpt lat="47.71733" lon="-3.36336">
        <ele>1.53</ele>
        <time>2022-06-14T09:05:42Z</time>
      </trkpt>
      <trkpt lat="47.71676" lon="-3.36315">
        <ele>1.3</ele>
        <time>2022-06-14T09:05:55Z</time>
      </trkpt>
      <trkpt lat="47.71615" lon="-3.36287">
        <ele>1.5</ele>
        <time>2022-06-14T09:06:09Z</time>
      </trkpt>
      <trkpt lat="47.7156" lon="-3.36258">
        <ele>1.36</ele>
        <time>2022-06-14T09:06:22Z</time>
      </trkpt>
      <trkpt lat="47.7151" lon="-3.3623">
        <ele>1.2</ele>
        <time>2022-06-14T09:06:34Z</time>
      </trkpt>
      <trkpt lat="47.71462" lon="-3.3619">
        <ele>1.77</ele>
        <time>2022-06-14T09:06:46Z</time>
      </trkpt>
      <trkpt lat="47.71454" lon="-3.36182">
        <ele>2.42</ele>
        <time>2022-06-14T09:06:48Z</time>
      </trkpt>
      <trkpt lat="47.71402" lon="-3.36114">
        <ele>1.89</ele>
        <time>2022-06-14T09:07:04Z</time>
      </trkpt>
      <trkpt lat="47.7138" lon="-3.3607">
        <ele>1.76</ele>
        <time>2022-06-14T09:07:13Z</time>
      </trkpt>
      <trkpt lat="47.71349" lon="-3.35998">
        <ele>1.83</ele>
        <time>2022-06-14T09:07:27Z</time>
      </trkpt>
      <trkpt lat="47.71331" lon="-3.35928">
        <ele>1.72</ele>
        <time>2022-06-14T09:07:40Z</time>
      </trkpt>
      <trkpt lat="47.7132" lon="-3.35841">
        <ele>1.99</ele>
        <time>2022-06-14T09:07:55Z</time>
      </trkpt>
      <trkpt lat="47.71306" lon="-3.35767">
        <ele>2.13</ele>
        <time>2022-06-14T09:08:10Z</time>
      </trkpt>
      <trkpt lat="47.71283" lon="-3.35695">
        <ele>1.63</ele>
        <time>2022-06-14T09:08:25Z</time>
      </trkpt>
      <trkpt lat="47.71261" lon="-3.35657">
        <ele>2.58</ele>
        <time>2022-06-14T09:08:36Z</time>
      </trkpt>
      <trkpt lat="47.7124" lon="-3.35626">
        <ele>1.88</ele>
        <time>2022-06-14T09:08:49Z</time>
      </trkpt>
      <trkpt lat="47.7122" lon="-3.35595">
        <ele>1.78</ele>
        <time>2022-06-14T09:09:04Z</time>
      </trkpt>
      <trkpt lat="47.712" lon="-3.35575">
        <ele>1.45</ele>
        <time>2022-06-14T09:09:19Z</time>
      </trkpt>
      <trkpt lat="47.71187" lon="-3.35575">
        <ele>1.81</ele>
        <time>2022-06-14T09:09:33Z</time>
      </trkpt>
      <trkpt lat="47.71183" lon="-3.35576">
        <ele>2.01</ele>
        <time>2022-06-14T09:09:51Z</time>
      </trkpt>
      <trkpt lat="47.71181" lon="-3.35577">
        <ele>1.69</ele>
        <time>2022-06-14T09:10:06Z</time>
      </trkpt>
      <trkpt lat="47.71179" lon="-3.3558">
        <ele>0.95</ele>
        <time>2022-06-14T09:10:24Z</time>
      </trkpt>
      <trkpt lat="47.71171" lon="-3.35603">
        <ele>0.98</ele>
        <time>2022-06-14T09:10:40Z</time>
      </trkpt>
      <trkpt lat="47.71162" lon="-3.35612">
        <ele>3.76</ele>
        <time>2022-06-14T09:10:57Z</time>
      </trkpt>
      <trkpt lat="47.71158" lon="-3.35618">
        <ele>5.68</ele>
        <time>2022-06-14T09:11:12Z</time>
      </trkpt>
      <trkpt lat="47.71161" lon="-3.35631">
        <ele>5.1</ele>
        <time>2022-06-14T09:11:25Z</time>
      </trkpt>
      <trkpt lat="47.71154" lon="-3.35637">
        <ele>5.3</ele>
        <time>2022-06-14T09:11:36Z</time>
      </trkpt>
      <trkpt lat="47.71152" lon="-3.3564">
        <ele>5.15</ele>
        <time>2022-06-14T09:11:38Z</time>
      </trkpt>
      <trkpt lat="47.71139" lon="-3.35651">
        <ele>5.28</ele>
        <time>2022-06-14T09:11:50Z</time>
      </trkpt>
      <trkpt lat="47.71139" lon="-3.35654">
        <ele>5.5</ele>
        <time>2022-06-14T09:12:03Z</time>
      </trkpt>
      <trkpt lat="47.71134" lon="-3.35658">
        <ele>6.03</ele>
        <time>2022-06-14T09:12:13Z</time>
      </trkpt>
      <trkpt lat="47.71131" lon="-3.35662">
        <ele>6.01</ele>
        <time>2022-06-14T09:12:16Z</time>
      </trkpt>
      <trkpt lat="47.71115" lon="-3.35676">
        <ele>5.27</ele>
        <time>2022-06-14T09:12:31Z</time>
      </trkpt>
      <trkpt lat="47.71103" lon="-3.35682">
        <ele>5.53</ele>
        <time>2022-06-14T09:12:43Z</time>
      </trkpt>
      <trkpt lat="47.71101" lon="-3.35676">
        <ele>5.43</ele>
        <time>2022-06-14T09:12:57Z</time>
      </trkpt>
      <trkpt lat="47.711" lon="-3.35675">
        <ele>5.43</ele>
        <time>2022-06-14T09:13:16Z</time>
      </trkpt>
      <trkpt lat="47.71099" lon="-3.35676">
        <ele>5.43</ele>
        <time>2022-06-14T09:13:39Z</time>
      </trkpt>
      <trkpt lat="47.71099" lon="-3.35678">
        <ele>5.43</ele>
        <time>2022-06-14T09:14:03Z</time>
      </trkpt>
      <trkpt lat="47.71096" lon="-3.35679">
        <ele>5.43</ele>
        <time>2022-06-14T09:14:24Z</time>
      </trkpt>
      <trkpt lat="47.71092" lon="-3.35679">
        <ele>5.43</ele>
        <time>2022-06-14T09:14:48Z</time>
      </trkpt>
      <trkpt lat="47.7109" lon="-3.35683">
        <ele>5.43</ele>
        <time>2022-06-14T09:15:07Z</time>
      </trkpt>
      <trkpt lat="47.71091" lon="-3.35688">
        <ele>5.43</ele>
        <time>2022-06-14T09:15:32Z</time>
      </trkpt>
      <trkpt lat="47.71091" lon="-3.35689">
        <ele>5.43</ele>
        <time>2022-06-14T09:15:53Z</time>
      </trkpt>
      <trkpt lat="47.7109" lon="-3.35688">
        <ele>5.43</ele>
        <time>2022-06-14T09:16:18Z</time>
      </trkpt>
      <trkpt lat="47.711" lon="-3.35693">
        <ele>5.43</ele>
        <time>2022-06-14T09:16:31Z</time>
      </trkpt>
      <trkpt lat="47.711" lon="-3.35696">
        <ele>5.89</ele>
        <time>2022-06-14T09:16:46Z</time>
      </trkpt>
      <trkpt lat="47.71097" lon="-3.35702">
        <ele>6.19</ele>
        <time>2022-06-14T09:16:57Z</time>
      </trkpt>
      <trkpt lat="47.71096" lon="-3.35704">
        <ele>6.11</ele>
        <time>2022-06-14T09:16:58Z</time>
      </trkpt>
      <trkpt lat="47.71093" lon="-3.35722">
        <ele>6.07</ele>
        <time>2022-06-14T09:17:07Z</time>
      </trkpt>
      <trkpt lat="47.71091" lon="-3.35735">
        <ele>6.25</ele>
        <time>2022-06-14T09:17:10Z</time>
      </trkpt>
      <trkpt lat="47.71089" lon="-3.3574">
        <ele>6.34</ele>
        <time>2022-06-14T09:17:11Z</time>
      </trkpt>
      <trkpt lat="47.71087" lon="-3.35744">
        <ele>6.46</ele>
        <time>2022-06-14T09:17:12Z</time>
      </trkpt>
      <trkpt lat="47.71084" lon="-3.35749">
        <ele>6.62</ele>
        <time>2022-06-14T09:17:13Z</time>
      </trkpt>
      <trkpt lat="47.7108" lon="-3.35753">
        <ele>6.98</ele>
        <time>2022-06-14T09:17:14Z</time>
      </trkpt>
      <trkpt lat="47.71076" lon="-3.35757">
        <ele>7.2</ele>
        <time>2022-06-14T09:17:15Z</time>
      </trkpt>
      <trkpt lat="47.71069" lon="-3.35765">
        <ele>7.72</ele>
        <time>2022-06-14T09:17:17Z</time>
      </trkpt>
      <trkpt lat="47.71029" lon="-3.35795">
        <ele>9.14</ele>
        <time>2022-06-14T09:17:24Z</time>
      </trkpt>
      <trkpt lat="47.71024" lon="-3.35801">
        <ele>9.19</ele>
        <time>2022-06-14T09:17:25Z</time>
      </trkpt>
      <trkpt lat="47.71" lon="-3.35822">
        <ele>8.81</ele>
        <time>2022-06-14T09:17:31Z</time>
      </trkpt>
      <trkpt lat="47.70995" lon="-3.35822">
        <ele>8.68</ele>
        <time>2022-06-14T09:17:32Z</time>
      </trkpt>
      <trkpt lat="47.70953" lon="-3.35803">
        <ele>8.32</ele>
        <time>2022-06-14T09:17:41Z</time>
      </trkpt>
      <trkpt lat="47.70912" lon="-3.35786">
        <ele>9.32</ele>
        <time>2022-06-14T09:17:49Z</time>
      </trkpt>
      <trkpt lat="47.7089" lon="-3.35778">
        <ele>10.05</ele>
        <time>2022-06-14T09:17:57Z</time>
      </trkpt>
      <trkpt lat="47.70853" lon="-3.35763">
        <ele>10.8</ele>
        <time>2022-06-14T09:18:03Z</time>
      </trkpt>
      <trkpt lat="47.70846" lon="-3.35764">
        <ele>11.19</ele>
        <time>2022-06-14T09:18:04Z</time>
      </trkpt>
      <trkpt lat="47.70816" lon="-3.35766">
        <ele>12.2</ele>
        <time>2022-06-14T09:18:11Z</time>
      </trkpt>
      <trkpt lat="47.70808" lon="-3.35764">
        <ele>12.35</ele>
        <time>2022-06-14T09:18:23Z</time>
      </trkpt>
      <trkpt lat="47.70804" lon="-3.35764">
        <ele>12.38</ele>
        <time>2022-06-14T09:18:24Z</time>
      </trkpt>
      <trkpt lat="47.70794" lon="-3.35765">
        <ele>12.49</ele>
        <time>2022-06-14T09:18:26Z</time>
      </trkpt>
      <trkpt lat="47.70768" lon="-3.3578">
        <ele>12.19</ele>
        <time>2022-06-14T09:18:35Z</time>
      </trkpt>
      <trkpt lat="47.70747" lon="-3.35785">
        <ele>11.29</ele>
        <time>2022-06-14T09:18:41Z</time>
      </trkpt>
      <trkpt lat="47.70746" lon="-3.35781">
        <ele>11.09</ele>
        <time>2022-06-14T09:18:42Z</time>
      </trkpt>
      <trkpt lat="47.70744" lon="-3.35777">
        <ele>10.97</ele>
        <time>2022-06-14T09:18:43Z</time>
      </trkpt>
      <trkpt lat="47.70726" lon="-3.3573">
        <ele>11.46</ele>
        <time>2022-06-14T09:18:50Z</time>
      </trkpt>
      <trkpt lat="47.70698" lon="-3.3563">
        <ele>13.41</ele>
        <time>2022-06-14T09:19:00Z</time>
      </trkpt>
      <trkpt lat="47.70678" lon="-3.35532">
        <ele>14.71</ele>
        <time>2022-06-14T09:19:10Z</time>
      </trkpt>
      <trkpt lat="47.70658" lon="-3.35444">
        <ele>15.68</ele>
        <time>2022-06-14T09:19:19Z</time>
      </trkpt>
      <trkpt lat="47.70646" lon="-3.35402">
        <ele>15.67</ele>
        <time>2022-06-14T09:19:27Z</time>
      </trkpt>
      <trkpt lat="47.70632" lon="-3.35334">
        <ele>16.25</ele>
        <time>2022-06-14T09:19:35Z</time>
      </trkpt>
      <trkpt lat="47.7061" lon="-3.35245">
        <ele>16.41</ele>
        <time>2022-06-14T09:19:45Z</time>
      </trkpt>
      <trkpt lat="47.70606" lon="-3.35193">
        <ele>15.08</ele>
        <time>2022-06-14T09:19:53Z</time>
      </trkpt>
      <trkpt lat="47.70608" lon="-3.35188">
        <ele>13.91</ele>
        <time>2022-06-14T09:20:03Z</time>
      </trkpt>
      <trkpt lat="47.70607" lon="-3.35181">
        <ele>13.96</ele>
        <time>2022-06-14T09:20:08Z</time>
      </trkpt>
      <trkpt lat="47.70606" lon="-3.35178">
        <ele>14.05</ele>
        <time>2022-06-14T09:20:09Z</time>
      </trkpt>
      <trkpt lat="47.70602" lon="-3.35172">
        <ele>14.09</ele>
        <time>2022-06-14T09:20:11Z</time>
      </trkpt>
      <trkpt lat="47.706" lon="-3.3517">
        <ele>14.11</ele>
        <time>2022-06-14T09:20:12Z</time>
      </trkpt>
      <trkpt lat="47.70597" lon="-3.35168">
        <ele>14.12</ele>
        <time>2022-06-14T09:20:13Z</time>
      </trkpt>
      <trkpt lat="47.70595" lon="-3.35165">
        <ele>14.12</ele>
        <time>2022-06-14T09:20:14Z</time>
      </trkpt>
      <trkpt lat="47.70592" lon="-3.35162">
        <ele>14.12</ele>
        <time>2022-06-14T09:20:15Z</time>
      </trkpt>
      <trkpt lat="47.70557" lon="-3.35122">
        <ele>13.7</ele>
        <time>2022-06-14T09:20:24Z</time>
      </trkpt>
      <trkpt lat="47.70515" lon="-3.35085">
        <ele>12.82</ele>
        <time>2022-06-14T09:20:33Z</time>
      </trkpt>
      <trkpt lat="47.70502" lon="-3.35059">
        <ele>12.18</ele>
        <time>2022-06-14T09:20:40Z</time>
      </trkpt>
      <trkpt lat="47.70501" lon="-3.35051">
        <ele>12.16</ele>
        <time>2022-06-14T09:20:41Z</time>
      </trkpt>
      <trkpt lat="47.70501" lon="-3.35043">
        <ele>12.14</ele>
        <time>2022-06-14T09:20:42Z</time>
      </trkpt>
      <trkpt lat="47.70503" lon="-3.35034">
        <ele>12.13</ele>
        <time>2022-06-14T09:20:43Z</time>
      </trkpt>
      <trkpt lat="47.70505" lon="-3.35024">
        <ele>12.12</ele>
        <time>2022-06-14T09:20:44Z</time>
      </trkpt>
      <trkpt lat="47.70508" lon="-3.35015">
        <ele>12.09</ele>
        <time>2022-06-14T09:20:45Z</time>
      </trkpt>
      <trkpt lat="47.70544" lon="-3.34919">
        <ele>10.35</ele>
        <time>2022-06-14T09:20:54Z</time>
      </trkpt>
      <trkpt lat="47.70591" lon="-3.34814">
        <ele>9.3</ele>
        <time>2022-06-14T09:21:05Z</time>
      </trkpt>
      <trkpt lat="47.70609" lon="-3.34777">
        <ele>9.47</ele>
        <time>2022-06-14T09:21:12Z</time>
      </trkpt>
      <trkpt lat="47.70612" lon="-3.34776">
        <ele>9.3</ele>
        <time>2022-06-14T09:21:21Z</time>
      </trkpt>
      <trkpt lat="47.70611" lon="-3.34765">
        <ele>8.93</ele>
        <time>2022-06-14T09:21:35Z</time>
      </trkpt>
      <trkpt lat="47.70607" lon="-3.34756">
        <ele>8.35</ele>
        <time>2022-06-14T09:21:42Z</time>
      </trkpt>
      <trkpt lat="47.70597" lon="-3.34752">
        <ele>8.05</ele>
        <time>2022-06-14T09:21:53Z</time>
      </trkpt>
      <trkpt lat="47.70588" lon="-3.34755">
        <ele>7.81</ele>
        <time>2022-06-14T09:22:06Z</time>
      </trkpt>
      <trkpt lat="47.70579" lon="-3.34754">
        <ele>8.09</ele>
        <time>2022-06-14T09:22:16Z</time>
      </trkpt>
      <trkpt lat="47.7056" lon="-3.34753">
        <ele>7.81</ele>
        <time>2022-06-14T09:22:30Z</time>
      </trkpt>
      <trkpt lat="47.7055" lon="-3.34751">
        <ele>7.85</ele>
        <time>2022-06-14T09:22:37Z</time>
      </trkpt>
      <trkpt lat="47.70536" lon="-3.34751">
        <ele>7.71</ele>
        <time>2022-06-14T09:22:48Z</time>
      </trkpt>
      <trkpt lat="47.70527" lon="-3.34746">
        <ele>7.59</ele>
        <time>2022-06-14T09:22:55Z</time>
      </trkpt>
      <trkpt lat="47.70525" lon="-3.34747">
        <ele>7.81</ele>
        <time>2022-06-14T09:23:09Z</time>
      </trkpt>
      <trkpt lat="47.70524" lon="-3.34747">
        <ele>7.96</ele>
        <time>2022-06-14T09:23:26Z</time>
      </trkpt>
      <trkpt lat="47.70524" lon="-3.34742">
        <ele>7.53</ele>
        <time>2022-06-14T09:23:41Z</time>
      </trkpt>
      <trkpt lat="47.70526" lon="-3.34749">
        <ele>8.05</ele>
        <time>2022-06-14T09:23:57Z</time>
      </trkpt>
      <trkpt lat="47.70527" lon="-3.34749">
        <ele>8.05</ele>
        <time>2022-06-14T09:24:14Z</time>
      </trkpt>
      <trkpt lat="47.70523" lon="-3.34738">
        <ele>7.73</ele>
        <time>2022-06-14T09:24:26Z</time>
      </trkpt>
      <trkpt lat="47.70524" lon="-3.3472">
        <ele>7.04</ele>
        <time>2022-06-14T09:24:41Z</time>
      </trkpt>
      <trkpt lat="47.70524" lon="-3.34711">
        <ele>6.98</ele>
        <time>2022-06-14T09:24:58Z</time>
      </trkpt>
      <trkpt lat="47.70522" lon="-3.34699">
        <ele>6.89</ele>
        <time>2022-06-14T09:25:12Z</time>
      </trkpt>
      <trkpt lat="47.7052" lon="-3.34681">
        <ele>6.87</ele>
        <time>2022-06-14T09:25:25Z</time>
      </trkpt>
      <trkpt lat="47.70518" lon="-3.34673">
        <ele>6.79</ele>
        <time>2022-06-14T09:25:39Z</time>
      </trkpt>
      <trkpt lat="47.70517" lon="-3.34666">
        <ele>6.96</ele>
        <time>2022-06-14T09:25:49Z</time>
      </trkpt>
      <trkpt lat="47.70515" lon="-3.34653">
        <ele>7.22</ele>
        <time>2022-06-14T09:26:01Z</time>
      </trkpt>
      <trkpt lat="47.70512" lon="-3.34643">
        <ele>7.21</ele>
        <time>2022-06-14T09:26:16Z</time>
      </trkpt>
      <trkpt lat="47.70513" lon="-3.34643">
        <ele>7.21</ele>
        <time>2022-06-14T09:26:36Z</time>
      </trkpt>
      <trkpt lat="47.70513" lon="-3.34636">
        <ele>7.21</ele>
        <time>2022-06-14T09:26:52Z</time>
      </trkpt>
      <trkpt lat="47.70511" lon="-3.34632">
        <ele>7.21</ele>
        <time>2022-06-14T09:27:09Z</time>
      </trkpt>
      <trkpt lat="47.7051" lon="-3.34633">
        <ele>7.21</ele>
        <time>2022-06-14T09:27:25Z</time>
      </trkpt>
      <trkpt lat="47.7051" lon="-3.34631">
        <ele>7.21</ele>
        <time>2022-06-14T09:27:49Z</time>
      </trkpt>
      <trkpt lat="47.70511" lon="-3.34632">
        <ele>7.21</ele>
        <time>2022-06-14T09:28:02Z</time>
      </trkpt>
      <trkpt lat="47.70511" lon="-3.34632">
        <ele>7.21</ele>
        <time>2022-06-14T09:28:22Z</time>
      </trkpt>
      <trkpt lat="47.70511" lon="-3.34632">
        <ele>7.21</ele>
        <time>2022-06-14T09:28:57Z</time>
      </trkpt>
      <trkpt lat="47.70509" lon="-3.34632">
        <ele>7.21</ele>
        <time>2022-06-14T09:29:30Z</time>
      </trkpt>
      <trkpt lat="47.70509" lon="-3.34633">
        <ele>7.21</ele>
        <time>2022-06-14T09:29:52Z</time>
      </trkpt>
      <trkpt lat="47.7051" lon="-3.34633">
        <ele>7.21</ele>
        <time>2022-06-14T09:30:21Z</time>
      </trkpt>
      <trkpt lat="47.70511" lon="-3.34633">
        <ele>7.21</ele>
        <time>2022-06-14T09:30:41Z</time>
      </trkpt>
      <trkpt lat="47.70512" lon="-3.34633">
        <ele>7.21</ele>
        <time>2022-06-14T09:30:57Z</time>
      </trkpt>
      <trkpt lat="47.70512" lon="-3.34632">
        <ele>7.21</ele>
        <time>2022-06-14T09:31:16Z</time>
      </trkpt>
      <trkpt lat="47.70512" lon="-3.34632">
        <ele>7.21</ele>
        <time>2022-06-14T09:31:40Z</time>
      </trkpt>
      <trkpt lat="47.70512" lon="-3.34631">
        <ele>7.21</ele>
        <time>2022-06-14T09:32:06Z</time>
      </trkpt>
      <trkpt lat="47.70512" lon="-3.3463">
        <ele>7.21</ele>
        <time>2022-06-14T09:32:28Z</time>
      </trkpt>
      <trkpt lat="47.70513" lon="-3.34632">
        <ele>7.21</ele>
        <time>2022-06-14T09:32:51Z</time>
      </trkpt>
      <trkpt lat="47.70513" lon="-3.34632">
        <ele>7.21</ele>
        <time>2022-06-14T09:33:13Z</time>
      </trkpt>
      <trkpt lat="47.70514" lon="-3.34633">
        <ele>7.21</ele>
        <time>2022-06-14T09:33:42Z</time>
      </trkpt>
      <trkpt lat="47.70514" lon="-3.34632">
        <ele>7.21</ele>
        <time>2022-06-14T09:34:04Z</time>
      </trkpt>
      <trkpt lat="47.70513" lon="-3.34634">
        <ele>7.21</ele>
        <time>2022-06-14T09:34:24Z</time>
      </trkpt>
      <trkpt lat="47.70513" lon="-3.34634">
        <ele>7.21</ele>
        <time>2022-06-14T09:34:48Z</time>
      </trkpt>
      <trkpt lat="47.70513" lon="-3.34634">
        <ele>7.21</ele>
        <time>2022-06-14T09:35:09Z</time>
      </trkpt>
      <trkpt lat="47.70513" lon="-3.34634">
        <ele>7.21</ele>
        <time>2022-06-14T09:35:29Z</time>
      </trkpt>
      <trkpt lat="47.70513" lon="-3.34634">
        <ele>7.21</ele>
        <time>2022-06-14T09:35:51Z</time>
      </trkpt>
      <trkpt lat="47.70512" lon="-3.34634">
        <ele>7.21</ele>
        <time>2022-06-14T09:36:14Z</time>
      </trkpt>
      <trkpt lat="47.70513" lon="-3.34632">
        <ele>7.21</ele>
        <time>2022-06-14T09:36:43Z</time>
      </trkpt>
      <trkpt lat="47.70514" lon="-3.34632">
        <ele>7.21</ele>
        <time>2022-06-14T09:37:05Z</time>
      </trkpt>
      <trkpt lat="47.70516" lon="-3.34632">
        <ele>7.21</ele>
        <time>2022-06-14T09:37:25Z</time>
      </trkpt>
      <trkpt lat="47.70518" lon="-3.34631">
        <ele>7.21</ele>
        <time>2022-06-14T09:38:04Z</time>
      </trkpt>
      <trkpt lat="47.70517" lon="-3.34631">
        <ele>7.21</ele>
        <time>2022-06-14T09:38:35Z</time>
      </trkpt>
      <trkpt lat="47.70518" lon="-3.34631">
        <ele>7.21</ele>
        <time>2022-06-14T09:38:51Z</time>
      </trkpt>
      <trkpt lat="47.70517" lon="-3.34631">
        <ele>7.21</ele>
        <time>2022-06-14T09:39:11Z</time>
      </trkpt>
      <trkpt lat="47.70516" lon="-3.34632">
        <ele>7.21</ele>
        <time>2022-06-14T09:39:31Z</time>
      </trkpt>
      <trkpt lat="47.70516" lon="-3.34633">
        <ele>9.44</ele>
        <time>2022-06-14T09:39:47Z</time>
      </trkpt>
      <trkpt lat="47.70516" lon="-3.34633">
        <ele>9.44</ele>
        <time>2022-06-14T09:39:58Z</time>
      </trkpt>
      <trkpt lat="47.70515" lon="-3.34632">
        <ele>9.38</ele>
        <time>2022-06-14T09:40:06Z</time>
      </trkpt>
      <trkpt lat="47.70515" lon="-3.34632">
        <ele>9.45</ele>
        <time>2022-06-14T09:40:27Z</time>
      </trkpt>
      <trkpt lat="47.70516" lon="-3.34631">
        <ele>9.32</ele>
        <time>2022-06-14T09:40:50Z</time>
      </trkpt>
      <trkpt lat="47.70517" lon="-3.34632">
        <ele>9.11</ele>
        <time>2022-06-14T09:41:13Z</time>
      </trkpt>
      <trkpt lat="47.70517" lon="-3.34633">
        <ele>9.01</ele>
        <time>2022-06-14T09:41:32Z</time>
      </trkpt>
      <trkpt lat="47.70516" lon="-3.34634">
        <ele>9.09</ele>
        <time>2022-06-14T09:41:56Z</time>
      </trkpt>
      <trkpt lat="47.70516" lon="-3.34633">
        <ele>9.09</ele>
        <time>2022-06-14T09:42:24Z</time>
      </trkpt>
      <trkpt lat="47.70516" lon="-3.34634">
        <ele>9.09</ele>
        <time>2022-06-14T09:42:43Z</time>
      </trkpt>
      <trkpt lat="47.70514" lon="-3.34644">
        <ele>9.09</ele>
        <time>2022-06-14T09:43:01Z</time>
      </trkpt>
      <trkpt lat="47.70516" lon="-3.34651">
        <ele>9.09</ele>
        <time>2022-06-14T09:43:15Z</time>
      </trkpt>
      <trkpt lat="47.70517" lon="-3.34653">
        <ele>9.09</ele>
        <time>2022-06-14T09:43:34Z</time>
      </trkpt>
      <trkpt lat="47.70518" lon="-3.34654">
        <ele>9.09</ele>
        <time>2022-06-14T09:43:49Z</time>
      </trkpt>
      <trkpt lat="47.7052" lon="-3.34664">
        <ele>9.09</ele>
        <time>2022-06-14T09:44:03Z</time>
      </trkpt>
      <trkpt lat="47.70518" lon="-3.34665">
        <ele>9.09</ele>
        <time>2022-06-14T09:44:17Z</time>
      </trkpt>
      <trkpt lat="47.70517" lon="-3.34659">
        <ele>9.09</ele>
        <time>2022-06-14T09:44:24Z</time>
      </trkpt>
      <trkpt lat="47.70511" lon="-3.34638">
        <ele>6.8</ele>
        <time>2022-06-14T09:44:44Z</time>
      </trkpt>
      <trkpt lat="47.70509" lon="-3.34636">
        <ele>6.63</ele>
        <time>2022-06-14T09:44:59Z</time>
      </trkpt>
      <trkpt lat="47.70515" lon="-3.34632">
        <ele>5.67</ele>
        <time>2022-06-14T09:45:17Z</time>
      </trkpt>
      <trkpt lat="47.70516" lon="-3.34636">
        <ele>4.82</ele>
        <time>2022-06-14T09:45:35Z</time>
      </trkpt>
      <trkpt lat="47.70517" lon="-3.34642">
        <ele>4.93</ele>
        <time>2022-06-14T09:45:55Z</time>
      </trkpt>
      <trkpt lat="47.70518" lon="-3.34643">
        <ele>4.78</ele>
        <time>2022-06-14T09:46:18Z</time>
      </trkpt>
      <trkpt lat="47.70518" lon="-3.34641">
        <ele>4.92</ele>
        <time>2022-06-14T09:46:37Z</time>
      </trkpt>
      <trkpt lat="47.7052" lon="-3.34636">
        <ele>4.82</ele>
        <time>2022-06-14T09:47:00Z</time>
      </trkpt>
      <trkpt lat="47.70518" lon="-3.34625">
        <ele>4.82</ele>
        <time>2022-06-14T09:47:16Z</time>
      </trkpt>
      <trkpt lat="47.70514" lon="-3.34621">
        <ele>4.82</ele>
        <time>2022-06-14T09:47:31Z</time>
      </trkpt>
      <trkpt lat="47.70514" lon="-3.34619">
        <ele>4.82</ele>
        <time>2022-06-14T09:47:49Z</time>
      </trkpt>
      <trkpt lat="47.70513" lon="-3.34617">
        <ele>4.82</ele>
        <time>2022-06-14T09:48:07Z</time>
      </trkpt>
      <trkpt lat="47.70513" lon="-3.34618">
        <ele>4.82</ele>
        <time>2022-06-14T09:48:29Z</time>
      </trkpt>
      <trkpt lat="47.70513" lon="-3.34619">
        <ele>4.82</ele>
        <time>2022-06-14T09:48:52Z</time>
      </trkpt>
      <trkpt lat="47.70514" lon="-3.34616">
        <ele>4.82</ele>
        <time>2022-06-14T09:49:12Z</time>
      </trkpt>
      <trkpt lat="47.70518" lon="-3.34613">
        <ele>4.82</ele>
        <time>2022-06-14T09:49:34Z</time>
      </trkpt>
      <trkpt lat="47.70517" lon="-3.34613">
        <ele>4.82</ele>
        <time>2022-06-14T09:49:57Z</time>
      </trkpt>
      <trkpt lat="47.70514" lon="-3.34614">
        <ele>4.82</ele>
        <time>2022-06-14T09:50:24Z</time>
      </trkpt>
      <trkpt lat="47.70514" lon="-3.34614">
        <ele>4.82</ele>
        <time>2022-06-14T09:50:45Z</time>
      </trkpt>
      <trkpt lat="47.70513" lon="-3.34615">
        <ele>4.82</ele>
        <time>2022-06-14T09:51:05Z</time>
      </trkpt>
      <trkpt lat="47.70513" lon="-3.34617">
        <ele>4.82</ele>
        <time>2022-06-14T09:51:34Z</time>
      </trkpt>
      <trkpt lat="47.70514" lon="-3.3462">
        <ele>4.82</ele>
        <time>2022-06-14T09:51:58Z</time>
      </trkpt>
      <trkpt lat="47.70513" lon="-3.34619">
        <ele>4.82</ele>
        <time>2022-06-14T09:52:17Z</time>
      </trkpt>
      <trkpt lat="47.70512" lon="-3.34616">
        <ele>4.82</ele>
        <time>2022-06-14T09:52:42Z</time>
      </trkpt>
      <trkpt lat="47.70512" lon="-3.34616">
        <ele>4.82</ele>
        <time>2022-06-14T09:53:17Z</time>
      </trkpt>
      <trkpt lat="47.70515" lon="-3.34617">
        <ele>4.82</ele>
        <time>2022-06-14T09:53:56Z</time>
      </trkpt>
      <trkpt lat="47.70514" lon="-3.34614">
        <ele>4.82</ele>
        <time>2022-06-14T09:54:16Z</time>
      </trkpt>
      <trkpt lat="47.70512" lon="-3.34606">
        <ele>4.25</ele>
        <time>2022-06-14T09:54:30Z</time>
      </trkpt>
      <trkpt lat="47.7051" lon="-3.34608">
        <ele>4.22</ele>
        <time>2022-06-14T09:54:32Z</time>
      </trkpt>
      <trkpt lat="47.70484" lon="-3.34634">
        <ele>4.22</ele>
        <time>2022-06-14T09:54:47Z</time>
      </trkpt>
      <trkpt lat="47.70445" lon="-3.34669">
        <ele>3.96</ele>
        <time>2022-06-14T09:55:03Z</time>
      </trkpt>
      <trkpt lat="47.70404" lon="-3.34719">
        <ele>3.75</ele>
        <time>2022-06-14T09:55:21Z</time>
      </trkpt>
      <trkpt lat="47.70348" lon="-3.34782">
        <ele>3.66</ele>
        <time>2022-06-14T09:55:47Z</time>
      </trkpt>
      <trkpt lat="47.70303" lon="-3.34852">
        <ele>3.9</ele>
        <time>2022-06-14T09:56:09Z</time>
      </trkpt>
      <trkpt lat="47.70272" lon="-3.34919">
        <ele>3.77</ele>
        <time>2022-06-14T09:56:27Z</time>
      </trkpt>
      <trkpt lat="47.7026" lon="-3.34978">
        <ele>3.7</ele>
        <time>2022-06-14T09:56:41Z</time>
      </trkpt>
      <trkpt lat="47.70247" lon="-3.35053">
        <ele>3.62</ele>
        <time>2022-06-14T09:56:58Z</time>
      </trkpt>
      <trkpt lat="47.70223" lon="-3.35103">
        <ele>3.59</ele>
        <time>2022-06-14T09:57:11Z</time>
      </trkpt>
      <trkpt lat="47.70182" lon="-3.35165">
        <ele>3.81</ele>
        <time>2022-06-14T09:57:30Z</time>
      </trkpt>
      <trkpt lat="47.70154" lon="-3.35178">
        <ele>3.55</ele>
        <time>2022-06-14T09:57:42Z</time>
      </trkpt>
      <trkpt lat="47.70129" lon="-3.35154">
        <ele>3.6</ele>
        <time>2022-06-14T09:57:53Z</time>
      </trkpt>
      <trkpt lat="47.70093" lon="-3.35121">
        <ele>4.51</ele>
        <time>2022-06-14T09:58:11Z</time>
      </trkpt>
      <trkpt lat="47.70079" lon="-3.35126">
        <ele>4.6</ele>
        <time>2022-06-14T09:58:22Z</time>
      </trkpt>
      <trkpt lat="47.70078" lon="-3.35126">
        <ele>4.68</ele>
        <time>2022-06-14T09:58:23Z</time>
      </trkpt>
      <trkpt lat="47.70066" lon="-3.35126">
        <ele>4.69</ele>
        <time>2022-06-14T09:58:37Z</time>
      </trkpt>
      <trkpt lat="47.70063" lon="-3.35127">
        <ele>4.51</ele>
        <time>2022-06-14T09:58:56Z</time>
      </trkpt>
      <trkpt lat="47.70062" lon="-3.35126">
        <ele>4.51</ele>
        <time>2022-06-14T09:59:04Z</time>
      </trkpt>
      <trkpt lat="47.70055" lon="-3.35134">
        <ele>4.51</ele>
        <time>2022-06-14T09:59:20Z</time>
      </trkpt>
      <trkpt lat="47.70048" lon="-3.35145">
        <ele>4.51</ele>
        <time>2022-06-14T09:59:35Z</time>
      </trkpt>
      <trkpt lat="47.70045" lon="-3.35148">
        <ele>8.75</ele>
        <time>2022-06-14T09:59:42Z</time>
      </trkpt>
      <trkpt lat="47.70045" lon="-3.35148">
        <ele>8.75</ele>
        <time>2022-06-14T09:59:43Z</time>
      </trkpt>
      <trkpt lat="47.70044" lon="-3.35149">
        <ele>8.6</ele>
        <time>2022-06-14T10:00:01Z</time>
      </trkpt>
      <trkpt lat="47.70043" lon="-3.35148">
        <ele>8.56</ele>
        <time>2022-06-14T10:00:19Z</time>
      </trkpt>
      <trkpt lat="47.70041" lon="-3.35157">
        <ele>8.75</ele>
        <time>2022-06-14T10:00:34Z</time>
      </trkpt>
      <trkpt lat="47.70039" lon="-3.3516">
        <ele>9.09</ele>
        <time>2022-06-14T10:00:48Z</time>
      </trkpt>
      <trkpt lat="47.70036" lon="-3.35162">
        <ele>9.09</ele>
        <time>2022-06-14T10:01:06Z</time>
      </trkpt>
      <trkpt lat="47.70041" lon="-3.35171">
        <ele>9.09</ele>
        <time>2022-06-14T10:01:20Z</time>
      </trkpt>
      <trkpt lat="47.7005" lon="-3.35169">
        <ele>9.25</ele>
        <time>2022-06-14T10:01:33Z</time>
      </trkpt>
      <trkpt lat="47.70043" lon="-3.35173">
        <ele>9.27</ele>
        <time>2022-06-14T10:01:40Z</time>
      </trkpt>
      <trkpt lat="47.70032" lon="-3.35174">
        <ele>9.3</ele>
        <time>2022-06-14T10:01:54Z</time>
      </trkpt>
      <trkpt lat="47.70027" lon="-3.35177">
        <ele>9.28</ele>
        <time>2022-06-14T10:02:11Z</time>
      </trkpt>
      <trkpt lat="47.7002" lon="-3.35181">
        <ele>9.5</ele>
        <time>2022-06-14T10:02:27Z</time>
      </trkpt>
      <trkpt lat="47.70006" lon="-3.35185">
        <ele>9.75</ele>
        <time>2022-06-14T10:02:42Z</time>
      </trkpt>
      <trkpt lat="47.69994" lon="-3.35191">
        <ele>9.75</ele>
        <time>2022-06-14T10:02:50Z</time>
      </trkpt>
      <trkpt lat="47.69985" lon="-3.35207">
        <ele>10.39</ele>
        <time>2022-06-14T10:03:02Z</time>
      </trkpt>
      <trkpt lat="47.69972" lon="-3.35218">
        <ele>10.44</ele>
        <time>2022-06-14T10:03:21Z</time>
      </trkpt>
      <trkpt lat="47.69952" lon="-3.35228">
        <ele>10.59</ele>
        <time>2022-06-14T10:03:37Z</time>
      </trkpt>
      <trkpt lat="47.69936" lon="-3.35235">
        <ele>10.59</ele>
        <time>2022-06-14T10:03:54Z</time>
      </trkpt>
      <trkpt lat="47.69922" lon="-3.35242">
        <ele>10.76</ele>
        <time>2022-06-14T10:04:10Z</time>
      </trkpt>
      <trkpt lat="47.69899" lon="-3.35256">
        <ele>10.76</ele>
        <time>2022-06-14T10:04:33Z</time>
      </trkpt>
      <trkpt lat="47.69881" lon="-3.35262">
        <ele>10.76</ele>
        <time>2022-06-14T10:04:51Z</time>
      </trkpt>
      <trkpt lat="47.6987" lon="-3.35267">
        <ele>10.76</ele>
        <time>2022-06-14T10:05:06Z</time>
      </trkpt>
      <trkpt lat="47.69852" lon="-3.35276">
        <ele>10.76</ele>
        <time>2022-06-14T10:05:24Z</time>
      </trkpt>
      <trkpt lat="47.69843" lon="-3.35273">
        <ele>10.76</ele>
        <time>2022-06-14T10:05:39Z</time>
      </trkpt>
      <trkpt lat="47.69829" lon="-3.35279">
        <ele>9.49</ele>
        <time>2022-06-14T10:05:57Z</time>
      </trkpt>
      <trkpt lat="47.69813" lon="-3.35277">
        <ele>9.03</ele>
        <time>2022-06-14T10:06:11Z</time>
      </trkpt>
      <trkpt lat="47.6979" lon="-3.35285">
        <ele>8.97</ele>
        <time>2022-06-14T10:06:25Z</time>
      </trkpt>
      <trkpt lat="47.69778" lon="-3.35285">
        <ele>8.78</ele>
        <time>2022-06-14T10:06:40Z</time>
      </trkpt>
      <trkpt lat="47.69774" lon="-3.35277">
        <ele>8.73</ele>
        <time>2022-06-14T10:06:55Z</time>
      </trkpt>
      <trkpt lat="47.69772" lon="-3.35276">
        <ele>8.58</ele>
        <time>2022-06-14T10:07:11Z</time>
      </trkpt>
      <trkpt lat="47.69773" lon="-3.35278">
        <ele>8.54</ele>
        <time>2022-06-14T10:07:33Z</time>
      </trkpt>
      <trkpt lat="47.69764" lon="-3.35267">
        <ele>8.54</ele>
        <time>2022-06-14T10:07:47Z</time>
      </trkpt>
      <trkpt lat="47.69756" lon="-3.35263">
        <ele>8.54</ele>
        <time>2022-06-14T10:08:02Z</time>
      </trkpt>
      <trkpt lat="47.69756" lon="-3.35261">
        <ele>8.54</ele>
        <time>2022-06-14T10:08:23Z</time>
      </trkpt>
      <trkpt lat="47.69761" lon="-3.35247">
        <ele>9.01</ele>
        <time>2022-06-14T10:08:35Z</time>
      </trkpt>
      <trkpt lat="47.6976" lon="-3.35231">
        <ele>8.96</ele>
        <time>2022-06-14T10:08:48Z</time>
      </trkpt>
      <trkpt lat="47.69757" lon="-3.35209">
        <ele>8.98</ele>
        <time>2022-06-14T10:08:59Z</time>
      </trkpt>
      <trkpt lat="47.69763" lon="-3.35189">
        <ele>9.06</ele>
        <time>2022-06-14T10:09:09Z</time>
      </trkpt>
      <trkpt lat="47.6977" lon="-3.35182">
        <ele>8.97</ele>
        <time>2022-06-14T10:09:16Z</time>
      </trkpt>
      <trkpt lat="47.69776" lon="-3.35172">
        <ele>8.92</ele>
        <time>2022-06-14T10:09:28Z</time>
      </trkpt>
      <trkpt lat="47.69779" lon="-3.35169">
        <ele>9.39</ele>
        <time>2022-06-14T10:09:46Z</time>
      </trkpt>
      <trkpt lat="47.6978" lon="-3.35166">
        <ele>9.39</ele>
        <time>2022-06-14T10:10:04Z</time>
      </trkpt>
      <trkpt lat="47.69778" lon="-3.35164">
        <ele>9.39</ele>
        <time>2022-06-14T10:10:25Z</time>
      </trkpt>
      <trkpt lat="47.6978" lon="-3.35165">
        <ele>9.39</ele>
        <time>2022-06-14T10:10:42Z</time>
      </trkpt>
      <trkpt lat="47.69781" lon="-3.35167">
        <ele>9.39</ele>
        <time>2022-06-14T10:11:04Z</time>
      </trkpt>
      <trkpt lat="47.69783" lon="-3.35169">
        <ele>9.39</ele>
        <time>2022-06-14T10:11:20Z</time>
      </trkpt>
      <trkpt lat="47.69783" lon="-3.35169">
        <ele>9.39</ele>
        <time>2022-06-14T10:11:38Z</time>
      </trkpt>
      <trkpt lat="47.69783" lon="-3.35168">
        <ele>9.39</ele>
        <time>2022-06-14T10:11:56Z</time>
      </trkpt>
      <trkpt lat="47.69779" lon="-3.35177">
        <ele>9.4</ele>
        <time>2022-06-14T10:13:19Z</time>
      </trkpt>
      <trkpt lat="47.69775" lon="-3.3518">
        <ele>9.4</ele>
        <time>2022-06-14T10:13:33Z</time>
      </trkpt>
      <trkpt lat="47.69762" lon="-3.35186">
        <ele>9.4</ele>
        <time>2022-06-14T10:13:49Z</time>
      </trkpt>
      <trkpt lat="47.69744" lon="-3.35191">
        <ele>9.31</ele>
        <time>2022-06-14T10:14:03Z</time>
      </trkpt>
      <trkpt lat="47.6973" lon="-3.35206">
        <ele>9.57</ele>
        <time>2022-06-14T10:14:18Z</time>
      </trkpt>
      <trkpt lat="47.69715" lon="-3.3522">
        <ele>9.56</ele>
        <time>2022-06-14T10:14:32Z</time>
      </trkpt>
      <trkpt lat="47.69707" lon="-3.35236">
        <ele>9.4</ele>
        <time>2022-06-14T10:14:47Z</time>
      </trkpt>
      <trkpt lat="47.69692" lon="-3.35254">
        <ele>9.26</ele>
        <time>2022-06-14T10:15:00Z</time>
      </trkpt>
      <trkpt lat="47.69675" lon="-3.35273">
        <ele>9.14</ele>
        <time>2022-06-14T10:15:18Z</time>
      </trkpt>
      <trkpt lat="47.69672" lon="-3.35276">
        <ele>9.14</ele>
        <time>2022-06-14T10:15:20Z</time>
      </trkpt>
      <trkpt lat="47.69656" lon="-3.35289">
        <ele>9.2</ele>
        <time>2022-06-14T10:15:34Z</time>
      </trkpt>
      <trkpt lat="47.69647" lon="-3.35301">
        <ele>8.92</ele>
        <time>2022-06-14T10:15:45Z</time>
      </trkpt>
      <trkpt lat="47.69636" lon="-3.35314">
        <ele>9.1</ele>
        <time>2022-06-14T10:15:55Z</time>
      </trkpt>
      <trkpt lat="47.69628" lon="-3.35323">
        <ele>9.26</ele>
        <time>2022-06-14T10:16:02Z</time>
      </trkpt>
      <trkpt lat="47.69621" lon="-3.35327">
        <ele>9.48</ele>
        <time>2022-06-14T10:16:08Z</time>
      </trkpt>
      <trkpt lat="47.69608" lon="-3.35339">
        <ele>9.96</ele>
        <time>2022-06-14T10:16:23Z</time>
      </trkpt>
      <trkpt lat="47.69609" lon="-3.3534">
        <ele>10.04</ele>
        <time>2022-06-14T10:16:47Z</time>
      </trkpt>
      <trkpt lat="47.69619" lon="-3.35358">
        <ele>10.88</ele>
        <time>2022-06-14T10:17:39Z</time>
      </trkpt>
      <trkpt lat="47.69604" lon="-3.35355">
        <ele>10.95</ele>
        <time>2022-06-14T10:18:28Z</time>
      </trkpt>
      <trkpt lat="47.69605" lon="-3.35339">
        <ele>10.9</ele>
        <time>2022-06-14T10:23:47Z</time>
      </trkpt>
      <trkpt lat="47.6961" lon="-3.35333">
        <ele>10.31</ele>
        <time>2022-06-14T10:23:56Z</time>
      </trkpt>
      <trkpt lat="47.6962" lon="-3.35342">
        <ele>10.18</ele>
        <time>2022-06-14T10:24:09Z</time>
      </trkpt>
      <trkpt lat="47.69621" lon="-3.35344">
        <ele>10.21</ele>
        <time>2022-06-14T10:24:10Z</time>
      </trkpt>
      <trkpt lat="47.69624" lon="-3.35352">
        <ele>10.37</ele>
        <time>2022-06-14T10:24:15Z</time>
      </trkpt>
      <trkpt lat="47.69624" lon="-3.35354">
        <ele>10.4</ele>
        <time>2022-06-14T10:24:16Z</time>
      </trkpt>
      <trkpt lat="47.69627" lon="-3.35363">
        <ele>10.65</ele>
        <time>2022-06-14T10:24:22Z</time>
      </trkpt>
      <trkpt lat="47.69628" lon="-3.35366">
        <ele>10.82</ele>
        <time>2022-06-14T10:24:24Z</time>
      </trkpt>
      <trkpt lat="47.69629" lon="-3.35369">
        <ele>10.89</ele>
        <time>2022-06-14T10:24:25Z</time>
      </trkpt>
      <trkpt lat="47.69635" lon="-3.35386">
        <ele>11.23</ele>
        <time>2022-06-14T10:24:35Z</time>
      </trkpt>
      <trkpt lat="47.69635" lon="-3.35388">
        <ele>11.28</ele>
        <time>2022-06-14T10:24:36Z</time>
      </trkpt>
      <trkpt lat="47.69639" lon="-3.3541">
        <ele>11.2</ele>
        <time>2022-06-14T10:24:48Z</time>
      </trkpt>
      <trkpt lat="47.69644" lon="-3.3542">
        <ele>10.55</ele>
        <time>2022-06-14T10:25:02Z</time>
      </trkpt>
      <trkpt lat="47.6965" lon="-3.3542">
        <ele>10.2</ele>
        <time>2022-06-14T10:25:14Z</time>
      </trkpt>
      <trkpt lat="47.69651" lon="-3.3542">
        <ele>10.38</ele>
        <time>2022-06-14T10:25:15Z</time>
      </trkpt>
      <trkpt lat="47.69652" lon="-3.3542">
        <ele>10.54</ele>
        <time>2022-06-14T10:25:16Z</time>
      </trkpt>
      <trkpt lat="47.69659" lon="-3.35423">
        <ele>11.2</ele>
        <time>2022-06-14T10:25:29Z</time>
      </trkpt>
      <trkpt lat="47.69662" lon="-3.35419">
        <ele>10.59</ele>
        <time>2022-06-14T10:25:48Z</time>
      </trkpt>
      <trkpt lat="47.69661" lon="-3.3542">
        <ele>9.84</ele>
        <time>2022-06-14T10:26:08Z</time>
      </trkpt>
      <trkpt lat="47.69658" lon="-3.35421">
        <ele>9.84</ele>
        <time>2022-06-14T10:26:24Z</time>
      </trkpt>
      <trkpt lat="47.69657" lon="-3.35417">
        <ele>9.84</ele>
        <time>2022-06-14T10:26:40Z</time>
      </trkpt>
      <trkpt lat="47.69659" lon="-3.35413">
        <ele>9.84</ele>
        <time>2022-06-14T10:27:00Z</time>
      </trkpt>
      <trkpt lat="47.6966" lon="-3.35414">
        <ele>9.84</ele>
        <time>2022-06-14T10:27:19Z</time>
      </trkpt>
      <trkpt lat="47.69662" lon="-3.35414">
        <ele>9.84</ele>
        <time>2022-06-14T10:27:37Z</time>
      </trkpt>
      <trkpt lat="47.6966" lon="-3.35415">
        <ele>9.84</ele>
        <time>2022-06-14T10:27:55Z</time>
      </trkpt>
      <trkpt lat="47.69658" lon="-3.35417">
        <ele>9.84</ele>
        <time>2022-06-14T10:28:16Z</time>
      </trkpt>
      <trkpt lat="47.69659" lon="-3.35418">
        <ele>9.84</ele>
        <time>2022-06-14T10:28:38Z</time>
      </trkpt>
      <trkpt lat="47.6966" lon="-3.35417">
        <ele>9.84</ele>
        <time>2022-06-14T10:28:55Z</time>
      </trkpt>
      <trkpt lat="47.69661" lon="-3.35416">
        <ele>9.84</ele>
        <time>2022-06-14T10:29:09Z</time>
      </trkpt>
      <trkpt lat="47.69661" lon="-3.35412">
        <ele>9.84</ele>
        <time>2022-06-14T10:29:24Z</time>
      </trkpt>
      <trkpt lat="47.69663" lon="-3.35415">
        <ele>9.84</ele>
        <time>2022-06-14T10:29:45Z</time>
      </trkpt>
      <trkpt lat="47.69664" lon="-3.35417">
        <ele>9.84</ele>
        <time>2022-06-14T10:30:04Z</time>
      </trkpt>
      <trkpt lat="47.69664" lon="-3.35415">
        <ele>9.84</ele>
        <time>2022-06-14T10:30:23Z</time>
      </trkpt>
      <trkpt lat="47.69665" lon="-3.35416">
        <ele>9.84</ele>
        <time>2022-06-14T10:30:40Z</time>
      </trkpt>
      <trkpt lat="47.69668" lon="-3.35415">
        <ele>9.84</ele>
        <time>2022-06-14T10:31:00Z</time>
      </trkpt>
      <trkpt lat="47.69667" lon="-3.35414">
        <ele>9.84</ele>
        <time>2022-06-14T10:31:21Z</time>
      </trkpt>
      <trkpt lat="47.69665" lon="-3.35415">
        <ele>9.84</ele>
        <time>2022-06-14T10:31:40Z</time>
      </trkpt>
      <trkpt lat="47.69664" lon="-3.35416">
        <ele>9.84</ele>
        <time>2022-06-14T10:32:02Z</time>
      </trkpt>
      <trkpt lat="47.69665" lon="-3.35415">
        <ele>9.84</ele>
        <time>2022-06-14T10:32:21Z</time>
      </trkpt>
      <trkpt lat="47.69665" lon="-3.35416">
        <ele>9.84</ele>
        <time>2022-06-14T10:32:41Z</time>
      </trkpt>
      <trkpt lat="47.69665" lon="-3.35417">
        <ele>9.84</ele>
        <time>2022-06-14T10:32:59Z</time>
      </trkpt>
      <trkpt lat="47.69664" lon="-3.35418">
        <ele>9.84</ele>
        <time>2022-06-14T10:33:18Z</time>
      </trkpt>
      <trkpt lat="47.69665" lon="-3.35414">
        <ele>9.84</ele>
        <time>2022-06-14T10:33:39Z</time>
      </trkpt>
      <trkpt lat="47.69667" lon="-3.35417">
        <ele>9.84</ele>
        <time>2022-06-14T10:34:01Z</time>
      </trkpt>
      <trkpt lat="47.69668" lon="-3.35414">
        <ele>9.84</ele>
        <time>2022-06-14T10:34:19Z</time>
      </trkpt>
      <trkpt lat="47.69665" lon="-3.35414">
        <ele>9.84</ele>
        <time>2022-06-14T10:34:37Z</time>
      </trkpt>
      <trkpt lat="47.69665" lon="-3.35413">
        <ele>9.84</ele>
        <time>2022-06-14T10:34:57Z</time>
      </trkpt>
      <trkpt lat="47.69665" lon="-3.35412">
        <ele>9.84</ele>
        <time>2022-06-14T10:35:17Z</time>
      </trkpt>
      <trkpt lat="47.69664" lon="-3.35414">
        <ele>9.84</ele>
        <time>2022-06-14T10:35:38Z</time>
      </trkpt>
      <trkpt lat="47.69663" lon="-3.35415">
        <ele>9.84</ele>
        <time>2022-06-14T10:36:00Z</time>
      </trkpt>
      <trkpt lat="47.69665" lon="-3.35418">
        <ele>9.84</ele>
        <time>2022-06-14T10:36:20Z</time>
      </trkpt>
      <trkpt lat="47.69665" lon="-3.35417">
        <ele>9.84</ele>
        <time>2022-06-14T10:36:38Z</time>
      </trkpt>
      <trkpt lat="47.69665" lon="-3.35416">
        <ele>9.84</ele>
        <time>2022-06-14T10:36:59Z</time>
      </trkpt>
      <trkpt lat="47.69664" lon="-3.35418">
        <ele>9.84</ele>
        <time>2022-06-14T10:37:19Z</time>
      </trkpt>
      <trkpt lat="47.69664" lon="-3.35415">
        <ele>9.84</ele>
        <time>2022-06-14T10:37:38Z</time>
      </trkpt>
      <trkpt lat="47.69664" lon="-3.35415">
        <ele>9.84</ele>
        <time>2022-06-14T10:37:59Z</time>
      </trkpt>
      <trkpt lat="47.69664" lon="-3.35413">
        <ele>9.84</ele>
        <time>2022-06-14T10:38:19Z</time>
      </trkpt>
      <trkpt lat="47.69664" lon="-3.35413">
        <ele>9.84</ele>
        <time>2022-06-14T10:38:42Z</time>
      </trkpt>
      <trkpt lat="47.69664" lon="-3.35413">
        <ele>9.84</ele>
        <time>2022-06-14T10:39:01Z</time>
      </trkpt>
      <trkpt lat="47.69664" lon="-3.35415">
        <ele>9.84</ele>
        <time>2022-06-14T10:39:19Z</time>
      </trkpt>
      <trkpt lat="47.69664" lon="-3.35416">
        <ele>9.84</ele>
        <time>2022-06-14T10:39:38Z</time>
      </trkpt>
      <trkpt lat="47.69664" lon="-3.35417">
        <ele>9.84</ele>
        <time>2022-06-14T10:39:57Z</time>
      </trkpt>
      <trkpt lat="47.69663" lon="-3.35418">
        <ele>9.84</ele>
        <time>2022-06-14T10:40:14Z</time>
      </trkpt>
      <trkpt lat="47.69663" lon="-3.35415">
        <ele>9.84</ele>
        <time>2022-06-14T10:40:39Z</time>
      </trkpt>
      <trkpt lat="47.69664" lon="-3.35416">
        <ele>9.84</ele>
        <time>2022-06-14T10:40:59Z</time>
      </trkpt>
      <trkpt lat="47.69664" lon="-3.35416">
        <ele>9.84</ele>
        <time>2022-06-14T10:41:19Z</time>
      </trkpt>
      <trkpt lat="47.69663" lon="-3.35417">
        <ele>9.84</ele>
        <time>2022-06-14T10:41:39Z</time>
      </trkpt>
      <trkpt lat="47.69665" lon="-3.35416">
        <ele>9.84</ele>
        <time>2022-06-14T10:42:00Z</time>
      </trkpt>
      <trkpt lat="47.69665" lon="-3.35414">
        <ele>9.84</ele>
        <time>2022-06-14T10:42:18Z</time>
      </trkpt>
      <trkpt lat="47.69667" lon="-3.35407">
        <ele>9.84</ele>
        <time>2022-06-14T10:42:32Z</time>
      </trkpt>
      <trkpt lat="47.69666" lon="-3.35406">
        <ele>9.84</ele>
        <time>2022-06-14T10:42:48Z</time>
      </trkpt>
      <trkpt lat="47.69665" lon="-3.35409">
        <ele>9.84</ele>
        <time>2022-06-14T10:43:02Z</time>
      </trkpt>
      <trkpt lat="47.69666" lon="-3.35409">
        <ele>9.84</ele>
        <time>2022-06-14T10:43:20Z</time>
      </trkpt>
      <trkpt lat="47.69664" lon="-3.35413">
        <ele>9.84</ele>
        <time>2022-06-14T10:43:40Z</time>
      </trkpt>
      <trkpt lat="47.69665" lon="-3.35411">
        <ele>9.84</ele>
        <time>2022-06-14T10:43:57Z</time>
      </trkpt>
      <trkpt lat="47.69666" lon="-3.35406">
        <ele>9.84</ele>
        <time>2022-06-14T10:44:16Z</time>
      </trkpt>
      <trkpt lat="47.69666" lon="-3.35407">
        <ele>9.84</ele>
        <time>2022-06-14T10:44:36Z</time>
      </trkpt>
      <trkpt lat="47.69661" lon="-3.35413">
        <ele>9.84</ele>
        <time>2022-06-14T10:44:57Z</time>
      </trkpt>
      <trkpt lat="47.6966" lon="-3.35415">
        <ele>9.84</ele>
        <time>2022-06-14T10:45:16Z</time>
      </trkpt>
      <trkpt lat="47.6966" lon="-3.35412">
        <ele>9.84</ele>
        <time>2022-06-14T10:45:30Z</time>
      </trkpt>
      <trkpt lat="47.6966" lon="-3.35412">
        <ele>9.84</ele>
        <time>2022-06-14T10:45:48Z</time>
      </trkpt>
      <trkpt lat="47.6966" lon="-3.3541">
        <ele>9.84</ele>
        <time>2022-06-14T10:46:05Z</time>
      </trkpt>
      <trkpt lat="47.69661" lon="-3.35412">
        <ele>9.84</ele>
        <time>2022-06-14T10:46:22Z</time>
      </trkpt>
      <trkpt lat="47.69661" lon="-3.35415">
        <ele>9.84</ele>
        <time>2022-06-14T10:46:39Z</time>
      </trkpt>
      <trkpt lat="47.69664" lon="-3.35415">
        <ele>9.84</ele>
        <time>2022-06-14T10:47:00Z</time>
      </trkpt>
      <trkpt lat="47.69667" lon="-3.35419">
        <ele>9.84</ele>
        <time>2022-06-14T10:47:17Z</time>
      </trkpt>
      <trkpt lat="47.69669" lon="-3.35416">
        <ele>9.84</ele>
        <time>2022-06-14T10:47:40Z</time>
      </trkpt>
      <trkpt lat="47.69669" lon="-3.35416">
        <ele>9.84</ele>
        <time>2022-06-14T10:47:57Z</time>
      </trkpt>
      <trkpt lat="47.69668" lon="-3.35413">
        <ele>9.84</ele>
        <time>2022-06-14T10:48:14Z</time>
      </trkpt>
      <trkpt lat="47.69672" lon="-3.35411">
        <ele>9.84</ele>
        <time>2022-06-14T10:48:29Z</time>
      </trkpt>
      <trkpt lat="47.69675" lon="-3.35409">
        <ele>9.84</ele>
        <time>2022-06-14T10:48:44Z</time>
      </trkpt>
      <trkpt lat="47.69674" lon="-3.35408">
        <ele>9.84</ele>
        <time>2022-06-14T10:48:58Z</time>
      </trkpt>
      <trkpt lat="47.69675" lon="-3.35409">
        <ele>9.84</ele>
        <time>2022-06-14T10:49:14Z</time>
      </trkpt>
      <trkpt lat="47.69675" lon="-3.35404">
        <ele>9.84</ele>
        <time>2022-06-14T10:49:28Z</time>
      </trkpt>
      <trkpt lat="47.69676" lon="-3.35405">
        <ele>9.84</ele>
        <time>2022-06-14T10:49:44Z</time>
      </trkpt>
      <trkpt lat="47.69677" lon="-3.35406">
        <ele>9.84</ele>
        <time>2022-06-14T10:50:01Z</time>
      </trkpt>
      <trkpt lat="47.69678" lon="-3.35403">
        <ele>9.84</ele>
        <time>2022-06-14T10:50:20Z</time>
      </trkpt>
      <trkpt lat="47.69676" lon="-3.35403">
        <ele>9.84</ele>
        <time>2022-06-14T10:50:36Z</time>
      </trkpt>
      <trkpt lat="47.69676" lon="-3.35405">
        <ele>9.84</ele>
        <time>2022-06-14T10:50:48Z</time>
      </trkpt>
      <trkpt lat="47.69674" lon="-3.3541">
        <ele>9.84</ele>
        <time>2022-06-14T10:51:03Z</time>
      </trkpt>
      <trkpt lat="47.69672" lon="-3.35416">
        <ele>9.84</ele>
        <time>2022-06-14T10:51:22Z</time>
      </trkpt>
      <trkpt lat="47.69674" lon="-3.35413">
        <ele>9.84</ele>
        <time>2022-06-14T10:51:40Z</time>
      </trkpt>
      <trkpt lat="47.69676" lon="-3.35405">
        <ele>9.84</ele>
        <time>2022-06-14T10:51:58Z</time>
      </trkpt>
      <trkpt lat="47.69675" lon="-3.35408">
        <ele>9.84</ele>
        <time>2022-06-14T10:52:14Z</time>
      </trkpt>
      <trkpt lat="47.6967" lon="-3.35414">
        <ele>14.2</ele>
        <time>2022-06-14T10:52:32Z</time>
      </trkpt>
      <trkpt lat="47.6967" lon="-3.35415">
        <ele>13.43</ele>
        <time>2022-06-14T10:52:33Z</time>
      </trkpt>
      <trkpt lat="47.69665" lon="-3.35418">
        <ele>10.32</ele>
        <time>2022-06-14T10:52:48Z</time>
      </trkpt>
      <trkpt lat="47.69665" lon="-3.35418">
        <ele>9.57</ele>
        <time>2022-06-14T10:52:58Z</time>
      </trkpt>
      <trkpt lat="47.69665" lon="-3.35418">
        <ele>9.67</ele>
        <time>2022-06-14T10:53:03Z</time>
      </trkpt>
      <trkpt lat="47.69664" lon="-3.35418">
        <ele>9.79</ele>
        <time>2022-06-14T10:53:09Z</time>
      </trkpt>
      <trkpt lat="47.69664" lon="-3.35419">
        <ele>9.79</ele>
        <time>2022-06-14T10:53:21Z</time>
      </trkpt>
      <trkpt lat="47.69663" lon="-3.35418">
        <ele>9.96</ele>
        <time>2022-06-14T10:54:19Z</time>
      </trkpt>
      <trkpt lat="47.69663" lon="-3.35417">
        <ele>9.94</ele>
        <time>2022-06-14T10:54:59Z</time>
      </trkpt>
      <trkpt lat="47.69663" lon="-3.35419">
        <ele>9.94</ele>
        <time>2022-06-14T10:55:18Z</time>
      </trkpt>
      <trkpt lat="47.69662" lon="-3.35417">
        <ele>9.94</ele>
        <time>2022-06-14T10:55:34Z</time>
      </trkpt>
      <trkpt lat="47.6966" lon="-3.35413">
        <ele>9.94</ele>
        <time>2022-06-14T10:55:50Z</time>
      </trkpt>
      <trkpt lat="47.69659" lon="-3.35413">
        <ele>9.94</ele>
        <time>2022-06-14T10:56:07Z</time>
      </trkpt>
      <trkpt lat="47.6966" lon="-3.35412">
        <ele>9.94</ele>
        <time>2022-06-14T10:56:24Z</time>
      </trkpt>
      <trkpt lat="47.69664" lon="-3.35404">
        <ele>9.94</ele>
        <time>2022-06-14T10:56:38Z</time>
      </trkpt>
      <trkpt lat="47.69665" lon="-3.35406">
        <ele>9.94</ele>
        <time>2022-06-14T10:56:57Z</time>
      </trkpt>
      <trkpt lat="47.69666" lon="-3.35413">
        <ele>9.94</ele>
        <time>2022-06-14T10:57:04Z</time>
      </trkpt>
      <trkpt lat="47.69663" lon="-3.35416">
        <ele>10.28</ele>
        <time>2022-06-14T10:57:25Z</time>
      </trkpt>
      <trkpt lat="47.69663" lon="-3.35411">
        <ele>10.57</ele>
        <time>2022-06-14T10:57:41Z</time>
      </trkpt>
      <trkpt lat="47.69663" lon="-3.35414">
        <ele>10.58</ele>
        <time>2022-06-14T10:57:46Z</time>
      </trkpt>
      <trkpt lat="47.69663" lon="-3.35419">
        <ele>10.37</ele>
        <time>2022-06-14T10:58:04Z</time>
      </trkpt>
      <trkpt lat="47.69662" lon="-3.35421">
        <ele>9.83</ele>
        <time>2022-06-14T10:58:33Z</time>
      </trkpt>
      <trkpt lat="47.69662" lon="-3.35422">
        <ele>10.16</ele>
        <time>2022-06-14T10:58:56Z</time>
      </trkpt>
      <trkpt lat="47.69662" lon="-3.35421">
        <ele>10.82</ele>
        <time>2022-06-14T10:59:13Z</time>
      </trkpt>
      <trkpt lat="47.69661" lon="-3.35423">
        <ele>10.86</ele>
        <time>2022-06-14T10:59:37Z</time>
      </trkpt>
      <trkpt lat="47.69661" lon="-3.35423">
        <ele>11.27</ele>
        <time>2022-06-14T10:59:57Z</time>
      </trkpt>
      <trkpt lat="47.69662" lon="-3.35423">
        <ele>11.03</ele>
        <time>2022-06-14T11:00:20Z</time>
      </trkpt>
      <trkpt lat="47.69662" lon="-3.35421">
        <ele>11.03</ele>
        <time>2022-06-14T11:00:40Z</time>
      </trkpt>
      <trkpt lat="47.69662" lon="-3.35422">
        <ele>11.03</ele>
        <time>2022-06-14T11:01:03Z</time>
      </trkpt>
      <trkpt lat="47.69653" lon="-3.3542">
        <ele>11.16</ele>
        <time>2022-06-14T11:01:18Z</time>
      </trkpt>
      <trkpt lat="47.69644" lon="-3.3542">
        <ele>11.16</ele>
        <time>2022-06-14T11:01:32Z</time>
      </trkpt>
      <trkpt lat="47.69635" lon="-3.35429">
        <ele>9.19</ele>
        <time>2022-06-14T11:01:47Z</time>
      </trkpt>
      <trkpt lat="47.69625" lon="-3.35442">
        <ele>9.2</ele>
        <time>2022-06-14T11:02:00Z</time>
      </trkpt>
      <trkpt lat="47.69617" lon="-3.35455">
        <ele>8.5</ele>
        <time>2022-06-14T11:02:11Z</time>
      </trkpt>
      <trkpt lat="47.69596" lon="-3.3547">
        <ele>7.54</ele>
        <time>2022-06-14T11:02:31Z</time>
      </trkpt>
      <trkpt lat="47.69587" lon="-3.35473">
        <ele>7.18</ele>
        <time>2022-06-14T11:02:44Z</time>
      </trkpt>
      <trkpt lat="47.69584" lon="-3.35475">
        <ele>7.24</ele>
        <time>2022-06-14T11:02:48Z</time>
      </trkpt>
      <trkpt lat="47.6958" lon="-3.35476">
        <ele>7.27</ele>
        <time>2022-06-14T11:02:52Z</time>
      </trkpt>
      <trkpt lat="47.69555" lon="-3.35484">
        <ele>7.24</ele>
        <time>2022-06-14T11:03:12Z</time>
      </trkpt>
      <trkpt lat="47.69534" lon="-3.35491">
        <ele>7.26</ele>
        <time>2022-06-14T11:03:30Z</time>
      </trkpt>
      <trkpt lat="47.69512" lon="-3.355">
        <ele>7.17</ele>
        <time>2022-06-14T11:03:49Z</time>
      </trkpt>
      <trkpt lat="47.69493" lon="-3.35511">
        <ele>7.09</ele>
        <time>2022-06-14T11:04:06Z</time>
      </trkpt>
      <trkpt lat="47.69479" lon="-3.3552">
        <ele>7.22</ele>
        <time>2022-06-14T11:04:23Z</time>
      </trkpt>
      <trkpt lat="47.69474" lon="-3.35523">
        <ele>7.29</ele>
        <time>2022-06-14T11:04:27Z</time>
      </trkpt>
      <trkpt lat="47.69455" lon="-3.35536">
        <ele>7.39</ele>
        <time>2022-06-14T11:04:45Z</time>
      </trkpt>
      <trkpt lat="47.69434" lon="-3.35555">
        <ele>7.64</ele>
        <time>2022-06-14T11:05:05Z</time>
      </trkpt>
      <trkpt lat="47.69415" lon="-3.35576">
        <ele>7.77</ele>
        <time>2022-06-14T11:05:25Z</time>
      </trkpt>
      <trkpt lat="47.69404" lon="-3.35594">
        <ele>7.94</ele>
        <time>2022-06-14T11:05:39Z</time>
      </trkpt>
      <trkpt lat="47.69392" lon="-3.35622">
        <ele>7.91</ele>
        <time>2022-06-14T11:05:56Z</time>
      </trkpt>
      <trkpt lat="47.69378" lon="-3.3565">
        <ele>8.17</ele>
        <time>2022-06-14T11:06:15Z</time>
      </trkpt>
      <trkpt lat="47.69372" lon="-3.35662">
        <ele>8.59</ele>
        <time>2022-06-14T11:06:28Z</time>
      </trkpt>
      <trkpt lat="47.69374" lon="-3.35676">
        <ele>9.43</ele>
        <time>2022-06-14T11:06:43Z</time>
      </trkpt>
      <trkpt lat="47.69378" lon="-3.35684">
        <ele>10.15</ele>
        <time>2022-06-14T11:06:56Z</time>
      </trkpt>
      <trkpt lat="47.69382" lon="-3.35689">
        <ele>11.74</ele>
        <time>2022-06-14T11:07:09Z</time>
      </trkpt>
      <trkpt lat="47.69382" lon="-3.35689">
        <ele>12.35</ele>
        <time>2022-06-14T11:07:30Z</time>
      </trkpt>
      <trkpt lat="47.69381" lon="-3.35691">
        <ele>12.55</ele>
        <time>2022-06-14T11:07:52Z</time>
      </trkpt>
      <trkpt lat="47.69384" lon="-3.35698">
        <ele>12.53</ele>
        <time>2022-06-14T11:08:05Z</time>
      </trkpt>
      <trkpt lat="47.69385" lon="-3.35706">
        <ele>12.54</ele>
        <time>2022-06-14T11:08:11Z</time>
      </trkpt>
      <trkpt lat="47.69388" lon="-3.35728">
        <ele>12.47</ele>
        <time>2022-06-14T11:08:28Z</time>
      </trkpt>
      <trkpt lat="47.69388" lon="-3.35729">
        <ele>12.39</ele>
        <time>2022-06-14T11:08:29Z</time>
      </trkpt>
      <trkpt lat="47.69386" lon="-3.35735">
        <ele>11.9</ele>
        <time>2022-06-14T11:08:42Z</time>
      </trkpt>
      <trkpt lat="47.69383" lon="-3.35742">
        <ele>11.72</ele>
        <time>2022-06-14T11:08:55Z</time>
      </trkpt>
      <trkpt lat="47.69379" lon="-3.3576">
        <ele>11.84</ele>
        <time>2022-06-14T11:09:09Z</time>
      </trkpt>
      <trkpt lat="47.69378" lon="-3.35761">
        <ele>11.84</ele>
        <time>2022-06-14T11:09:10Z</time>
      </trkpt>
      <trkpt lat="47.69377" lon="-3.35762">
        <ele>11.83</ele>
        <time>2022-06-14T11:09:11Z</time>
      </trkpt>
      <trkpt lat="47.69376" lon="-3.35763">
        <ele>11.81</ele>
        <time>2022-06-14T11:09:12Z</time>
      </trkpt>
      <trkpt lat="47.69375" lon="-3.35763">
        <ele>11.79</ele>
        <time>2022-06-14T11:09:13Z</time>
      </trkpt>
      <trkpt lat="47.6936" lon="-3.3577">
        <ele>11.68</ele>
        <time>2022-06-14T11:09:29Z</time>
      </trkpt>
      <trkpt lat="47.69353" lon="-3.35769">
        <ele>11.77</ele>
        <time>2022-06-14T11:09:44Z</time>
      </trkpt>
      <trkpt lat="47.6934" lon="-3.3576">
        <ele>11.73</ele>
        <time>2022-06-14T11:10:01Z</time>
      </trkpt>
      <trkpt lat="47.69327" lon="-3.35753">
        <ele>11.86</ele>
        <time>2022-06-14T11:10:18Z</time>
      </trkpt>
      <trkpt lat="47.69316" lon="-3.3575">
        <ele>12.1</ele>
        <time>2022-06-14T11:10:32Z</time>
      </trkpt>
      <trkpt lat="47.69303" lon="-3.3575">
        <ele>12.26</ele>
        <time>2022-06-14T11:10:47Z</time>
      </trkpt>
      <trkpt lat="47.693" lon="-3.35751">
        <ele>12.45</ele>
        <time>2022-06-14T11:11:00Z</time>
      </trkpt>
      <trkpt lat="47.693" lon="-3.35751">
        <ele>12.56</ele>
        <time>2022-06-14T11:11:20Z</time>
      </trkpt>
      <trkpt lat="47.69298" lon="-3.35753">
        <ele>12.82</ele>
        <time>2022-06-14T11:11:24Z</time>
      </trkpt>
      <trkpt lat="47.69291" lon="-3.35757">
        <ele>13.07</ele>
        <time>2022-06-14T11:11:32Z</time>
      </trkpt>
      <trkpt lat="47.69284" lon="-3.35766">
        <ele>13.58</ele>
        <time>2022-06-14T11:11:43Z</time>
      </trkpt>
      <trkpt lat="47.69283" lon="-3.35767">
        <ele>13.58</ele>
        <time>2022-06-14T11:11:44Z</time>
      </trkpt>
      <trkpt lat="47.69282" lon="-3.35767">
        <ele>13.58</ele>
        <time>2022-06-14T11:11:45Z</time>
      </trkpt>
      <trkpt lat="47.69276" lon="-3.35772">
        <ele>12.92</ele>
        <time>2022-06-14T11:11:52Z</time>
      </trkpt>
      <trkpt lat="47.69275" lon="-3.35773">
        <ele>12.84</ele>
        <time>2022-06-14T11:11:53Z</time>
      </trkpt>
      <trkpt lat="47.69274" lon="-3.35773">
        <ele>12.78</ele>
        <time>2022-06-14T11:11:54Z</time>
      </trkpt>
      <trkpt lat="47.69255" lon="-3.3578">
        <ele>12.85</ele>
        <time>2022-06-14T11:12:12Z</time>
      </trkpt>
      <trkpt lat="47.69241" lon="-3.35793">
        <ele>13.83</ele>
        <time>2022-06-14T11:12:30Z</time>
      </trkpt>
      <trkpt lat="47.69232" lon="-3.35799">
        <ele>15.34</ele>
        <time>2022-06-14T11:12:41Z</time>
      </trkpt>
      <trkpt lat="47.6923" lon="-3.35805">
        <ele>15.57</ele>
        <time>2022-06-14T11:12:54Z</time>
      </trkpt>
      <trkpt lat="47.69226" lon="-3.35814">
        <ele>15.22</ele>
        <time>2022-06-14T11:13:05Z</time>
      </trkpt>
      <trkpt lat="47.69225" lon="-3.35814">
        <ele>15.11</ele>
        <time>2022-06-14T11:13:06Z</time>
      </trkpt>
      <trkpt lat="47.6922" lon="-3.35817">
        <ele>14.39</ele>
        <time>2022-06-14T11:13:11Z</time>
      </trkpt>
      <trkpt lat="47.69202" lon="-3.35822">
        <ele>12.89</ele>
        <time>2022-06-14T11:13:28Z</time>
      </trkpt>
      <trkpt lat="47.69191" lon="-3.35825">
        <ele>12.99</ele>
        <time>2022-06-14T11:13:41Z</time>
      </trkpt>
      <trkpt lat="47.6919" lon="-3.35825">
        <ele>12.99</ele>
        <time>2022-06-14T11:13:42Z</time>
      </trkpt>
      <trkpt lat="47.69189" lon="-3.35825">
        <ele>12.99</ele>
        <time>2022-06-14T11:13:43Z</time>
      </trkpt>
      <trkpt lat="47.69176" lon="-3.35829">
        <ele>12.95</ele>
        <time>2022-06-14T11:13:55Z</time>
      </trkpt>
      <trkpt lat="47.69161" lon="-3.35833">
        <ele>12.96</ele>
        <time>2022-06-14T11:14:09Z</time>
      </trkpt>
      <trkpt lat="47.69142" lon="-3.35838">
        <ele>13.07</ele>
        <time>2022-06-14T11:14:27Z</time>
      </trkpt>
      <trkpt lat="47.69142" lon="-3.35827">
        <ele>12.95</ele>
        <time>2022-06-14T11:14:36Z</time>
      </trkpt>
      <trkpt lat="47.69142" lon="-3.35823">
        <ele>12.76</ele>
        <time>2022-06-14T11:14:39Z</time>
      </trkpt>
      <trkpt lat="47.69142" lon="-3.3582">
        <ele>12.14</ele>
        <time>2022-06-14T11:14:46Z</time>
      </trkpt>
      <trkpt lat="47.69139" lon="-3.35822">
        <ele>12.12</ele>
        <time>2022-06-14T11:14:50Z</time>
      </trkpt>
      <trkpt lat="47.69138" lon="-3.35823">
        <ele>12.12</ele>
        <time>2022-06-14T11:14:51Z</time>
      </trkpt>
      <trkpt lat="47.69137" lon="-3.35825">
        <ele>12.11</ele>
        <time>2022-06-14T11:14:52Z</time>
      </trkpt>
      <trkpt lat="47.69129" lon="-3.35846">
        <ele>13.36</ele>
        <time>2022-06-14T11:15:08Z</time>
      </trkpt>
      <trkpt lat="47.69127" lon="-3.35847">
        <ele>13.45</ele>
        <time>2022-06-14T11:15:12Z</time>
      </trkpt>
      <trkpt lat="47.69124" lon="-3.35847">
        <ele>13.46</ele>
        <time>2022-06-14T11:15:14Z</time>
      </trkpt>
      <trkpt lat="47.69123" lon="-3.35848">
        <ele>13.46</ele>
        <time>2022-06-14T11:15:15Z</time>
      </trkpt>
      <trkpt lat="47.69105" lon="-3.35858">
        <ele>13.55</ele>
        <time>2022-06-14T11:15:30Z</time>
      </trkpt>
      <trkpt lat="47.69092" lon="-3.35874">
        <ele>13.72</ele>
        <time>2022-06-14T11:15:45Z</time>
      </trkpt>
      <trkpt lat="47.69085" lon="-3.35885">
        <ele>13.58</ele>
        <time>2022-06-14T11:15:57Z</time>
      </trkpt>
      <trkpt lat="47.6908" lon="-3.35882">
        <ele>13.71</ele>
        <time>2022-06-14T11:16:04Z</time>
      </trkpt>
      <trkpt lat="47.69079" lon="-3.35882">
        <ele>13.67</ele>
        <time>2022-06-14T11:16:05Z</time>
      </trkpt>
      <trkpt lat="47.69078" lon="-3.35882">
        <ele>13.58</ele>
        <time>2022-06-14T11:16:06Z</time>
      </trkpt>
      <trkpt lat="47.69076" lon="-3.35882">
        <ele>13.43</ele>
        <time>2022-06-14T11:16:07Z</time>
      </trkpt>
      <trkpt lat="47.69075" lon="-3.35882">
        <ele>13.24</ele>
        <time>2022-06-14T11:16:08Z</time>
      </trkpt>
      <trkpt lat="47.69074" lon="-3.35883">
        <ele>13.03</ele>
        <time>2022-06-14T11:16:09Z</time>
      </trkpt>
      <trkpt lat="47.69073" lon="-3.35884">
        <ele>12.86</ele>
        <time>2022-06-14T11:16:10Z</time>
      </trkpt>
      <trkpt lat="47.69072" lon="-3.35885">
        <ele>12.75</ele>
        <time>2022-06-14T11:16:11Z</time>
      </trkpt>
      <trkpt lat="47.69072" lon="-3.35887">
        <ele>12.68</ele>
        <time>2022-06-14T11:16:12Z</time>
      </trkpt>
      <trkpt lat="47.69071" lon="-3.35889">
        <ele>12.64</ele>
        <time>2022-06-14T11:16:13Z</time>
      </trkpt>
      <trkpt lat="47.69071" lon="-3.35891">
        <ele>12.6</ele>
        <time>2022-06-14T11:16:14Z</time>
      </trkpt>
      <trkpt lat="47.69071" lon="-3.35892">
        <ele>12.56</ele>
        <time>2022-06-14T11:16:15Z</time>
      </trkpt>
      <trkpt lat="47.69071" lon="-3.35894">
        <ele>12.53</ele>
        <time>2022-06-14T11:16:16Z</time>
      </trkpt>
      <trkpt lat="47.69071" lon="-3.35896">
        <ele>12.5</ele>
        <time>2022-06-14T11:16:17Z</time>
      </trkpt>
      <trkpt lat="47.6907" lon="-3.35898">
        <ele>12.49</ele>
        <time>2022-06-14T11:16:18Z</time>
      </trkpt>
      <trkpt lat="47.6907" lon="-3.35899">
        <ele>12.47</ele>
        <time>2022-06-14T11:16:19Z</time>
      </trkpt>
      <trkpt lat="47.6907" lon="-3.35901">
        <ele>12.47</ele>
        <time>2022-06-14T11:16:20Z</time>
      </trkpt>
      <trkpt lat="47.6907" lon="-3.35903">
        <ele>12.47</ele>
        <time>2022-06-14T11:16:21Z</time>
      </trkpt>
      <trkpt lat="47.69063" lon="-3.35925">
        <ele>12.6</ele>
        <time>2022-06-14T11:16:37Z</time>
      </trkpt>
      <trkpt lat="47.69051" lon="-3.35943">
        <ele>12.54</ele>
        <time>2022-06-14T11:16:53Z</time>
      </trkpt>
      <trkpt lat="47.69047" lon="-3.35947">
        <ele>12.54</ele>
        <time>2022-06-14T11:16:58Z</time>
      </trkpt>
      <trkpt lat="47.69046" lon="-3.35948">
        <ele>12.54</ele>
        <time>2022-06-14T11:16:59Z</time>
      </trkpt>
      <trkpt lat="47.69045" lon="-3.3595">
        <ele>12.54</ele>
        <time>2022-06-14T11:17:00Z</time>
      </trkpt>
      <trkpt lat="47.69044" lon="-3.35951">
        <ele>12.55</ele>
        <time>2022-06-14T11:17:01Z</time>
      </trkpt>
      <trkpt lat="47.69043" lon="-3.35952">
        <ele>12.58</ele>
        <time>2022-06-14T11:17:02Z</time>
      </trkpt>
      <trkpt lat="47.69042" lon="-3.35953">
        <ele>12.63</ele>
        <time>2022-06-14T11:17:03Z</time>
      </trkpt>
      <trkpt lat="47.69041" lon="-3.35954">
        <ele>12.69</ele>
        <time>2022-06-14T11:17:04Z</time>
      </trkpt>
      <trkpt lat="47.69039" lon="-3.35957">
        <ele>12.84</ele>
        <time>2022-06-14T11:17:15Z</time>
      </trkpt>
      <trkpt lat="47.69038" lon="-3.35961">
        <ele>12.84</ele>
        <time>2022-06-14T11:17:24Z</time>
      </trkpt>
      <trkpt lat="47.69037" lon="-3.35962">
        <ele>12.84</ele>
        <time>2022-06-14T11:17:25Z</time>
      </trkpt>
      <trkpt lat="47.69037" lon="-3.35963">
        <ele>12.84</ele>
        <time>2022-06-14T11:17:26Z</time>
      </trkpt>
      <trkpt lat="47.69036" lon="-3.35965">
        <ele>12.84</ele>
        <time>2022-06-14T11:17:27Z</time>
      </trkpt>
      <trkpt lat="47.69035" lon="-3.35966">
        <ele>12.84</ele>
        <time>2022-06-14T11:17:28Z</time>
      </trkpt>
      <trkpt lat="47.69027" lon="-3.35987">
        <ele>12.83</ele>
        <time>2022-06-14T11:17:42Z</time>
      </trkpt>
      <trkpt lat="47.69019" lon="-3.36002">
        <ele>12.89</ele>
        <time>2022-06-14T11:17:55Z</time>
      </trkpt>
      <trkpt lat="47.69016" lon="-3.36003">
        <ele>13.11</ele>
        <time>2022-06-14T11:18:06Z</time>
      </trkpt>
      <trkpt lat="47.69018" lon="-3.36005">
        <ele>12.98</ele>
        <time>2022-06-14T11:18:33Z</time>
      </trkpt>
      <trkpt lat="47.69018" lon="-3.36007">
        <ele>13.29</ele>
        <time>2022-06-14T11:18:57Z</time>
      </trkpt>
      <trkpt lat="47.69018" lon="-3.36012">
        <ele>13.23</ele>
        <time>2022-06-14T11:19:08Z</time>
      </trkpt>
      <trkpt lat="47.69021" lon="-3.36025">
        <ele>13.17</ele>
        <time>2022-06-14T11:19:21Z</time>
      </trkpt>
      <trkpt lat="47.69021" lon="-3.36029">
        <ele>13.12</ele>
        <time>2022-06-14T11:19:24Z</time>
      </trkpt>
      <trkpt lat="47.69021" lon="-3.36031">
        <ele>13.11</ele>
        <time>2022-06-14T11:19:25Z</time>
      </trkpt>
      <trkpt lat="47.69022" lon="-3.36043">
        <ele>13.19</ele>
        <time>2022-06-14T11:19:34Z</time>
      </trkpt>
      <trkpt lat="47.69022" lon="-3.36045">
        <ele>13.2</ele>
        <time>2022-06-14T11:19:35Z</time>
      </trkpt>
      <trkpt lat="47.6902" lon="-3.36052">
        <ele>13.29</ele>
        <time>2022-06-14T11:19:48Z</time>
      </trkpt>
      <trkpt lat="47.69022" lon="-3.36057">
        <ele>13.38</ele>
        <time>2022-06-14T11:19:58Z</time>
      </trkpt>
      <trkpt lat="47.69022" lon="-3.3606">
        <ele>13.43</ele>
        <time>2022-06-14T11:20:00Z</time>
      </trkpt>
      <trkpt lat="47.69022" lon="-3.36062">
        <ele>13.44</ele>
        <time>2022-06-14T11:20:01Z</time>
      </trkpt>
      <trkpt lat="47.69023" lon="-3.36064">
        <ele>13.45</ele>
        <time>2022-06-14T11:20:02Z</time>
      </trkpt>
      <trkpt lat="47.69023" lon="-3.36066">
        <ele>13.47</ele>
        <time>2022-06-14T11:20:03Z</time>
      </trkpt>
      <trkpt lat="47.69028" lon="-3.36083">
        <ele>13.81</ele>
        <time>2022-06-14T11:20:13Z</time>
      </trkpt>
      <trkpt lat="47.69027" lon="-3.36091">
        <ele>13.8</ele>
        <time>2022-06-14T11:20:24Z</time>
      </trkpt>
      <trkpt lat="47.6903" lon="-3.36089">
        <ele>13.85</ele>
        <time>2022-06-14T11:20:36Z</time>
      </trkpt>
      <trkpt lat="47.69031" lon="-3.36091">
        <ele>14.25</ele>
        <time>2022-06-14T11:20:58Z</time>
      </trkpt>
      <trkpt lat="47.69027" lon="-3.36091">
        <ele>14.51</ele>
        <time>2022-06-14T11:21:18Z</time>
      </trkpt>
      <trkpt lat="47.69023" lon="-3.36097">
        <ele>15.61</ele>
        <time>2022-06-14T11:21:31Z</time>
      </trkpt>
      <trkpt lat="47.69023" lon="-3.36097">
        <ele>16.13</ele>
        <time>2022-06-14T11:21:52Z</time>
      </trkpt>
      <trkpt lat="47.69018" lon="-3.36093">
        <ele>15.95</ele>
        <time>2022-06-14T11:22:06Z</time>
      </trkpt>
      <trkpt lat="47.6901" lon="-3.36089">
        <ele>15.66</ele>
        <time>2022-06-14T11:22:18Z</time>
      </trkpt>
      <trkpt lat="47.6901" lon="-3.36088">
        <ele>15.72</ele>
        <time>2022-06-14T11:22:19Z</time>
      </trkpt>
      <trkpt lat="47.69009" lon="-3.36088">
        <ele>15.75</ele>
        <time>2022-06-14T11:22:20Z</time>
      </trkpt>
      <trkpt lat="47.68995" lon="-3.36074">
        <ele>16.03</ele>
        <time>2022-06-14T11:22:36Z</time>
      </trkpt>
      <trkpt lat="47.6899" lon="-3.36064">
        <ele>15.95</ele>
        <time>2022-06-14T11:22:48Z</time>
      </trkpt>
      <trkpt lat="47.68987" lon="-3.36063">
        <ele>15.66</ele>
        <time>2022-06-14T11:22:51Z</time>
      </trkpt>
      <trkpt lat="47.68983" lon="-3.36061">
        <ele>15.35</ele>
        <time>2022-06-14T11:22:56Z</time>
      </trkpt>
      <trkpt lat="47.68969" lon="-3.36048">
        <ele>15.35</ele>
        <time>2022-06-14T11:23:11Z</time>
      </trkpt>
      <trkpt lat="47.68955" lon="-3.36035">
        <ele>15.06</ele>
        <time>2022-06-14T11:23:25Z</time>
      </trkpt>
      <trkpt lat="47.68948" lon="-3.36027">
        <ele>15.11</ele>
        <time>2022-06-14T11:23:37Z</time>
      </trkpt>
      <trkpt lat="47.68947" lon="-3.36026">
        <ele>15.13</ele>
        <time>2022-06-14T11:23:38Z</time>
      </trkpt>
      <trkpt lat="47.68946" lon="-3.36025">
        <ele>15.14</ele>
        <time>2022-06-14T11:23:39Z</time>
      </trkpt>
      <trkpt lat="47.68945" lon="-3.36024">
        <ele>15.15</ele>
        <time>2022-06-14T11:23:40Z</time>
      </trkpt>
      <trkpt lat="47.68944" lon="-3.36023">
        <ele>15.15</ele>
        <time>2022-06-14T11:23:41Z</time>
      </trkpt>
      <trkpt lat="47.68943" lon="-3.36022">
        <ele>15.15</ele>
        <time>2022-06-14T11:23:42Z</time>
      </trkpt>
      <trkpt lat="47.68936" lon="-3.36013">
        <ele>15.19</ele>
        <time>2022-06-14T11:23:52Z</time>
      </trkpt>
      <trkpt lat="47.68935" lon="-3.36012">
        <ele>15.19</ele>
        <time>2022-06-14T11:23:53Z</time>
      </trkpt>
      <trkpt lat="47.68935" lon="-3.36011">
        <ele>15.19</ele>
        <time>2022-06-14T11:23:54Z</time>
      </trkpt>
      <trkpt lat="47.68917" lon="-3.35992">
        <ele>15.09</ele>
        <time>2022-06-14T11:24:13Z</time>
      </trkpt>
      <trkpt lat="47.68908" lon="-3.35984">
        <ele>15.42</ele>
        <time>2022-06-14T11:24:25Z</time>
      </trkpt>
      <trkpt lat="47.68907" lon="-3.35983">
        <ele>15.49</ele>
        <time>2022-06-14T11:24:26Z</time>
      </trkpt>
      <trkpt lat="47.68906" lon="-3.35982">
        <ele>15.58</ele>
        <time>2022-06-14T11:24:27Z</time>
      </trkpt>
      <trkpt lat="47.68898" lon="-3.35971">
        <ele>16.34</ele>
        <time>2022-06-14T11:24:40Z</time>
      </trkpt>
      <trkpt lat="47.68894" lon="-3.35967">
        <ele>16.66</ele>
        <time>2022-06-14T11:24:54Z</time>
      </trkpt>
      <trkpt lat="47.6889" lon="-3.35964">
        <ele>16.92</ele>
        <time>2022-06-14T11:25:11Z</time>
      </trkpt>
      <trkpt lat="47.68882" lon="-3.35961">
        <ele>17.05</ele>
        <time>2022-06-14T11:25:20Z</time>
      </trkpt>
      <trkpt lat="47.68874" lon="-3.35957">
        <ele>17.47</ele>
        <time>2022-06-14T11:25:32Z</time>
      </trkpt>
      <trkpt lat="47.68871" lon="-3.35956">
        <ele>17.51</ele>
        <time>2022-06-14T11:25:35Z</time>
      </trkpt>
      <trkpt lat="47.6887" lon="-3.35955">
        <ele>17.52</ele>
        <time>2022-06-14T11:25:36Z</time>
      </trkpt>
      <trkpt lat="47.68869" lon="-3.35955">
        <ele>17.52</ele>
        <time>2022-06-14T11:25:37Z</time>
      </trkpt>
      <trkpt lat="47.68868" lon="-3.35954">
        <ele>17.53</ele>
        <time>2022-06-14T11:25:38Z</time>
      </trkpt>
      <trkpt lat="47.68867" lon="-3.35953">
        <ele>17.55</ele>
        <time>2022-06-14T11:25:39Z</time>
      </trkpt>
      <trkpt lat="47.68863" lon="-3.35952">
        <ele>18.21</ele>
        <time>2022-06-14T11:25:50Z</time>
      </trkpt>
      <trkpt lat="47.68862" lon="-3.35951">
        <ele>18.24</ele>
        <time>2022-06-14T11:25:51Z</time>
      </trkpt>
      <trkpt lat="47.68859" lon="-3.35949">
        <ele>18.2</ele>
        <time>2022-06-14T11:25:54Z</time>
      </trkpt>
      <trkpt lat="47.68858" lon="-3.35948">
        <ele>18.12</ele>
        <time>2022-06-14T11:25:55Z</time>
      </trkpt>
      <trkpt lat="47.68857" lon="-3.35947">
        <ele>18.05</ele>
        <time>2022-06-14T11:25:56Z</time>
      </trkpt>
      <trkpt lat="47.68856" lon="-3.35946">
        <ele>18.01</ele>
        <time>2022-06-14T11:25:57Z</time>
      </trkpt>
      <trkpt lat="47.68855" lon="-3.35946">
        <ele>17.99</ele>
        <time>2022-06-14T11:25:58Z</time>
      </trkpt>
      <trkpt lat="47.68839" lon="-3.35933">
        <ele>18.1</ele>
        <time>2022-06-14T11:26:15Z</time>
      </trkpt>
      <trkpt lat="47.68826" lon="-3.35923">
        <ele>16.91</ele>
        <time>2022-06-14T11:26:31Z</time>
      </trkpt>
      <trkpt lat="47.68811" lon="-3.35917">
        <ele>15.86</ele>
        <time>2022-06-14T11:26:45Z</time>
      </trkpt>
      <trkpt lat="47.688" lon="-3.35916">
        <ele>15.6</ele>
        <time>2022-06-14T11:26:58Z</time>
      </trkpt>
      <trkpt lat="47.68798" lon="-3.35915">
        <ele>15.62</ele>
        <time>2022-06-14T11:27:00Z</time>
      </trkpt>
      <trkpt lat="47.68789" lon="-3.35913">
        <ele>15.66</ele>
        <time>2022-06-14T11:27:12Z</time>
      </trkpt>
      <trkpt lat="47.68788" lon="-3.35912">
        <ele>15.79</ele>
        <time>2022-06-14T11:27:27Z</time>
      </trkpt>
      <trkpt lat="47.68787" lon="-3.35912">
        <ele>15.79</ele>
        <time>2022-06-14T11:27:28Z</time>
      </trkpt>
      <trkpt lat="47.68785" lon="-3.35911">
        <ele>15.79</ele>
        <time>2022-06-14T11:27:30Z</time>
      </trkpt>
      <trkpt lat="47.68763" lon="-3.35908">
        <ele>15.64</ele>
        <time>2022-06-14T11:27:48Z</time>
      </trkpt>
      <trkpt lat="47.68746" lon="-3.35909">
        <ele>15.5</ele>
        <time>2022-06-14T11:28:03Z</time>
      </trkpt>
      <trkpt lat="47.68724" lon="-3.35914">
        <ele>15.44</ele>
        <time>2022-06-14T11:28:23Z</time>
      </trkpt>
      <trkpt lat="47.68701" lon="-3.35925">
        <ele>15.38</ele>
        <time>2022-06-14T11:28:43Z</time>
      </trkpt>
      <trkpt lat="47.68695" lon="-3.35931">
        <ele>15.19</ele>
        <time>2022-06-14T11:28:55Z</time>
      </trkpt>
      <trkpt lat="47.68694" lon="-3.35935">
        <ele>15.19</ele>
        <time>2022-06-14T11:28:59Z</time>
      </trkpt>
      <trkpt lat="47.68693" lon="-3.35937">
        <ele>15.19</ele>
        <time>2022-06-14T11:29:00Z</time>
      </trkpt>
      <trkpt lat="47.68692" lon="-3.35938">
        <ele>15.19</ele>
        <time>2022-06-14T11:29:01Z</time>
      </trkpt>
      <trkpt lat="47.68687" lon="-3.35949">
        <ele>15.03</ele>
        <time>2022-06-14T11:29:13Z</time>
      </trkpt>
      <trkpt lat="47.68687" lon="-3.3595">
        <ele>15.01</ele>
        <time>2022-06-14T11:29:14Z</time>
      </trkpt>
      <trkpt lat="47.68686" lon="-3.35952">
        <ele>14.99</ele>
        <time>2022-06-14T11:29:15Z</time>
      </trkpt>
      <trkpt lat="47.68685" lon="-3.35953">
        <ele>14.96</ele>
        <time>2022-06-14T11:29:16Z</time>
      </trkpt>
      <trkpt lat="47.68685" lon="-3.35954">
        <ele>14.93</ele>
        <time>2022-06-14T11:29:17Z</time>
      </trkpt>
      <trkpt lat="47.68684" lon="-3.35956">
        <ele>14.91</ele>
        <time>2022-06-14T11:29:18Z</time>
      </trkpt>
      <trkpt lat="47.68673" lon="-3.35977">
        <ele>14.86</ele>
        <time>2022-06-14T11:29:34Z</time>
      </trkpt>
      <trkpt lat="47.68661" lon="-3.36001">
        <ele>13.88</ele>
        <time>2022-06-14T11:29:52Z</time>
      </trkpt>
      <trkpt lat="47.68641" lon="-3.3602">
        <ele>13.77</ele>
        <time>2022-06-14T11:30:12Z</time>
      </trkpt>
      <trkpt lat="47.68621" lon="-3.36029">
        <ele>13.87</ele>
        <time>2022-06-14T11:30:30Z</time>
      </trkpt>
      <trkpt lat="47.68618" lon="-3.3603">
        <ele>14.21</ele>
        <time>2022-06-14T11:30:44Z</time>
      </trkpt>
      <trkpt lat="47.68619" lon="-3.36031">
        <ele>14.3</ele>
        <time>2022-06-14T11:31:05Z</time>
      </trkpt>
      <trkpt lat="47.68617" lon="-3.36033">
        <ele>14.4</ele>
        <time>2022-06-14T11:31:15Z</time>
      </trkpt>
      <trkpt lat="47.6862" lon="-3.3603">
        <ele>14.48</ele>
        <time>2022-06-14T11:31:27Z</time>
      </trkpt>
      <trkpt lat="47.68619" lon="-3.3603">
        <ele>14.66</ele>
        <time>2022-06-14T11:31:44Z</time>
      </trkpt>
      <trkpt lat="47.68619" lon="-3.3603">
        <ele>14.66</ele>
        <time>2022-06-14T11:32:13Z</time>
      </trkpt>
      <trkpt lat="47.68618" lon="-3.36029">
        <ele>14.66</ele>
        <time>2022-06-14T11:32:15Z</time>
      </trkpt>
      <trkpt lat="47.68613" lon="-3.36016">
        <ele>14.31</ele>
        <time>2022-06-14T11:32:26Z</time>
      </trkpt>
      <trkpt lat="47.68615" lon="-3.35995">
        <ele>14.39</ele>
        <time>2022-06-14T11:32:39Z</time>
      </trkpt>
      <trkpt lat="47.68619" lon="-3.35968">
        <ele>14.72</ele>
        <time>2022-06-14T11:32:55Z</time>
      </trkpt>
      <trkpt lat="47.68624" lon="-3.3595">
        <ele>15.13</ele>
        <time>2022-06-14T11:33:08Z</time>
      </trkpt>
      <trkpt lat="47.68629" lon="-3.35839">
        <ele>4.9</ele>
      </trkpt>
      <trkpt lat="47.68606" lon="-3.3579">
        <ele>4.9</ele>
      </trkpt>
      <trkpt lat="47.68607" lon="-3.35744">
        <ele>5</ele>
      </trkpt>
      <trkpt lat="47.6865" lon="-3.35712">
        <ele>4.9</ele>
      </trkpt>
      <trkpt lat="47.68674" lon="-3.35677">
        <ele>4.3</ele>
      </trkpt>
      <trkpt lat="47.68685" lon="-3.35632">
        <ele>3.6</ele>
      </trkpt>
      <trkpt lat="47.68727" lon="-3.35639">
        <ele>3.4</ele>
      </trkpt>
      <trkpt lat="47.68756" lon="-3.35647">
        <ele>5.3</ele>
      </trkpt>
      <trkpt lat="47.6879" lon="-3.35603">
        <ele>3.9</ele>
      </trkpt>
      <trkpt lat="47.68815" lon="-3.35523">
        <ele>3.5</ele>
      </trkpt>
      <trkpt lat="47.68844" lon="-3.35496">
        <ele>4.2</ele>
      </trkpt>
      <trkpt lat="47.68899" lon="-3.3543">
        <ele>6.2</ele>
      </trkpt>
      <trkpt lat="47.68917" lon="-3.35362">
        <ele>5.1</ele>
      </trkpt>
      <trkpt lat="47.68951" lon="-3.35342">
        <ele>3.4</ele>
      </trkpt>
      <trkpt lat="47.69005" lon="-3.35323">
        <ele>5.5</ele>
      </trkpt>
      <trkpt lat="47.6906" lon="-3.35356">
        <ele>6.8</ele>
      </trkpt>
      <trkpt lat="47.69055" lon="-3.35322">
        <ele>4.5</ele>
      </trkpt>
      <trkpt lat="47.69088" lon="-3.35325">
        <ele>16.89</ele>
        <time>2022-06-14T11:49:26Z</time>
      </trkpt>
      <trkpt lat="47.69092" lon="-3.35324">
        <ele>16.89</ele>
        <time>2022-06-14T11:49:52Z</time>
      </trkpt>
      <trkpt lat="47.69095" lon="-3.35324">
        <ele>16.89</ele>
        <time>2022-06-14T11:49:54Z</time>
      </trkpt>
      <trkpt lat="47.69106" lon="-3.35324">
        <ele>14.49</ele>
        <time>2022-06-14T11:50:09Z</time>
      </trkpt>
      <trkpt lat="47.6911" lon="-3.35324">
        <ele>13.95</ele>
        <time>2022-06-14T11:50:23Z</time>
      </trkpt>
      <trkpt lat="47.69113" lon="-3.35342">
        <ele>13.94</ele>
        <time>2022-06-14T11:50:37Z</time>
      </trkpt>
      <trkpt lat="47.69113" lon="-3.35343">
        <ele>13.94</ele>
        <time>2022-06-14T11:50:38Z</time>
      </trkpt>
      <trkpt lat="47.69114" lon="-3.35347">
        <ele>13.94</ele>
        <time>2022-06-14T11:50:40Z</time>
      </trkpt>
      <trkpt lat="47.69116" lon="-3.35358">
        <ele>14.1</ele>
        <time>2022-06-14T11:50:47Z</time>
      </trkpt>
      <trkpt lat="47.69118" lon="-3.35366">
        <ele>14.35</ele>
        <time>2022-06-14T11:50:53Z</time>
      </trkpt>
      <trkpt lat="47.6912" lon="-3.35374">
        <ele>14.73</ele>
        <time>2022-06-14T11:51:00Z</time>
      </trkpt>
      <trkpt lat="47.69121" lon="-3.35376">
        <ele>14.77</ele>
        <time>2022-06-14T11:51:01Z</time>
      </trkpt>
      <trkpt lat="47.69131" lon="-3.35388">
        <ele>15.3</ele>
        <time>2022-06-14T11:51:12Z</time>
      </trkpt>
      <trkpt lat="47.69134" lon="-3.35391">
        <ele>15.32</ele>
        <time>2022-06-14T11:51:22Z</time>
      </trkpt>
      <trkpt lat="47.69136" lon="-3.35391">
        <ele>15.29</ele>
        <time>2022-06-14T11:51:23Z</time>
      </trkpt>
      <trkpt lat="47.69137" lon="-3.35391">
        <ele>15.27</ele>
        <time>2022-06-14T11:51:24Z</time>
      </trkpt>
      <trkpt lat="47.69146" lon="-3.35398">
        <ele>15.89</ele>
        <time>2022-06-14T11:51:36Z</time>
      </trkpt>
      <trkpt lat="47.69158" lon="-3.35401">
        <ele>15.81</ele>
        <time>2022-06-14T11:51:48Z</time>
      </trkpt>
      <trkpt lat="47.69166" lon="-3.35398">
        <ele>15.43</ele>
        <time>2022-06-14T11:51:55Z</time>
      </trkpt>
      <trkpt lat="47.69188" lon="-3.35389">
        <ele>14.79</ele>
        <time>2022-06-14T11:52:13Z</time>
      </trkpt>
      <trkpt lat="47.69205" lon="-3.35375">
        <ele>14.25</ele>
        <time>2022-06-14T11:52:29Z</time>
      </trkpt>
      <trkpt lat="47.69224" lon="-3.35358">
        <ele>13.93</ele>
        <time>2022-06-14T11:52:48Z</time>
      </trkpt>
      <trkpt lat="47.69229" lon="-3.35357">
        <ele>14.49</ele>
        <time>2022-06-14T11:52:58Z</time>
      </trkpt>
      <trkpt lat="47.69232" lon="-3.35354">
        <ele>14.49</ele>
        <time>2022-06-14T11:53:01Z</time>
      </trkpt>
      <trkpt lat="47.69233" lon="-3.35353">
        <ele>14.43</ele>
        <time>2022-06-14T11:53:02Z</time>
      </trkpt>
      <trkpt lat="47.69245" lon="-3.35344">
        <ele>14.21</ele>
        <time>2022-06-14T11:53:13Z</time>
      </trkpt>
      <trkpt lat="47.69249" lon="-3.35338">
        <ele>14.46</ele>
        <time>2022-06-14T11:53:20Z</time>
      </trkpt>
      <trkpt lat="47.69246" lon="-3.35334">
        <ele>14.46</ele>
        <time>2022-06-14T11:53:24Z</time>
      </trkpt>
      <trkpt lat="47.69244" lon="-3.35331">
        <ele>14.35</ele>
        <time>2022-06-14T11:53:36Z</time>
      </trkpt>
      <trkpt lat="47.69244" lon="-3.35331">
        <ele>14.32</ele>
        <time>2022-06-14T11:53:57Z</time>
      </trkpt>
      <trkpt lat="47.69244" lon="-3.35329">
        <ele>14.32</ele>
        <time>2022-06-14T11:54:11Z</time>
      </trkpt>
      <trkpt lat="47.69247" lon="-3.35328">
        <ele>14.32</ele>
        <time>2022-06-14T11:54:17Z</time>
      </trkpt>
      <trkpt lat="47.69256" lon="-3.35326">
        <ele>14.2</ele>
        <time>2022-06-14T11:54:27Z</time>
      </trkpt>
      <trkpt lat="47.69269" lon="-3.35323">
        <ele>14.17</ele>
        <time>2022-06-14T11:54:39Z</time>
      </trkpt>
      <trkpt lat="47.6928" lon="-3.35315">
        <ele>14.36</ele>
        <time>2022-06-14T11:54:50Z</time>
      </trkpt>
      <trkpt lat="47.6928" lon="-3.35302">
        <ele>14.11</ele>
        <time>2022-06-14T11:55:03Z</time>
      </trkpt>
      <trkpt lat="47.69283" lon="-3.35278">
        <ele>13.03</ele>
        <time>2022-06-14T11:55:16Z</time>
      </trkpt>
      <trkpt lat="47.69291" lon="-3.35263">
        <ele>12.96</ele>
        <time>2022-06-14T11:55:27Z</time>
      </trkpt>
      <trkpt lat="47.6929" lon="-3.35254">
        <ele>12.61</ele>
        <time>2022-06-14T11:55:34Z</time>
      </trkpt>
      <trkpt lat="47.69287" lon="-3.35237">
        <ele>13.82</ele>
        <time>2022-06-14T11:55:48Z</time>
      </trkpt>
      <trkpt lat="47.69287" lon="-3.35227">
        <ele>13.72</ele>
        <time>2022-06-14T11:55:54Z</time>
      </trkpt>
      <trkpt lat="47.6929" lon="-3.35214">
        <ele>12.67</ele>
        <time>2022-06-14T11:56:05Z</time>
      </trkpt>
      <trkpt lat="47.69295" lon="-3.35207">
        <ele>12.6</ele>
        <time>2022-06-14T11:56:10Z</time>
      </trkpt>
      <trkpt lat="47.69297" lon="-3.35185">
        <ele>12.54</ele>
        <time>2022-06-14T11:56:25Z</time>
      </trkpt>
      <trkpt lat="47.69297" lon="-3.35157">
        <ele>12.28</ele>
        <time>2022-06-14T11:56:40Z</time>
      </trkpt>
      <trkpt lat="47.693" lon="-3.35133">
        <ele>11.65</ele>
        <time>2022-06-14T11:56:56Z</time>
      </trkpt>
      <trkpt lat="47.69301" lon="-3.35132">
        <ele>11.6</ele>
        <time>2022-06-14T11:57:09Z</time>
      </trkpt>
      <trkpt lat="47.69301" lon="-3.3513">
        <ele>11.58</ele>
        <time>2022-06-14T11:57:10Z</time>
      </trkpt>
      <trkpt lat="47.69303" lon="-3.35126">
        <ele>11.55</ele>
        <time>2022-06-14T11:57:13Z</time>
      </trkpt>
      <trkpt lat="47.69315" lon="-3.35105">
        <ele>10.73</ele>
        <time>2022-06-14T11:57:30Z</time>
      </trkpt>
      <trkpt lat="47.6933" lon="-3.35087">
        <ele>11.15</ele>
        <time>2022-06-14T11:57:47Z</time>
      </trkpt>
      <trkpt lat="47.69341" lon="-3.35075">
        <ele>11.43</ele>
        <time>2022-06-14T11:58:01Z</time>
      </trkpt>
      <trkpt lat="47.69358" lon="-3.3506">
        <ele>11.69</ele>
        <time>2022-06-14T11:58:20Z</time>
      </trkpt>
      <trkpt lat="47.6937" lon="-3.35041">
        <ele>12.08</ele>
        <time>2022-06-14T11:58:35Z</time>
      </trkpt>
      <trkpt lat="47.69379" lon="-3.35017">
        <ele>11.54</ele>
        <time>2022-06-14T11:58:52Z</time>
      </trkpt>
      <trkpt lat="47.69388" lon="-3.34993">
        <ele>11.53</ele>
        <time>2022-06-14T11:59:09Z</time>
      </trkpt>
      <trkpt lat="47.69398" lon="-3.34972">
        <ele>11.61</ele>
        <time>2022-06-14T11:59:25Z</time>
      </trkpt>
      <trkpt lat="47.69397" lon="-3.34952">
        <ele>11.77</ele>
        <time>2022-06-14T11:59:39Z</time>
      </trkpt>
      <trkpt lat="47.69396" lon="-3.34941">
        <ele>11.53</ele>
        <time>2022-06-14T11:59:47Z</time>
      </trkpt>
      <trkpt lat="47.69395" lon="-3.34912">
        <ele>11.74</ele>
        <time>2022-06-14T12:00:04Z</time>
      </trkpt>
      <trkpt lat="47.69395" lon="-3.34908">
        <ele>11.43</ele>
        <time>2022-06-14T12:00:09Z</time>
      </trkpt>
      <trkpt lat="47.69397" lon="-3.34903">
        <ele>11.32</ele>
        <time>2022-06-14T12:00:13Z</time>
      </trkpt>
      <trkpt lat="47.69402" lon="-3.34893">
        <ele>10.79</ele>
        <time>2022-06-14T12:00:22Z</time>
      </trkpt>
      <trkpt lat="47.69414" lon="-3.3487">
        <ele>10.91</ele>
        <time>2022-06-14T12:00:39Z</time>
      </trkpt>
      <trkpt lat="47.69425" lon="-3.34853">
        <ele>11.04</ele>
        <time>2022-06-14T12:00:53Z</time>
      </trkpt>
      <trkpt lat="47.69434" lon="-3.3483">
        <ele>11.39</ele>
        <time>2022-06-14T12:01:09Z</time>
      </trkpt>
      <trkpt lat="47.69442" lon="-3.34807">
        <ele>11.51</ele>
        <time>2022-06-14T12:01:24Z</time>
      </trkpt>
      <trkpt lat="47.69449" lon="-3.34785">
        <ele>11.68</ele>
        <time>2022-06-14T12:01:39Z</time>
      </trkpt>
      <trkpt lat="47.69448" lon="-3.34784">
        <ele>11.71</ele>
        <time>2022-06-14T12:01:52Z</time>
      </trkpt>
      <trkpt lat="47.69447" lon="-3.34785">
        <ele>11.92</ele>
        <time>2022-06-14T12:02:16Z</time>
      </trkpt>
      <trkpt lat="47.69447" lon="-3.34782">
        <ele>12.01</ele>
        <time>2022-06-14T12:02:35Z</time>
      </trkpt>
      <trkpt lat="47.69447" lon="-3.34783">
        <ele>12.24</ele>
        <time>2022-06-14T12:03:02Z</time>
      </trkpt>
      <trkpt lat="47.69446" lon="-3.34784">
        <ele>12.24</ele>
        <time>2022-06-14T12:03:25Z</time>
      </trkpt>
      <trkpt lat="47.69447" lon="-3.34784">
        <ele>12.24</ele>
        <time>2022-06-14T12:03:53Z</time>
      </trkpt>
      <trkpt lat="47.69447" lon="-3.34784">
        <ele>12.24</ele>
        <time>2022-06-14T12:04:16Z</time>
      </trkpt>
      <trkpt lat="47.69446" lon="-3.34783">
        <ele>12.24</ele>
        <time>2022-06-14T12:04:34Z</time>
      </trkpt>
      <trkpt lat="47.69445" lon="-3.34783">
        <ele>12.24</ele>
        <time>2022-06-14T12:04:53Z</time>
      </trkpt>
      <trkpt lat="47.69444" lon="-3.34784">
        <ele>12.24</ele>
        <time>2022-06-14T12:05:14Z</time>
      </trkpt>
      <trkpt lat="47.69444" lon="-3.34784">
        <ele>12.24</ele>
        <time>2022-06-14T12:05:33Z</time>
      </trkpt>
      <trkpt lat="47.69449" lon="-3.34772">
        <ele>12.1</ele>
        <time>2022-06-14T12:05:45Z</time>
      </trkpt>
      <trkpt lat="47.69456" lon="-3.34746">
        <ele>12.22</ele>
        <time>2022-06-14T12:06:04Z</time>
      </trkpt>
      <trkpt lat="47.69458" lon="-3.34743">
        <ele>12.22</ele>
        <time>2022-06-14T12:06:07Z</time>
      </trkpt>
      <trkpt lat="47.69462" lon="-3.34742">
        <ele>12.29</ele>
        <time>2022-06-14T12:06:19Z</time>
      </trkpt>
      <trkpt lat="47.69466" lon="-3.34743">
        <ele>12.54</ele>
        <time>2022-06-14T12:06:30Z</time>
      </trkpt>
      <trkpt lat="47.69465" lon="-3.34743">
        <ele>12.26</ele>
        <time>2022-06-14T12:06:47Z</time>
      </trkpt>
      <trkpt lat="47.69465" lon="-3.34743">
        <ele>11.57</ele>
        <time>2022-06-14T12:07:15Z</time>
      </trkpt>
      <trkpt lat="47.69474" lon="-3.34743">
        <ele>11.54</ele>
        <time>2022-06-14T12:07:28Z</time>
      </trkpt>
      <trkpt lat="47.69479" lon="-3.34747">
        <ele>12.79</ele>
        <time>2022-06-14T12:07:36Z</time>
      </trkpt>
      <trkpt lat="47.69485" lon="-3.34753">
        <ele>13.57</ele>
        <time>2022-06-14T12:07:47Z</time>
      </trkpt>
      <trkpt lat="47.69485" lon="-3.34754">
        <ele>13.62</ele>
        <time>2022-06-14T12:07:48Z</time>
      </trkpt>
      <trkpt lat="47.69491" lon="-3.34756">
        <ele>14.35</ele>
        <time>2022-06-14T12:07:57Z</time>
      </trkpt>
      <trkpt lat="47.69502" lon="-3.34751">
        <ele>15.52</ele>
        <time>2022-06-14T12:08:09Z</time>
      </trkpt>
      <trkpt lat="47.69507" lon="-3.34752">
        <ele>15.91</ele>
        <time>2022-06-14T12:08:25Z</time>
      </trkpt>
      <trkpt lat="47.69517" lon="-3.34755">
        <ele>16.14</ele>
        <time>2022-06-14T12:08:37Z</time>
      </trkpt>
      <trkpt lat="47.69524" lon="-3.34758">
        <ele>16.22</ele>
        <time>2022-06-14T12:08:48Z</time>
      </trkpt>
      <trkpt lat="47.69524" lon="-3.34759">
        <ele>16.17</ele>
        <time>2022-06-14T12:08:49Z</time>
      </trkpt>
      <trkpt lat="47.6953" lon="-3.34763">
        <ele>15.53</ele>
        <time>2022-06-14T12:08:57Z</time>
      </trkpt>
      <trkpt lat="47.6954" lon="-3.34783">
        <ele>14.97</ele>
        <time>2022-06-14T12:09:12Z</time>
      </trkpt>
      <trkpt lat="47.69544" lon="-3.34786">
        <ele>14.97</ele>
        <time>2022-06-14T12:09:23Z</time>
      </trkpt>
      <trkpt lat="47.69549" lon="-3.34787">
        <ele>14.86</ele>
        <time>2022-06-14T12:09:31Z</time>
      </trkpt>
      <trkpt lat="47.6956" lon="-3.34789">
        <ele>14.76</ele>
        <time>2022-06-14T12:09:42Z</time>
      </trkpt>
      <trkpt lat="47.6956" lon="-3.34793">
        <ele>14.87</ele>
        <time>2022-06-14T12:09:45Z</time>
      </trkpt>
      <trkpt lat="47.6956" lon="-3.34799">
        <ele>15.13</ele>
        <time>2022-06-14T12:09:58Z</time>
      </trkpt>
      <trkpt lat="47.69568" lon="-3.34794">
        <ele>14.99</ele>
        <time>2022-06-14T12:10:09Z</time>
      </trkpt>
      <trkpt lat="47.69573" lon="-3.34792">
        <ele>14.98</ele>
        <time>2022-06-14T12:10:15Z</time>
      </trkpt>
      <trkpt lat="47.69583" lon="-3.34787">
        <ele>14.95</ele>
        <time>2022-06-14T12:10:25Z</time>
      </trkpt>
      <trkpt lat="47.69597" lon="-3.34788">
        <ele>14.93</ele>
        <time>2022-06-14T12:10:39Z</time>
      </trkpt>
      <trkpt lat="47.69602" lon="-3.34791">
        <ele>15.04</ele>
        <time>2022-06-14T12:10:47Z</time>
      </trkpt>
      <trkpt lat="47.69604" lon="-3.34791">
        <ele>15.04</ele>
        <time>2022-06-14T12:10:49Z</time>
      </trkpt>
      <trkpt lat="47.69605" lon="-3.3479">
        <ele>15.04</ele>
        <time>2022-06-14T12:10:50Z</time>
      </trkpt>
      <trkpt lat="47.69614" lon="-3.34789">
        <ele>15.12</ele>
        <time>2022-06-14T12:10:58Z</time>
      </trkpt>
      <trkpt lat="47.69621" lon="-3.348">
        <ele>15.59</ele>
        <time>2022-06-14T12:11:08Z</time>
      </trkpt>
      <trkpt lat="47.69621" lon="-3.34799">
        <ele>15.43</ele>
        <time>2022-06-14T12:11:18Z</time>
      </trkpt>
      <trkpt lat="47.69622" lon="-3.34799">
        <ele>15.43</ele>
        <time>2022-06-14T12:11:32Z</time>
      </trkpt>
      <trkpt lat="47.69625" lon="-3.34798">
        <ele>15.43</ele>
        <time>2022-06-14T12:11:50Z</time>
      </trkpt>
      <trkpt lat="47.69626" lon="-3.34798">
        <ele>15.43</ele>
        <time>2022-06-14T12:11:51Z</time>
      </trkpt>
      <trkpt lat="47.69627" lon="-3.34799">
        <ele>15.43</ele>
        <time>2022-06-14T12:11:52Z</time>
      </trkpt>
      <trkpt lat="47.69632" lon="-3.34806">
        <ele>15.61</ele>
        <time>2022-06-14T12:11:58Z</time>
      </trkpt>
      <trkpt lat="47.69632" lon="-3.34808">
        <ele>15.61</ele>
        <time>2022-06-14T12:11:59Z</time>
      </trkpt>
      <trkpt lat="47.69633" lon="-3.34809">
        <ele>15.61</ele>
        <time>2022-06-14T12:12:00Z</time>
      </trkpt>
      <trkpt lat="47.69633" lon="-3.34811">
        <ele>15.61</ele>
        <time>2022-06-14T12:12:01Z</time>
      </trkpt>
      <trkpt lat="47.69634" lon="-3.34813">
        <ele>15.62</ele>
        <time>2022-06-14T12:12:02Z</time>
      </trkpt>
      <trkpt lat="47.69634" lon="-3.34815">
        <ele>15.62</ele>
        <time>2022-06-14T12:12:03Z</time>
      </trkpt>
      <trkpt lat="47.69635" lon="-3.34817">
        <ele>15.62</ele>
        <time>2022-06-14T12:12:04Z</time>
      </trkpt>
      <trkpt lat="47.69635" lon="-3.34818">
        <ele>15.62</ele>
        <time>2022-06-14T12:12:05Z</time>
      </trkpt>
      <trkpt lat="47.69644" lon="-3.34838">
        <ele>15.85</ele>
        <time>2022-06-14T12:12:18Z</time>
      </trkpt>
      <trkpt lat="47.69652" lon="-3.34854">
        <ele>15.83</ele>
        <time>2022-06-14T12:12:30Z</time>
      </trkpt>
      <trkpt lat="47.69664" lon="-3.34872">
        <ele>15.82</ele>
        <time>2022-06-14T12:12:45Z</time>
      </trkpt>
      <trkpt lat="47.69665" lon="-3.34872">
        <ele>15.83</ele>
        <time>2022-06-14T12:12:46Z</time>
      </trkpt>
      <trkpt lat="47.69666" lon="-3.34871">
        <ele>15.84</ele>
        <time>2022-06-14T12:12:47Z</time>
      </trkpt>
      <trkpt lat="47.69667" lon="-3.34871">
        <ele>15.84</ele>
        <time>2022-06-14T12:12:48Z</time>
      </trkpt>
      <trkpt lat="47.69673" lon="-3.34872">
        <ele>15.97</ele>
        <time>2022-06-14T12:12:58Z</time>
      </trkpt>
      <trkpt lat="47.69675" lon="-3.34878">
        <ele>16.13</ele>
        <time>2022-06-14T12:13:11Z</time>
      </trkpt>
      <trkpt lat="47.69675" lon="-3.34879">
        <ele>16.14</ele>
        <time>2022-06-14T12:13:30Z</time>
      </trkpt>
      <trkpt lat="47.69676" lon="-3.3488">
        <ele>16.32</ele>
        <time>2022-06-14T12:13:50Z</time>
      </trkpt>
      <trkpt lat="47.69677" lon="-3.34872">
        <ele>16.33</ele>
        <time>2022-06-14T12:14:10Z</time>
      </trkpt>
      <trkpt lat="47.69689" lon="-3.34857">
        <ele>16.58</ele>
        <time>2022-06-14T12:14:26Z</time>
      </trkpt>
      <trkpt lat="47.69688" lon="-3.34856">
        <ele>16.33</ele>
        <time>2022-06-14T12:14:48Z</time>
      </trkpt>
      <trkpt lat="47.69688" lon="-3.34854">
        <ele>16.17</ele>
        <time>2022-06-14T12:15:06Z</time>
      </trkpt>
      <trkpt lat="47.69688" lon="-3.34845">
        <ele>16.34</ele>
        <time>2022-06-14T12:15:25Z</time>
      </trkpt>
      <trkpt lat="47.69687" lon="-3.34843">
        <ele>16.34</ele>
        <time>2022-06-14T12:15:26Z</time>
      </trkpt>
      <trkpt lat="47.69687" lon="-3.34842">
        <ele>16.34</ele>
        <time>2022-06-14T12:15:27Z</time>
      </trkpt>
      <trkpt lat="47.69687" lon="-3.3484">
        <ele>16.34</ele>
        <time>2022-06-14T12:15:28Z</time>
      </trkpt>
      <trkpt lat="47.69687" lon="-3.34838">
        <ele>16.36</ele>
        <time>2022-06-14T12:15:29Z</time>
      </trkpt>
      <trkpt lat="47.69687" lon="-3.34836">
        <ele>16.39</ele>
        <time>2022-06-14T12:15:30Z</time>
      </trkpt>
      <trkpt lat="47.69688" lon="-3.34835">
        <ele>16.43</ele>
        <time>2022-06-14T12:15:31Z</time>
      </trkpt>
      <trkpt lat="47.69688" lon="-3.34833">
        <ele>16.44</ele>
        <time>2022-06-14T12:15:32Z</time>
      </trkpt>
      <trkpt lat="47.69688" lon="-3.34831">
        <ele>16.45</ele>
        <time>2022-06-14T12:15:33Z</time>
      </trkpt>
      <trkpt lat="47.69699" lon="-3.34807">
        <ele>16.34</ele>
        <time>2022-06-14T12:15:50Z</time>
      </trkpt>
      <trkpt lat="47.69708" lon="-3.34794">
        <ele>16.95</ele>
        <time>2022-06-14T12:16:04Z</time>
      </trkpt>
      <trkpt lat="47.69709" lon="-3.34792">
        <ele>16.95</ele>
        <time>2022-06-14T12:16:07Z</time>
      </trkpt>
      <trkpt lat="47.69709" lon="-3.34791">
        <ele>16.95</ele>
        <time>2022-06-14T12:16:08Z</time>
      </trkpt>
      <trkpt lat="47.6971" lon="-3.34789">
        <ele>16.9</ele>
        <time>2022-06-14T12:16:09Z</time>
      </trkpt>
      <trkpt lat="47.69711" lon="-3.34788">
        <ele>16.92</ele>
        <time>2022-06-14T12:16:10Z</time>
      </trkpt>
      <trkpt lat="47.69711" lon="-3.34786">
        <ele>16.92</ele>
        <time>2022-06-14T12:16:11Z</time>
      </trkpt>
      <trkpt lat="47.69712" lon="-3.34785">
        <ele>16.87</ele>
        <time>2022-06-14T12:16:12Z</time>
      </trkpt>
      <trkpt lat="47.69713" lon="-3.34784">
        <ele>16.77</ele>
        <time>2022-06-14T12:16:13Z</time>
      </trkpt>
      <trkpt lat="47.69726" lon="-3.34771">
        <ele>16.84</ele>
        <time>2022-06-14T12:16:27Z</time>
      </trkpt>
      <trkpt lat="47.69746" lon="-3.34765">
        <ele>17.02</ele>
        <time>2022-06-14T12:16:45Z</time>
      </trkpt>
      <trkpt lat="47.69751" lon="-3.3477">
        <ele>17.22</ele>
        <time>2022-06-14T12:16:57Z</time>
      </trkpt>
      <trkpt lat="47.69753" lon="-3.34771">
        <ele>16.99</ele>
        <time>2022-06-14T12:17:06Z</time>
      </trkpt>
      <trkpt lat="47.69766" lon="-3.34779">
        <ele>16.6</ele>
        <time>2022-06-14T12:17:21Z</time>
      </trkpt>
      <trkpt lat="47.69769" lon="-3.34785">
        <ele>16.48</ele>
        <time>2022-06-14T12:17:37Z</time>
      </trkpt>
      <trkpt lat="47.69775" lon="-3.34793">
        <ele>16.32</ele>
        <time>2022-06-14T12:17:50Z</time>
      </trkpt>
      <trkpt lat="47.69784" lon="-3.34802">
        <ele>16.25</ele>
        <time>2022-06-14T12:18:02Z</time>
      </trkpt>
      <trkpt lat="47.69795" lon="-3.34815">
        <ele>16.05</ele>
        <time>2022-06-14T12:18:15Z</time>
      </trkpt>
      <trkpt lat="47.69803" lon="-3.34825">
        <ele>15.76</ele>
        <time>2022-06-14T12:18:26Z</time>
      </trkpt>
      <trkpt lat="47.69808" lon="-3.34834">
        <ele>15.61</ele>
        <time>2022-06-14T12:18:33Z</time>
      </trkpt>
      <trkpt lat="47.6981" lon="-3.34845">
        <ele>15.64</ele>
        <time>2022-06-14T12:18:42Z</time>
      </trkpt>
      <trkpt lat="47.69816" lon="-3.34853">
        <ele>16</ele>
        <time>2022-06-14T12:18:55Z</time>
      </trkpt>
      <trkpt lat="47.69825" lon="-3.34866">
        <ele>16.13</ele>
        <time>2022-06-14T12:19:06Z</time>
      </trkpt>
      <trkpt lat="47.69826" lon="-3.34869">
        <ele>15.68</ele>
        <time>2022-06-14T12:19:18Z</time>
      </trkpt>
      <trkpt lat="47.69833" lon="-3.34882">
        <ele>15.9</ele>
        <time>2022-06-14T12:19:30Z</time>
      </trkpt>
      <trkpt lat="47.69836" lon="-3.34895">
        <ele>15.89</ele>
        <time>2022-06-14T12:19:41Z</time>
      </trkpt>
      <trkpt lat="47.69836" lon="-3.34899">
        <ele>16.11</ele>
        <time>2022-06-14T12:19:44Z</time>
      </trkpt>
      <trkpt lat="47.69837" lon="-3.34901">
        <ele>16.13</ele>
        <time>2022-06-14T12:19:45Z</time>
      </trkpt>
      <trkpt lat="47.69838" lon="-3.34902">
        <ele>16.03</ele>
        <time>2022-06-14T12:19:46Z</time>
      </trkpt>
      <trkpt lat="47.69839" lon="-3.34903">
        <ele>15.87</ele>
        <time>2022-06-14T12:19:47Z</time>
      </trkpt>
      <trkpt lat="47.69841" lon="-3.34906">
        <ele>15.61</ele>
        <time>2022-06-14T12:19:50Z</time>
      </trkpt>
      <trkpt lat="47.69843" lon="-3.3491">
        <ele>15.64</ele>
        <time>2022-06-14T12:19:52Z</time>
      </trkpt>
      <trkpt lat="47.69844" lon="-3.34911">
        <ele>15.73</ele>
        <time>2022-06-14T12:19:53Z</time>
      </trkpt>
      <trkpt lat="47.69848" lon="-3.34917">
        <ele>15.81</ele>
        <time>2022-06-14T12:19:58Z</time>
      </trkpt>
      <trkpt lat="47.69855" lon="-3.34931">
        <ele>15.98</ele>
        <time>2022-06-14T12:20:12Z</time>
      </trkpt>
      <trkpt lat="47.69857" lon="-3.34938">
        <ele>16.43</ele>
        <time>2022-06-14T12:20:25Z</time>
      </trkpt>
      <trkpt lat="47.69857" lon="-3.3494">
        <ele>16.27</ele>
        <time>2022-06-14T12:20:26Z</time>
      </trkpt>
      <trkpt lat="47.69858" lon="-3.34942">
        <ele>16.1</ele>
        <time>2022-06-14T12:20:27Z</time>
      </trkpt>
      <trkpt lat="47.69858" lon="-3.34944">
        <ele>15.96</ele>
        <time>2022-06-14T12:20:28Z</time>
      </trkpt>
      <trkpt lat="47.69859" lon="-3.34946">
        <ele>15.88</ele>
        <time>2022-06-14T12:20:29Z</time>
      </trkpt>
      <trkpt lat="47.69866" lon="-3.34964">
        <ele>15.76</ele>
        <time>2022-06-14T12:20:41Z</time>
      </trkpt>
      <trkpt lat="47.69871" lon="-3.34971">
        <ele>15.82</ele>
        <time>2022-06-14T12:20:47Z</time>
      </trkpt>
      <trkpt lat="47.69872" lon="-3.34973">
        <ele>15.85</ele>
        <time>2022-06-14T12:20:48Z</time>
      </trkpt>
      <trkpt lat="47.69874" lon="-3.34974">
        <ele>15.88</ele>
        <time>2022-06-14T12:20:49Z</time>
      </trkpt>
      <trkpt lat="47.69875" lon="-3.34975">
        <ele>15.89</ele>
        <time>2022-06-14T12:20:50Z</time>
      </trkpt>
      <trkpt lat="47.69875" lon="-3.34977">
        <ele>15.89</ele>
        <time>2022-06-14T12:20:51Z</time>
      </trkpt>
      <trkpt lat="47.69876" lon="-3.34978">
        <ele>15.89</ele>
        <time>2022-06-14T12:20:52Z</time>
      </trkpt>
      <trkpt lat="47.69887" lon="-3.34991">
        <ele>15.77</ele>
        <time>2022-06-14T12:21:04Z</time>
      </trkpt>
      <trkpt lat="47.699" lon="-3.34998">
        <ele>15.61</ele>
        <time>2022-06-14T12:21:16Z</time>
      </trkpt>
      <trkpt lat="47.69907" lon="-3.35">
        <ele>15.71</ele>
        <time>2022-06-14T12:21:22Z</time>
      </trkpt>
      <trkpt lat="47.69909" lon="-3.35001">
        <ele>15.78</ele>
        <time>2022-06-14T12:21:23Z</time>
      </trkpt>
      <trkpt lat="47.69911" lon="-3.35002">
        <ele>15.83</ele>
        <time>2022-06-14T12:21:24Z</time>
      </trkpt>
      <trkpt lat="47.69913" lon="-3.35004">
        <ele>15.85</ele>
        <time>2022-06-14T12:21:25Z</time>
      </trkpt>
      <trkpt lat="47.69914" lon="-3.35005">
        <ele>15.86</ele>
        <time>2022-06-14T12:21:26Z</time>
      </trkpt>
      <trkpt lat="47.6992" lon="-3.35006">
        <ele>15.33</ele>
        <time>2022-06-14T12:21:32Z</time>
      </trkpt>
      <trkpt lat="47.69921" lon="-3.35006">
        <ele>15.31</ele>
        <time>2022-06-14T12:21:33Z</time>
      </trkpt>
      <trkpt lat="47.69922" lon="-3.35005">
        <ele>15.31</ele>
        <time>2022-06-14T12:21:34Z</time>
      </trkpt>
      <trkpt lat="47.69924" lon="-3.35005">
        <ele>15.45</ele>
        <time>2022-06-14T12:21:35Z</time>
      </trkpt>
      <trkpt lat="47.69925" lon="-3.35004">
        <ele>15.67</ele>
        <time>2022-06-14T12:21:36Z</time>
      </trkpt>
      <trkpt lat="47.69935" lon="-3.35003">
        <ele>16.47</ele>
        <time>2022-06-14T12:21:47Z</time>
      </trkpt>
      <trkpt lat="47.69938" lon="-3.35">
        <ele>16.35</ele>
        <time>2022-06-14T12:22:02Z</time>
      </trkpt>
      <trkpt lat="47.69937" lon="-3.35009">
        <ele>16.35</ele>
        <time>2022-06-14T12:22:12Z</time>
      </trkpt>
      <trkpt lat="47.6994" lon="-3.35024">
        <ele>16.12</ele>
        <time>2022-06-14T12:22:21Z</time>
      </trkpt>
      <trkpt lat="47.69939" lon="-3.35025">
        <ele>16.16</ele>
        <time>2022-06-14T12:22:22Z</time>
      </trkpt>
      <trkpt lat="47.69945" lon="-3.35053">
        <ele>16.44</ele>
        <time>2022-06-14T12:22:38Z</time>
      </trkpt>
      <trkpt lat="47.69948" lon="-3.35068">
        <ele>16.43</ele>
        <time>2022-06-14T12:22:50Z</time>
      </trkpt>
      <trkpt lat="47.6995" lon="-3.35075">
        <ele>16.42</ele>
        <time>2022-06-14T12:23:06Z</time>
      </trkpt>
      <trkpt lat="47.69956" lon="-3.35087">
        <ele>16.61</ele>
        <time>2022-06-14T12:23:17Z</time>
      </trkpt>
      <trkpt lat="47.69962" lon="-3.35101">
        <ele>17.72</ele>
        <time>2022-06-14T12:23:26Z</time>
      </trkpt>
      <trkpt lat="47.69962" lon="-3.35102">
        <ele>17.79</ele>
        <time>2022-06-14T12:23:27Z</time>
      </trkpt>
      <trkpt lat="47.69973" lon="-3.35121">
        <ele>17.88</ele>
        <time>2022-06-14T12:23:39Z</time>
      </trkpt>
      <trkpt lat="47.69987" lon="-3.35131">
        <ele>17.94</ele>
        <time>2022-06-14T12:23:51Z</time>
      </trkpt>
      <trkpt lat="47.70001" lon="-3.35132">
        <ele>17.76</ele>
        <time>2022-06-14T12:24:04Z</time>
      </trkpt>
      <trkpt lat="47.70014" lon="-3.35147">
        <ele>17.72</ele>
        <time>2022-06-14T12:24:17Z</time>
      </trkpt>
      <trkpt lat="47.70024" lon="-3.3516">
        <ele>17.46</ele>
        <time>2022-06-14T12:24:28Z</time>
      </trkpt>
      <trkpt lat="47.70027" lon="-3.35162">
        <ele>17.46</ele>
        <time>2022-06-14T12:24:30Z</time>
      </trkpt>
      <trkpt lat="47.70028" lon="-3.35161">
        <ele>17.46</ele>
        <time>2022-06-14T12:24:31Z</time>
      </trkpt>
      <trkpt lat="47.70034" lon="-3.3515">
        <ele>17.21</ele>
        <time>2022-06-14T12:24:42Z</time>
      </trkpt>
      <trkpt lat="47.70038" lon="-3.35148">
        <ele>17.07</ele>
        <time>2022-06-14T12:24:56Z</time>
      </trkpt>
      <trkpt lat="47.70033" lon="-3.35154">
        <ele>17.31</ele>
        <time>2022-06-14T12:25:12Z</time>
      </trkpt>
      <trkpt lat="47.70032" lon="-3.35154">
        <ele>17.15</ele>
        <time>2022-06-14T12:25:29Z</time>
      </trkpt>
      <trkpt lat="47.70033" lon="-3.35155">
        <ele>16.99</ele>
        <time>2022-06-14T12:25:48Z</time>
      </trkpt>
      <trkpt lat="47.70026" lon="-3.35166">
        <ele>17</ele>
        <time>2022-06-14T12:26:02Z</time>
      </trkpt>
      <trkpt lat="47.70028" lon="-3.35158">
        <ele>17.01</ele>
        <time>2022-06-14T12:26:13Z</time>
      </trkpt>
      <trkpt lat="47.70034" lon="-3.3515">
        <ele>16.9</ele>
        <time>2022-06-14T12:26:27Z</time>
      </trkpt>
      <trkpt lat="47.70035" lon="-3.35151">
        <ele>17</ele>
        <time>2022-06-14T12:26:43Z</time>
      </trkpt>
      <trkpt lat="47.70036" lon="-3.35151">
        <ele>17.09</ele>
        <time>2022-06-14T12:26:54Z</time>
      </trkpt>
      <trkpt lat="47.70036" lon="-3.3515">
        <ele>17.12</ele>
        <time>2022-06-14T12:26:57Z</time>
      </trkpt>
      <trkpt lat="47.7004" lon="-3.35143">
        <ele>17.04</ele>
        <time>2022-06-14T12:27:07Z</time>
      </trkpt>
      <trkpt lat="47.7004" lon="-3.35144">
        <ele>17.1</ele>
        <time>2022-06-14T12:27:31Z</time>
      </trkpt>
      <trkpt lat="47.7004" lon="-3.35145">
        <ele>17.1</ele>
        <time>2022-06-14T12:27:56Z</time>
      </trkpt>
      <trkpt lat="47.7004" lon="-3.35144">
        <ele>17.1</ele>
        <time>2022-06-14T12:28:17Z</time>
      </trkpt>
      <trkpt lat="47.7004" lon="-3.35144">
        <ele>17.1</ele>
        <time>2022-06-14T12:28:33Z</time>
      </trkpt>
      <trkpt lat="47.70039" lon="-3.35143">
        <ele>17.1</ele>
        <time>2022-06-14T12:28:56Z</time>
      </trkpt>
      <trkpt lat="47.7004" lon="-3.35143">
        <ele>17.1</ele>
        <time>2022-06-14T12:29:10Z</time>
      </trkpt>
      <trkpt lat="47.70042" lon="-3.35142">
        <ele>17.1</ele>
        <time>2022-06-14T12:29:33Z</time>
      </trkpt>
      <trkpt lat="47.7004" lon="-3.35142">
        <ele>17.1</ele>
        <time>2022-06-14T12:29:53Z</time>
      </trkpt>
      <trkpt lat="47.7004" lon="-3.35143">
        <ele>17.1</ele>
        <time>2022-06-14T12:30:14Z</time>
      </trkpt>
      <trkpt lat="47.70039" lon="-3.35143">
        <ele>17.1</ele>
        <time>2022-06-14T12:30:38Z</time>
      </trkpt>
      <trkpt lat="47.70038" lon="-3.35144">
        <ele>17.1</ele>
        <time>2022-06-14T12:30:58Z</time>
      </trkpt>
      <trkpt lat="47.70041" lon="-3.35154">
        <ele>17.1</ele>
        <time>2022-06-14T12:31:06Z</time>
      </trkpt>
      <trkpt lat="47.70049" lon="-3.35177">
        <ele>16.98</ele>
        <time>2022-06-14T12:31:22Z</time>
      </trkpt>
      <trkpt lat="47.70051" lon="-3.3518">
        <ele>16.88</ele>
        <time>2022-06-14T12:31:25Z</time>
      </trkpt>
      <trkpt lat="47.7006" lon="-3.35181">
        <ele>16.7</ele>
        <time>2022-06-14T12:31:39Z</time>
      </trkpt>
      <trkpt lat="47.70072" lon="-3.35179">
        <ele>16.61</ele>
        <time>2022-06-14T12:31:54Z</time>
      </trkpt>
      <trkpt lat="47.70074" lon="-3.35179">
        <ele>16.72</ele>
        <time>2022-06-14T12:31:59Z</time>
      </trkpt>
      <trkpt lat="47.70077" lon="-3.35179">
        <ele>16.74</ele>
        <time>2022-06-14T12:32:01Z</time>
      </trkpt>
      <trkpt lat="47.70096" lon="-3.35178">
        <ele>16.87</ele>
        <time>2022-06-14T12:32:20Z</time>
      </trkpt>
      <trkpt lat="47.7011" lon="-3.35176">
        <ele>17.12</ele>
        <time>2022-06-14T12:32:39Z</time>
      </trkpt>
      <trkpt lat="47.70109" lon="-3.35176">
        <ele>17.12</ele>
        <time>2022-06-14T12:33:09Z</time>
      </trkpt>
      <trkpt lat="47.70109" lon="-3.35176">
        <ele>17.12</ele>
        <time>2022-06-14T12:33:41Z</time>
      </trkpt>
      <trkpt lat="47.70108" lon="-3.35176">
        <ele>17.12</ele>
        <time>2022-06-14T12:34:02Z</time>
      </trkpt>
      <trkpt lat="47.70107" lon="-3.35175">
        <ele>17.12</ele>
        <time>2022-06-14T12:34:21Z</time>
      </trkpt>
      <trkpt lat="47.70107" lon="-3.35174">
        <ele>17.12</ele>
        <time>2022-06-14T12:34:43Z</time>
      </trkpt>
      <trkpt lat="47.70107" lon="-3.35174">
        <ele>17.12</ele>
        <time>2022-06-14T12:34:59Z</time>
      </trkpt>
      <trkpt lat="47.70103" lon="-3.35177">
        <ele>17.12</ele>
        <time>2022-06-14T12:35:13Z</time>
      </trkpt>
      <trkpt lat="47.70101" lon="-3.35177">
        <ele>17.12</ele>
        <time>2022-06-14T12:35:14Z</time>
      </trkpt>
      <trkpt lat="47.70091" lon="-3.35178">
        <ele>17.18</ele>
        <time>2022-06-14T12:35:28Z</time>
      </trkpt>
      <trkpt lat="47.70089" lon="-3.35179">
        <ele>17.37</ele>
        <time>2022-06-14T12:35:45Z</time>
      </trkpt>
      <trkpt lat="47.70088" lon="-3.35179">
        <ele>17.34</ele>
        <time>2022-06-14T12:35:46Z</time>
      </trkpt>
      <trkpt lat="47.70084" lon="-3.35178">
        <ele>17.42</ele>
        <time>2022-06-14T12:36:00Z</time>
      </trkpt>
      <trkpt lat="47.70084" lon="-3.35178">
        <ele>17.16</ele>
        <time>2022-06-14T12:36:31Z</time>
      </trkpt>
      <trkpt lat="47.70076" lon="-3.35178">
        <ele>17.14</ele>
        <time>2022-06-14T12:36:43Z</time>
      </trkpt>
      <trkpt lat="47.70069" lon="-3.35179">
        <ele>17.14</ele>
        <time>2022-06-14T12:36:56Z</time>
      </trkpt>
      <trkpt lat="47.70055" lon="-3.35177">
        <ele>17.23</ele>
        <time>2022-06-14T12:37:10Z</time>
      </trkpt>
      <trkpt lat="47.70055" lon="-3.35176">
        <ele>17.26</ele>
        <time>2022-06-14T12:37:11Z</time>
      </trkpt>
      <trkpt lat="47.70048" lon="-3.35164">
        <ele>17.51</ele>
        <time>2022-06-14T12:37:22Z</time>
      </trkpt>
      <trkpt lat="47.70041" lon="-3.35146">
        <ele>17.47</ele>
        <time>2022-06-14T12:37:36Z</time>
      </trkpt>
      <trkpt lat="47.70041" lon="-3.35145">
        <ele>17.51</ele>
        <time>2022-06-14T12:37:52Z</time>
      </trkpt>
      <trkpt lat="47.70041" lon="-3.35145">
        <ele>17.51</ele>
        <time>2022-06-14T12:38:16Z</time>
      </trkpt>
      <trkpt lat="47.70042" lon="-3.35146">
        <ele>17.51</ele>
        <time>2022-06-14T12:38:31Z</time>
      </trkpt>
      <trkpt lat="47.70042" lon="-3.35147">
        <ele>17.51</ele>
        <time>2022-06-14T12:38:56Z</time>
      </trkpt>
      <trkpt lat="47.70042" lon="-3.35147">
        <ele>17.51</ele>
        <time>2022-06-14T12:39:18Z</time>
      </trkpt>
      <trkpt lat="47.70038" lon="-3.35145">
        <ele>17.51</ele>
        <time>2022-06-14T12:39:35Z</time>
      </trkpt>
      <trkpt lat="47.70036" lon="-3.35143">
        <ele>17.51</ele>
        <time>2022-06-14T12:39:37Z</time>
      </trkpt>
      <trkpt lat="47.70026" lon="-3.35128">
        <ele>18.13</ele>
        <time>2022-06-14T12:39:50Z</time>
      </trkpt>
      <trkpt lat="47.70021" lon="-3.35122">
        <ele>17.93</ele>
        <time>2022-06-14T12:39:55Z</time>
      </trkpt>
      <trkpt lat="47.70021" lon="-3.35121">
        <ele>17.95</ele>
        <time>2022-06-14T12:39:56Z</time>
      </trkpt>
      <trkpt lat="47.70013" lon="-3.35108">
        <ele>17.65</ele>
        <time>2022-06-14T12:40:09Z</time>
      </trkpt>
      <trkpt lat="47.70013" lon="-3.35107">
        <ele>18.53</ele>
        <time>2022-06-14T12:40:26Z</time>
      </trkpt>
      <trkpt lat="47.70013" lon="-3.35108">
        <ele>18.26</ele>
        <time>2022-06-14T12:40:43Z</time>
      </trkpt>
      <trkpt lat="47.70012" lon="-3.35107">
        <ele>18.45</ele>
        <time>2022-06-14T12:41:14Z</time>
      </trkpt>
      <trkpt lat="47.70014" lon="-3.35109">
        <ele>18.54</ele>
        <time>2022-06-14T12:41:32Z</time>
      </trkpt>
      <trkpt lat="47.70016" lon="-3.35106">
        <ele>18.57</ele>
        <time>2022-06-14T12:41:53Z</time>
      </trkpt>
      <trkpt lat="47.7002" lon="-3.35105">
        <ele>18.7</ele>
        <time>2022-06-14T12:42:17Z</time>
      </trkpt>
      <trkpt lat="47.70019" lon="-3.35106">
        <ele>18.7</ele>
        <time>2022-06-14T12:42:35Z</time>
      </trkpt>
      <trkpt lat="47.70019" lon="-3.35108">
        <ele>18.7</ele>
        <time>2022-06-14T12:42:54Z</time>
      </trkpt>
      <trkpt lat="47.70019" lon="-3.35109">
        <ele>18.7</ele>
        <time>2022-06-14T12:43:23Z</time>
      </trkpt>
      <trkpt lat="47.70017" lon="-3.35105">
        <ele>18.7</ele>
        <time>2022-06-14T12:43:55Z</time>
      </trkpt>
      <trkpt lat="47.70018" lon="-3.35106">
        <ele>18.7</ele>
        <time>2022-06-14T12:44:20Z</time>
      </trkpt>
      <trkpt lat="47.70017" lon="-3.35107">
        <ele>18.7</ele>
        <time>2022-06-14T12:44:39Z</time>
      </trkpt>
      <trkpt lat="47.70017" lon="-3.35106">
        <ele>18.7</ele>
        <time>2022-06-14T12:45:07Z</time>
      </trkpt>
      <trkpt lat="47.70018" lon="-3.35107">
        <ele>18.7</ele>
        <time>2022-06-14T12:45:31Z</time>
      </trkpt>
      <trkpt lat="47.70018" lon="-3.35109">
        <ele>18.7</ele>
        <time>2022-06-14T12:45:50Z</time>
      </trkpt>
      <trkpt lat="47.70015" lon="-3.35119">
        <ele>18.74</ele>
        <time>2022-06-14T12:46:01Z</time>
      </trkpt>
      <trkpt lat="47.70018" lon="-3.35128">
        <ele>18.5</ele>
        <time>2022-06-14T12:46:15Z</time>
      </trkpt>
      <trkpt lat="47.70018" lon="-3.35128">
        <ele>19.24</ele>
        <time>2022-06-14T12:46:29Z</time>
      </trkpt>
      <trkpt lat="47.70017" lon="-3.35127">
        <ele>18.8</ele>
        <time>2022-06-14T12:46:45Z</time>
      </trkpt>
      <trkpt lat="47.70017" lon="-3.35126">
        <ele>18.37</ele>
        <time>2022-06-14T12:47:04Z</time>
      </trkpt>
      <trkpt lat="47.70016" lon="-3.35126">
        <ele>18.21</ele>
        <time>2022-06-14T12:47:15Z</time>
      </trkpt>
      <trkpt lat="47.70015" lon="-3.35123">
        <ele>18.21</ele>
        <time>2022-06-14T12:47:28Z</time>
      </trkpt>
      <trkpt lat="47.70016" lon="-3.35124">
        <ele>18.21</ele>
        <time>2022-06-14T12:47:55Z</time>
      </trkpt>
      <trkpt lat="47.70017" lon="-3.35124">
        <ele>18.21</ele>
        <time>2022-06-14T12:48:28Z</time>
      </trkpt>
      <trkpt lat="47.70019" lon="-3.35125">
        <ele>18.21</ele>
        <time>2022-06-14T12:49:24Z</time>
      </trkpt>
      <trkpt lat="47.70019" lon="-3.35125">
        <ele>18.21</ele>
        <time>2022-06-14T12:50:44Z</time>
      </trkpt>
      <trkpt lat="47.70019" lon="-3.35126">
        <ele>18.21</ele>
        <time>2022-06-14T12:51:44Z</time>
      </trkpt>
      <trkpt lat="47.70019" lon="-3.35126">
        <ele>18.21</ele>
        <time>2022-06-14T12:52:36Z</time>
      </trkpt>
      <trkpt lat="47.70019" lon="-3.35126">
        <ele>18.21</ele>
        <time>2022-06-14T12:53:35Z</time>
      </trkpt>
      <trkpt lat="47.70021" lon="-3.35127">
        <ele>18.21</ele>
        <time>2022-06-14T12:54:54Z</time>
      </trkpt>
      <trkpt lat="47.70021" lon="-3.35128">
        <ele>18.21</ele>
        <time>2022-06-14T12:55:48Z</time>
      </trkpt>
      <trkpt lat="47.70022" lon="-3.35129">
        <ele>18.21</ele>
        <time>2022-06-14T12:56:23Z</time>
      </trkpt>
      <trkpt lat="47.70021" lon="-3.35128">
        <ele>18.21</ele>
        <time>2022-06-14T12:57:00Z</time>
      </trkpt>
      <trkpt lat="47.7002" lon="-3.35127">
        <ele>18.21</ele>
        <time>2022-06-14T12:57:21Z</time>
      </trkpt>
      <trkpt lat="47.70018" lon="-3.35126">
        <ele>18.21</ele>
        <time>2022-06-14T12:57:40Z</time>
      </trkpt>
      <trkpt lat="47.7002" lon="-3.35128">
        <ele>18.21</ele>
        <time>2022-06-14T12:58:00Z</time>
      </trkpt>
      <trkpt lat="47.70019" lon="-3.35127">
        <ele>18.21</ele>
        <time>2022-06-14T12:58:19Z</time>
      </trkpt>
      <trkpt lat="47.70022" lon="-3.3513">
        <ele>18.21</ele>
        <time>2022-06-14T12:58:42Z</time>
      </trkpt>
      <trkpt lat="47.70019" lon="-3.35128">
        <ele>18.21</ele>
        <time>2022-06-14T12:58:45Z</time>
      </trkpt>
      <trkpt lat="47.70021" lon="-3.35129">
        <ele>20.16</ele>
        <time>2022-06-14T12:59:14Z</time>
      </trkpt>
      <trkpt lat="47.70021" lon="-3.35129">
        <ele>19.9</ele>
        <time>2022-06-14T12:59:31Z</time>
      </trkpt>
      <trkpt lat="47.70021" lon="-3.3513">
        <ele>20.17</ele>
        <time>2022-06-14T12:59:53Z</time>
      </trkpt>
      <trkpt lat="47.7002" lon="-3.35126">
        <ele>20.17</ele>
        <time>2022-06-14T13:00:20Z</time>
      </trkpt>
      <trkpt lat="47.70018" lon="-3.35125">
        <ele>20.17</ele>
        <time>2022-06-14T13:00:48Z</time>
      </trkpt>
      <trkpt lat="47.70018" lon="-3.35124">
        <ele>20.17</ele>
        <time>2022-06-14T13:01:12Z</time>
      </trkpt>
      <trkpt lat="47.70019" lon="-3.35123">
        <ele>20.17</ele>
        <time>2022-06-14T13:01:43Z</time>
      </trkpt>
      <trkpt lat="47.70021" lon="-3.35122">
        <ele>20.17</ele>
        <time>2022-06-14T13:02:13Z</time>
      </trkpt>
      <trkpt lat="47.70022" lon="-3.35123">
        <ele>20.17</ele>
        <time>2022-06-14T13:02:41Z</time>
      </trkpt>
      <trkpt lat="47.70021" lon="-3.3512">
        <ele>20.17</ele>
        <time>2022-06-14T13:03:03Z</time>
      </trkpt>
      <trkpt lat="47.70021" lon="-3.3512">
        <ele>20.17</ele>
        <time>2022-06-14T13:03:25Z</time>
      </trkpt>
      <trkpt lat="47.70021" lon="-3.35123">
        <ele>20.17</ele>
        <time>2022-06-14T13:03:43Z</time>
      </trkpt>
      <trkpt lat="47.70019" lon="-3.35122">
        <ele>20.17</ele>
        <time>2022-06-14T13:04:04Z</time>
      </trkpt>
      <trkpt lat="47.7002" lon="-3.35123">
        <ele>20.17</ele>
        <time>2022-06-14T13:04:26Z</time>
      </trkpt>
      <trkpt lat="47.70021" lon="-3.35124">
        <ele>20.17</ele>
        <time>2022-06-14T13:04:46Z</time>
      </trkpt>
      <trkpt lat="47.70021" lon="-3.35126">
        <ele>20.17</ele>
        <time>2022-06-14T13:05:13Z</time>
      </trkpt>
      <trkpt lat="47.7002" lon="-3.35123">
        <ele>20.17</ele>
        <time>2022-06-14T13:05:37Z</time>
      </trkpt>
      <trkpt lat="47.70024" lon="-3.35128">
        <ele>20.17</ele>
        <time>2022-06-14T13:05:52Z</time>
      </trkpt>
      <trkpt lat="47.70033" lon="-3.35142">
        <ele>19.96</ele>
        <time>2022-06-14T13:06:05Z</time>
      </trkpt>
      <trkpt lat="47.70044" lon="-3.35148">
        <ele>19.73</ele>
        <time>2022-06-14T13:06:18Z</time>
      </trkpt>
      <trkpt lat="47.7005" lon="-3.35141">
        <ele>19.58</ele>
        <time>2022-06-14T13:06:30Z</time>
      </trkpt>
      <trkpt lat="47.70055" lon="-3.35134">
        <ele>18.97</ele>
        <time>2022-06-14T13:06:43Z</time>
      </trkpt>
      <trkpt lat="47.7006" lon="-3.35129">
        <ele>18.44</ele>
        <time>2022-06-14T13:06:58Z</time>
      </trkpt>
      <trkpt lat="47.7006" lon="-3.3513">
        <ele>18.39</ele>
        <time>2022-06-14T13:07:13Z</time>
      </trkpt>
      <trkpt lat="47.7006" lon="-3.3513">
        <ele>18.23</ele>
        <time>2022-06-14T13:07:34Z</time>
      </trkpt>
      <trkpt lat="47.70061" lon="-3.35129">
        <ele>17.85</ele>
        <time>2022-06-14T13:08:21Z</time>
      </trkpt>
      <trkpt lat="47.70061" lon="-3.35131">
        <ele>17.84</ele>
        <time>2022-06-14T13:09:37Z</time>
      </trkpt>
      <trkpt lat="47.7006" lon="-3.35129">
        <ele>17.84</ele>
        <time>2022-06-14T13:10:16Z</time>
      </trkpt>
      <trkpt lat="47.70061" lon="-3.3513">
        <ele>17.84</ele>
        <time>2022-06-14T13:10:48Z</time>
      </trkpt>
      <trkpt lat="47.7006" lon="-3.35131">
        <ele>17.84</ele>
        <time>2022-06-14T13:11:16Z</time>
      </trkpt>
      <trkpt lat="47.70061" lon="-3.35131">
        <ele>17.84</ele>
        <time>2022-06-14T13:11:59Z</time>
      </trkpt>
      <trkpt lat="47.70064" lon="-3.35127">
        <ele>17.84</ele>
        <time>2022-06-14T13:12:10Z</time>
      </trkpt>
      <trkpt lat="47.7008" lon="-3.35119">
        <ele>18.33</ele>
        <time>2022-06-14T13:12:29Z</time>
      </trkpt>
      <trkpt lat="47.70097" lon="-3.35124">
        <ele>18.32</ele>
        <time>2022-06-14T13:12:41Z</time>
      </trkpt>
      <trkpt lat="47.70142" lon="-3.35162">
        <ele>18.37</ele>
        <time>2022-06-14T13:12:59Z</time>
      </trkpt>
      <trkpt lat="47.70169" lon="-3.35162">
        <ele>18.39</ele>
        <time>2022-06-14T13:13:08Z</time>
      </trkpt>
      <trkpt lat="47.70196" lon="-3.35119">
        <ele>18.19</ele>
        <time>2022-06-14T13:13:19Z</time>
      </trkpt>
      <trkpt lat="47.70229" lon="-3.35022">
        <ele>18.31</ele>
        <time>2022-06-14T13:13:36Z</time>
      </trkpt>
      <trkpt lat="47.70261" lon="-3.34916">
        <ele>18.36</ele>
        <time>2022-06-14T13:13:54Z</time>
      </trkpt>
      <trkpt lat="47.70294" lon="-3.34846">
        <ele>18.26</ele>
        <time>2022-06-14T13:14:08Z</time>
      </trkpt>
      <trkpt lat="47.70347" lon="-3.34782">
        <ele>18.07</ele>
        <time>2022-06-14T13:14:26Z</time>
      </trkpt>
      <trkpt lat="47.70392" lon="-3.34721">
        <ele>17.8</ele>
        <time>2022-06-14T13:14:46Z</time>
      </trkpt>
      <trkpt lat="47.70445" lon="-3.34663">
        <ele>17.6</ele>
        <time>2022-06-14T13:15:08Z</time>
      </trkpt>
      <trkpt lat="47.70489" lon="-3.34647">
        <ele>17.47</ele>
        <time>2022-06-14T13:15:26Z</time>
      </trkpt>
      <trkpt lat="47.70509" lon="-3.34654">
        <ele>17.51</ele>
        <time>2022-06-14T13:15:41Z</time>
      </trkpt>
      <trkpt lat="47.7051" lon="-3.3466">
        <ele>18.23</ele>
        <time>2022-06-14T13:15:59Z</time>
      </trkpt>
      <trkpt lat="47.7051" lon="-3.34656">
        <ele>18.5</ele>
        <time>2022-06-14T13:16:11Z</time>
      </trkpt>
      <trkpt lat="47.70511" lon="-3.34657">
        <ele>18.8</ele>
        <time>2022-06-14T13:16:29Z</time>
      </trkpt>
      <trkpt lat="47.70514" lon="-3.34664">
        <ele>18.9</ele>
        <time>2022-06-14T13:16:40Z</time>
      </trkpt>
      <trkpt lat="47.70517" lon="-3.3467">
        <ele>19.64</ele>
        <time>2022-06-14T13:16:47Z</time>
      </trkpt>
      <trkpt lat="47.7052" lon="-3.34682">
        <ele>20.21</ele>
        <time>2022-06-14T13:16:54Z</time>
      </trkpt>
      <trkpt lat="47.70525" lon="-3.34705">
        <ele>20.65</ele>
        <time>2022-06-14T13:17:07Z</time>
      </trkpt>
      <trkpt lat="47.70523" lon="-3.34724">
        <ele>21.14</ele>
        <time>2022-06-14T13:17:19Z</time>
      </trkpt>
      <trkpt lat="47.70523" lon="-3.34733">
        <ele>21.13</ele>
        <time>2022-06-14T13:17:27Z</time>
      </trkpt>
      <trkpt lat="47.70526" lon="-3.34737">
        <ele>21.19</ele>
        <time>2022-06-14T13:17:31Z</time>
      </trkpt>
      <trkpt lat="47.70527" lon="-3.34738">
        <ele>21.2</ele>
        <time>2022-06-14T13:17:32Z</time>
      </trkpt>
      <trkpt lat="47.70528" lon="-3.34739">
        <ele>21.22</ele>
        <time>2022-06-14T13:17:33Z</time>
      </trkpt>
      <trkpt lat="47.70529" lon="-3.3474">
        <ele>21.24</ele>
        <time>2022-06-14T13:17:34Z</time>
      </trkpt>
      <trkpt lat="47.7053" lon="-3.34741">
        <ele>21.29</ele>
        <time>2022-06-14T13:17:36Z</time>
      </trkpt>
      <trkpt lat="47.70531" lon="-3.34741">
        <ele>21.32</ele>
        <time>2022-06-14T13:17:37Z</time>
      </trkpt>
      <trkpt lat="47.7054" lon="-3.34745">
        <ele>21.44</ele>
        <time>2022-06-14T13:17:48Z</time>
      </trkpt>
      <trkpt lat="47.70556" lon="-3.34745">
        <ele>21.6</ele>
        <time>2022-06-14T13:18:02Z</time>
      </trkpt>
      <trkpt lat="47.70568" lon="-3.34738">
        <ele>22.37</ele>
        <time>2022-06-14T13:18:14Z</time>
      </trkpt>
      <trkpt lat="47.7057" lon="-3.34734">
        <ele>22.5</ele>
        <time>2022-06-14T13:18:28Z</time>
      </trkpt>
      <trkpt lat="47.70571" lon="-3.34732">
        <ele>22.3</ele>
        <time>2022-06-14T13:18:43Z</time>
      </trkpt>
      <trkpt lat="47.70581" lon="-3.34739">
        <ele>22.08</ele>
        <time>2022-06-14T13:18:58Z</time>
      </trkpt>
      <trkpt lat="47.7059" lon="-3.34741">
        <ele>23.4</ele>
        <time>2022-06-14T13:19:09Z</time>
      </trkpt>
      <trkpt lat="47.70597" lon="-3.3475">
        <ele>23.86</ele>
        <time>2022-06-14T13:19:18Z</time>
      </trkpt>
      <trkpt lat="47.70601" lon="-3.34759">
        <ele>23.34</ele>
        <time>2022-06-14T13:19:27Z</time>
      </trkpt>
      <trkpt lat="47.70602" lon="-3.34775">
        <ele>23.34</ele>
        <time>2022-06-14T13:19:42Z</time>
      </trkpt>
      <trkpt lat="47.70594" lon="-3.34786">
        <ele>23.55</ele>
        <time>2022-06-14T13:19:52Z</time>
      </trkpt>
      <trkpt lat="47.70592" lon="-3.34791">
        <ele>23.62</ele>
        <time>2022-06-14T13:19:55Z</time>
      </trkpt>
      <trkpt lat="47.70584" lon="-3.34811">
        <ele>23.63</ele>
        <time>2022-06-14T13:20:07Z</time>
      </trkpt>
      <trkpt lat="47.70575" lon="-3.34824">
        <ele>23.71</ele>
        <time>2022-06-14T13:20:16Z</time>
      </trkpt>
      <trkpt lat="47.70567" lon="-3.34843">
        <ele>23.59</ele>
        <time>2022-06-14T13:20:28Z</time>
      </trkpt>
      <trkpt lat="47.70561" lon="-3.34857">
        <ele>23.59</ele>
        <time>2022-06-14T13:20:38Z</time>
      </trkpt>
      <trkpt lat="47.70555" lon="-3.34869">
        <ele>23.39</ele>
        <time>2022-06-14T13:20:47Z</time>
      </trkpt>
      <trkpt lat="47.70555" lon="-3.34871">
        <ele>23.43</ele>
        <time>2022-06-14T13:20:48Z</time>
      </trkpt>
      <trkpt lat="47.70554" lon="-3.34873">
        <ele>23.48</ele>
        <time>2022-06-14T13:20:49Z</time>
      </trkpt>
      <trkpt lat="47.70553" lon="-3.34875">
        <ele>23.51</ele>
        <time>2022-06-14T13:20:50Z</time>
      </trkpt>
      <trkpt lat="47.70549" lon="-3.34886">
        <ele>23.58</ele>
        <time>2022-06-14T13:20:56Z</time>
      </trkpt>
      <trkpt lat="47.70545" lon="-3.34903">
        <ele>23.61</ele>
        <time>2022-06-14T13:21:06Z</time>
      </trkpt>
      <trkpt lat="47.70545" lon="-3.34906">
        <ele>23.56</ele>
        <time>2022-06-14T13:21:08Z</time>
      </trkpt>
      <trkpt lat="47.70544" lon="-3.34907">
        <ele>23.54</ele>
        <time>2022-06-14T13:21:09Z</time>
      </trkpt>
      <trkpt lat="47.70533" lon="-3.34928">
        <ele>23.56</ele>
        <time>2022-06-14T13:21:23Z</time>
      </trkpt>
      <trkpt lat="47.70523" lon="-3.34947">
        <ele>23.62</ele>
        <time>2022-06-14T13:21:37Z</time>
      </trkpt>
      <trkpt lat="47.70522" lon="-3.34948">
        <ele>23.63</ele>
        <time>2022-06-14T13:21:38Z</time>
      </trkpt>
      <trkpt lat="47.70521" lon="-3.3495">
        <ele>23.63</ele>
        <time>2022-06-14T13:21:39Z</time>
      </trkpt>
      <trkpt lat="47.7052" lon="-3.34951">
        <ele>23.63</ele>
        <time>2022-06-14T13:21:40Z</time>
      </trkpt>
      <trkpt lat="47.70519" lon="-3.34953">
        <ele>23.63</ele>
        <time>2022-06-14T13:21:41Z</time>
      </trkpt>
      <trkpt lat="47.70511" lon="-3.34967">
        <ele>23.24</ele>
        <time>2022-06-14T13:21:53Z</time>
      </trkpt>
      <trkpt lat="47.705" lon="-3.34977">
        <ele>23.05</ele>
        <time>2022-06-14T13:22:05Z</time>
      </trkpt>
      <trkpt lat="47.70491" lon="-3.34993">
        <ele>23</ele>
        <time>2022-06-14T13:22:18Z</time>
      </trkpt>
      <trkpt lat="47.70478" lon="-3.35012">
        <ele>23.63</ele>
        <time>2022-06-14T13:22:32Z</time>
      </trkpt>
      <trkpt lat="47.7047" lon="-3.35023">
        <ele>23.75</ele>
        <time>2022-06-14T13:22:43Z</time>
      </trkpt>
      <trkpt lat="47.70466" lon="-3.35022">
        <ele>23.69</ele>
        <time>2022-06-14T13:22:46Z</time>
      </trkpt>
      <trkpt lat="47.70453" lon="-3.35012">
        <ele>23.32</ele>
        <time>2022-06-14T13:23:00Z</time>
      </trkpt>
      <trkpt lat="47.70437" lon="-3.35008">
        <ele>24.12</ele>
        <time>2022-06-14T13:23:14Z</time>
      </trkpt>
      <trkpt lat="47.70418" lon="-3.35002">
        <ele>23.82</ele>
        <time>2022-06-14T13:23:29Z</time>
      </trkpt>
      <trkpt lat="47.70404" lon="-3.34998">
        <ele>23.48</ele>
        <time>2022-06-14T13:23:41Z</time>
      </trkpt>
      <trkpt lat="47.70391" lon="-3.35">
        <ele>23.33</ele>
        <time>2022-06-14T13:23:54Z</time>
      </trkpt>
      <trkpt lat="47.7039" lon="-3.35002">
        <ele>23.36</ele>
        <time>2022-06-14T13:23:55Z</time>
      </trkpt>
      <trkpt lat="47.7039" lon="-3.35003">
        <ele>23.38</ele>
        <time>2022-06-14T13:23:56Z</time>
      </trkpt>
      <trkpt lat="47.7039" lon="-3.35005">
        <ele>23.41</ele>
        <time>2022-06-14T13:23:57Z</time>
      </trkpt>
      <trkpt lat="47.7039" lon="-3.35006">
        <ele>23.48</ele>
        <time>2022-06-14T13:23:58Z</time>
      </trkpt>
      <trkpt lat="47.70389" lon="-3.35008">
        <ele>23.59</ele>
        <time>2022-06-14T13:23:59Z</time>
      </trkpt>
      <trkpt lat="47.70389" lon="-3.3501">
        <ele>23.67</ele>
        <time>2022-06-14T13:24:00Z</time>
      </trkpt>
      <trkpt lat="47.70389" lon="-3.35011">
        <ele>23.71</ele>
        <time>2022-06-14T13:24:01Z</time>
      </trkpt>
      <trkpt lat="47.70389" lon="-3.35013">
        <ele>23.74</ele>
        <time>2022-06-14T13:24:02Z</time>
      </trkpt>
      <trkpt lat="47.70388" lon="-3.35034">
        <ele>24.97</ele>
        <time>2022-06-14T13:24:15Z</time>
      </trkpt>
      <trkpt lat="47.70386" lon="-3.35057">
        <ele>26.03</ele>
        <time>2022-06-14T13:24:30Z</time>
      </trkpt>
      <trkpt lat="47.70384" lon="-3.35071">
        <ele>26.58</ele>
        <time>2022-06-14T13:24:41Z</time>
      </trkpt>
      <trkpt lat="47.70381" lon="-3.35085">
        <ele>26.63</ele>
        <time>2022-06-14T13:24:49Z</time>
      </trkpt>
      <trkpt lat="47.7038" lon="-3.35088">
        <ele>26.7</ele>
        <time>2022-06-14T13:24:50Z</time>
      </trkpt>
      <trkpt lat="47.7038" lon="-3.3509">
        <ele>26.79</ele>
        <time>2022-06-14T13:24:51Z</time>
      </trkpt>
      <trkpt lat="47.7038" lon="-3.35092">
        <ele>26.9</ele>
        <time>2022-06-14T13:24:52Z</time>
      </trkpt>
      <trkpt lat="47.70377" lon="-3.3511">
        <ele>27.53</ele>
        <time>2022-06-14T13:25:01Z</time>
      </trkpt>
      <trkpt lat="47.7037" lon="-3.35131">
        <ele>27.89</ele>
        <time>2022-06-14T13:25:12Z</time>
      </trkpt>
      <trkpt lat="47.70367" lon="-3.35144">
        <ele>28.73</ele>
        <time>2022-06-14T13:25:23Z</time>
      </trkpt>
      <trkpt lat="47.70365" lon="-3.3515">
        <ele>29.21</ele>
        <time>2022-06-14T13:25:32Z</time>
      </trkpt>
      <trkpt lat="47.70364" lon="-3.35152">
        <ele>29.19</ele>
        <time>2022-06-14T13:25:33Z</time>
      </trkpt>
      <trkpt lat="47.70363" lon="-3.35154">
        <ele>29.16</ele>
        <time>2022-06-14T13:25:34Z</time>
      </trkpt>
      <trkpt lat="47.70356" lon="-3.35174">
        <ele>28.63</ele>
        <time>2022-06-14T13:25:47Z</time>
      </trkpt>
      <trkpt lat="47.70349" lon="-3.35197">
        <ele>27.95</ele>
        <time>2022-06-14T13:26:02Z</time>
      </trkpt>
      <trkpt lat="47.70348" lon="-3.35203">
        <ele>28.44</ele>
        <time>2022-06-14T13:26:17Z</time>
      </trkpt>
      <trkpt lat="47.70347" lon="-3.35209">
        <ele>28.47</ele>
        <time>2022-06-14T13:26:22Z</time>
      </trkpt>
      <trkpt lat="47.70349" lon="-3.35222">
        <ele>27.16</ele>
        <time>2022-06-14T13:26:34Z</time>
      </trkpt>
      <trkpt lat="47.70347" lon="-3.35224">
        <ele>27.08</ele>
        <time>2022-06-14T13:26:48Z</time>
      </trkpt>
      <trkpt lat="47.7035" lon="-3.35233">
        <ele>26.73</ele>
        <time>2022-06-14T13:27:04Z</time>
      </trkpt>
      <trkpt lat="47.70348" lon="-3.35241">
        <ele>27.07</ele>
        <time>2022-06-14T13:27:14Z</time>
      </trkpt>
      <trkpt lat="47.70346" lon="-3.35247">
        <ele>26.58</ele>
        <time>2022-06-14T13:27:27Z</time>
      </trkpt>
      <trkpt lat="47.70343" lon="-3.35251">
        <ele>26.51</ele>
        <time>2022-06-14T13:27:39Z</time>
      </trkpt>
      <trkpt lat="47.70342" lon="-3.35255">
        <ele>26.17</ele>
        <time>2022-06-14T13:27:49Z</time>
      </trkpt>
      <trkpt lat="47.70342" lon="-3.35257">
        <ele>26.11</ele>
        <time>2022-06-14T13:27:50Z</time>
      </trkpt>
      <trkpt lat="47.70342" lon="-3.35258">
        <ele>26.05</ele>
        <time>2022-06-14T13:27:51Z</time>
      </trkpt>
      <trkpt lat="47.70342" lon="-3.3526">
        <ele>25.97</ele>
        <time>2022-06-14T13:27:52Z</time>
      </trkpt>
      <trkpt lat="47.70345" lon="-3.35285">
        <ele>25.23</ele>
        <time>2022-06-14T13:28:06Z</time>
      </trkpt>
      <trkpt lat="47.70349" lon="-3.35305">
        <ele>25.5</ele>
        <time>2022-06-14T13:28:18Z</time>
      </trkpt>
      <trkpt lat="47.70349" lon="-3.35311">
        <ele>25.49</ele>
        <time>2022-06-14T13:28:22Z</time>
      </trkpt>
      <trkpt lat="47.70351" lon="-3.35327">
        <ele>25.71</ele>
        <time>2022-06-14T13:28:33Z</time>
      </trkpt>
      <trkpt lat="47.70352" lon="-3.35321">
        <ele>26.2</ele>
        <time>2022-06-14T13:28:44Z</time>
      </trkpt>
      <trkpt lat="47.70351" lon="-3.35319">
        <ele>26.2</ele>
        <time>2022-06-14T13:28:45Z</time>
      </trkpt>
      <trkpt lat="47.7035" lon="-3.35315">
        <ele>26.15</ele>
        <time>2022-06-14T13:28:48Z</time>
      </trkpt>
      <trkpt lat="47.70351" lon="-3.35315">
        <ele>26.17</ele>
        <time>2022-06-14T13:28:53Z</time>
      </trkpt>
      <trkpt lat="47.70353" lon="-3.35319">
        <ele>26.36</ele>
        <time>2022-06-14T13:29:04Z</time>
      </trkpt>
      <trkpt lat="47.70354" lon="-3.3532">
        <ele>26.37</ele>
        <time>2022-06-14T13:29:05Z</time>
      </trkpt>
      <trkpt lat="47.70356" lon="-3.35325">
        <ele>26.12</ele>
        <time>2022-06-14T13:29:09Z</time>
      </trkpt>
      <trkpt lat="47.70356" lon="-3.35349">
        <ele>25.94</ele>
        <time>2022-06-14T13:29:25Z</time>
      </trkpt>
      <trkpt lat="47.70355" lon="-3.3537">
        <ele>26.03</ele>
        <time>2022-06-14T13:29:37Z</time>
      </trkpt>
      <trkpt lat="47.70354" lon="-3.35391">
        <ele>25.65</ele>
        <time>2022-06-14T13:29:50Z</time>
      </trkpt>
      <trkpt lat="47.70351" lon="-3.35408">
        <ele>25.94</ele>
        <time>2022-06-14T13:29:59Z</time>
      </trkpt>
      <trkpt lat="47.70351" lon="-3.3541">
        <ele>25.95</ele>
        <time>2022-06-14T13:30:00Z</time>
      </trkpt>
      <trkpt lat="47.70351" lon="-3.35415">
        <ele>25.95</ele>
        <time>2022-06-14T13:30:02Z</time>
      </trkpt>
      <trkpt lat="47.70351" lon="-3.35417">
        <ele>25.95</ele>
        <time>2022-06-14T13:30:03Z</time>
      </trkpt>
      <trkpt lat="47.70353" lon="-3.35434">
        <ele>26.14</ele>
        <time>2022-06-14T13:30:14Z</time>
      </trkpt>
      <trkpt lat="47.70361" lon="-3.35453">
        <ele>26.47</ele>
        <time>2022-06-14T13:30:29Z</time>
      </trkpt>
      <trkpt lat="47.70367" lon="-3.35461">
        <ele>26.6</ele>
        <time>2022-06-14T13:30:36Z</time>
      </trkpt>
      <trkpt lat="47.70374" lon="-3.35485">
        <ele>26.48</ele>
        <time>2022-06-14T13:30:52Z</time>
      </trkpt>
      <trkpt lat="47.70375" lon="-3.35503">
        <ele>25.8</ele>
        <time>2022-06-14T13:31:03Z</time>
      </trkpt>
      <trkpt lat="47.70382" lon="-3.35525">
        <ele>25.32</ele>
        <time>2022-06-14T13:31:18Z</time>
      </trkpt>
      <trkpt lat="47.70385" lon="-3.35533">
        <ele>25.17</ele>
        <time>2022-06-14T13:31:24Z</time>
      </trkpt>
      <trkpt lat="47.70391" lon="-3.35539">
        <ele>24.32</ele>
        <time>2022-06-14T13:31:37Z</time>
      </trkpt>
      <trkpt lat="47.70399" lon="-3.35539">
        <ele>23.64</ele>
        <time>2022-06-14T13:31:50Z</time>
      </trkpt>
      <trkpt lat="47.70406" lon="-3.35539">
        <ele>23.24</ele>
        <time>2022-06-14T13:32:00Z</time>
      </trkpt>
      <trkpt lat="47.70416" lon="-3.3554">
        <ele>23.24</ele>
        <time>2022-06-14T13:32:11Z</time>
      </trkpt>
      <trkpt lat="47.70419" lon="-3.35541">
        <ele>24.12</ele>
        <time>2022-06-14T13:32:25Z</time>
      </trkpt>
      <trkpt lat="47.70427" lon="-3.3554">
        <ele>24.21</ele>
        <time>2022-06-14T13:32:44Z</time>
      </trkpt>
      <trkpt lat="47.70432" lon="-3.35542">
        <ele>24.21</ele>
        <time>2022-06-14T13:33:03Z</time>
      </trkpt>
      <trkpt lat="47.70435" lon="-3.35547">
        <ele>24.21</ele>
        <time>2022-06-14T13:33:17Z</time>
      </trkpt>
      <trkpt lat="47.7044" lon="-3.35555">
        <ele>24.21</ele>
        <time>2022-06-14T13:33:35Z</time>
      </trkpt>
      <trkpt lat="47.70429" lon="-3.35554">
        <ele>24.21</ele>
        <time>2022-06-14T13:33:49Z</time>
      </trkpt>
      <trkpt lat="47.7043" lon="-3.35554">
        <ele>24.21</ele>
        <time>2022-06-14T13:34:03Z</time>
      </trkpt>
      <trkpt lat="47.70425" lon="-3.35552">
        <ele>24.84</ele>
        <time>2022-06-14T13:34:16Z</time>
      </trkpt>
      <trkpt lat="47.70424" lon="-3.35551">
        <ele>27.89</ele>
        <time>2022-06-14T13:34:18Z</time>
      </trkpt>
      <trkpt lat="47.70421" lon="-3.35552">
        <ele>29.57</ele>
        <time>2022-06-14T13:34:33Z</time>
      </trkpt>
      <trkpt lat="47.70429" lon="-3.35555">
        <ele>29.5</ele>
        <time>2022-06-14T13:34:49Z</time>
      </trkpt>
      <trkpt lat="47.70442" lon="-3.35565">
        <ele>30.1</ele>
        <time>2022-06-14T13:35:07Z</time>
      </trkpt>
      <trkpt lat="47.70455" lon="-3.35576">
        <ele>30.17</ele>
        <time>2022-06-14T13:35:23Z</time>
      </trkpt>
      <trkpt lat="47.70465" lon="-3.35585">
        <ele>30.17</ele>
        <time>2022-06-14T13:35:39Z</time>
      </trkpt>
      <trkpt lat="47.70475" lon="-3.35593">
        <ele>30.06</ele>
        <time>2022-06-14T13:35:56Z</time>
      </trkpt>
      <trkpt lat="47.70484" lon="-3.35602">
        <ele>29.95</ele>
        <time>2022-06-14T13:36:11Z</time>
      </trkpt>
      <trkpt lat="47.70497" lon="-3.35612">
        <ele>29.86</ele>
        <time>2022-06-14T13:36:27Z</time>
      </trkpt>
      <trkpt lat="47.70504" lon="-3.35619">
        <ele>29.97</ele>
        <time>2022-06-14T13:36:41Z</time>
      </trkpt>
      <trkpt lat="47.70515" lon="-3.35626">
        <ele>29.97</ele>
        <time>2022-06-14T13:36:59Z</time>
      </trkpt>
      <trkpt lat="47.70519" lon="-3.35637">
        <ele>29.87</ele>
        <time>2022-06-14T13:37:13Z</time>
      </trkpt>
      <trkpt lat="47.7052" lon="-3.35638">
        <ele>29.89</ele>
        <time>2022-06-14T13:37:29Z</time>
      </trkpt>
      <trkpt lat="47.70521" lon="-3.35653">
        <ele>29.97</ele>
        <time>2022-06-14T13:37:47Z</time>
      </trkpt>
      <trkpt lat="47.70527" lon="-3.35667">
        <ele>29.91</ele>
        <time>2022-06-14T13:38:05Z</time>
      </trkpt>
      <trkpt lat="47.70531" lon="-3.35677">
        <ele>29.99</ele>
        <time>2022-06-14T13:38:21Z</time>
      </trkpt>
      <trkpt lat="47.70533" lon="-3.35693">
        <ele>29.99</ele>
        <time>2022-06-14T13:38:37Z</time>
      </trkpt>
      <trkpt lat="47.70536" lon="-3.35704">
        <ele>29.99</ele>
        <time>2022-06-14T13:38:56Z</time>
      </trkpt>
      <trkpt lat="47.70547" lon="-3.35727">
        <ele>29.5</ele>
        <time>2022-06-14T13:39:16Z</time>
      </trkpt>
      <trkpt lat="47.70554" lon="-3.35737">
        <ele>29.57</ele>
        <time>2022-06-14T13:39:30Z</time>
      </trkpt>
      <trkpt lat="47.70558" lon="-3.35748">
        <ele>29.64</ele>
        <time>2022-06-14T13:39:46Z</time>
      </trkpt>
      <trkpt lat="47.70554" lon="-3.35755">
        <ele>29.43</ele>
        <time>2022-06-14T13:40:00Z</time>
      </trkpt>
      <trkpt lat="47.70559" lon="-3.3576">
        <ele>30</ele>
        <time>2022-06-14T13:40:13Z</time>
      </trkpt>
      <trkpt lat="47.70558" lon="-3.35761">
        <ele>29.85</ele>
        <time>2022-06-14T13:40:29Z</time>
      </trkpt>
      <trkpt lat="47.7056" lon="-3.35759">
        <ele>29.85</ele>
        <time>2022-06-14T13:40:48Z</time>
      </trkpt>
      <trkpt lat="47.7056" lon="-3.35753">
        <ele>29.85</ele>
        <time>2022-06-14T13:41:00Z</time>
      </trkpt>
      <trkpt lat="47.70563" lon="-3.35748">
        <ele>29.85</ele>
        <time>2022-06-14T13:41:14Z</time>
      </trkpt>
      <trkpt lat="47.70573" lon="-3.35759">
        <ele>29.85</ele>
        <time>2022-06-14T13:41:28Z</time>
      </trkpt>
      <trkpt lat="47.70578" lon="-3.35766">
        <ele>26.6</ele>
        <time>2022-06-14T13:41:35Z</time>
      </trkpt>
      <trkpt lat="47.70587" lon="-3.35777">
        <ele>26.59</ele>
        <time>2022-06-14T13:41:45Z</time>
      </trkpt>
      <trkpt lat="47.70601" lon="-3.35787">
        <ele>26.83</ele>
        <time>2022-06-14T13:41:57Z</time>
      </trkpt>
      <trkpt lat="47.70615" lon="-3.35796">
        <ele>27.14</ele>
        <time>2022-06-14T13:42:11Z</time>
      </trkpt>
      <trkpt lat="47.70629" lon="-3.35804">
        <ele>27.3</ele>
        <time>2022-06-14T13:42:26Z</time>
      </trkpt>
      <trkpt lat="47.70651" lon="-3.35815">
        <ele>27.39</ele>
        <time>2022-06-14T13:42:43Z</time>
      </trkpt>
      <trkpt lat="47.70655" lon="-3.3582">
        <ele>27.41</ele>
        <time>2022-06-14T13:42:47Z</time>
      </trkpt>
      <trkpt lat="47.70656" lon="-3.35821">
        <ele>27.41</ele>
        <time>2022-06-14T13:42:48Z</time>
      </trkpt>
      <trkpt lat="47.70656" lon="-3.35823">
        <ele>27.4</ele>
        <time>2022-06-14T13:42:49Z</time>
      </trkpt>
      <trkpt lat="47.70666" lon="-3.35838">
        <ele>27.16</ele>
        <time>2022-06-14T13:43:01Z</time>
      </trkpt>
      <trkpt lat="47.70676" lon="-3.35856">
        <ele>26.86</ele>
        <time>2022-06-14T13:43:14Z</time>
      </trkpt>
      <trkpt lat="47.7069" lon="-3.35873">
        <ele>26.83</ele>
        <time>2022-06-14T13:43:26Z</time>
      </trkpt>
      <trkpt lat="47.70699" lon="-3.3588">
        <ele>26.75</ele>
        <time>2022-06-14T13:43:35Z</time>
      </trkpt>
      <trkpt lat="47.70709" lon="-3.35894">
        <ele>26.77</ele>
        <time>2022-06-14T13:43:49Z</time>
      </trkpt>
      <trkpt lat="47.70717" lon="-3.35901">
        <ele>26.58</ele>
        <time>2022-06-14T13:43:55Z</time>
      </trkpt>
      <trkpt lat="47.70729" lon="-3.35919">
        <ele>26.27</ele>
        <time>2022-06-14T13:44:07Z</time>
      </trkpt>
      <trkpt lat="47.70739" lon="-3.35936">
        <ele>26.09</ele>
        <time>2022-06-14T13:44:19Z</time>
      </trkpt>
      <trkpt lat="47.70748" lon="-3.3595">
        <ele>26.19</ele>
        <time>2022-06-14T13:44:27Z</time>
      </trkpt>
      <trkpt lat="47.70757" lon="-3.35966">
        <ele>26.14</ele>
        <time>2022-06-14T13:44:38Z</time>
      </trkpt>
      <trkpt lat="47.7076" lon="-3.35987">
        <ele>25.85</ele>
        <time>2022-06-14T13:44:50Z</time>
      </trkpt>
      <trkpt lat="47.7077" lon="-3.36006">
        <ele>25.34</ele>
        <time>2022-06-14T13:45:02Z</time>
      </trkpt>
      <trkpt lat="47.70773" lon="-3.36016">
        <ele>25.31</ele>
        <time>2022-06-14T13:45:07Z</time>
      </trkpt>
      <trkpt lat="47.70773" lon="-3.36018">
        <ele>25.31</ele>
        <time>2022-06-14T13:45:08Z</time>
      </trkpt>
      <trkpt lat="47.70779" lon="-3.36029">
        <ele>25.31</ele>
        <time>2022-06-14T13:45:13Z</time>
      </trkpt>
      <trkpt lat="47.7078" lon="-3.36031">
        <ele>25.29</ele>
        <time>2022-06-14T13:45:14Z</time>
      </trkpt>
      <trkpt lat="47.70799" lon="-3.36044">
        <ele>25.14</ele>
        <time>2022-06-14T13:45:26Z</time>
      </trkpt>
      <trkpt lat="47.708" lon="-3.36044">
        <ele>25.1</ele>
        <time>2022-06-14T13:45:27Z</time>
      </trkpt>
      <trkpt lat="47.70809" lon="-3.36052">
        <ele>24.81</ele>
        <time>2022-06-14T13:45:35Z</time>
      </trkpt>
      <trkpt lat="47.7081" lon="-3.36054">
        <ele>24.77</ele>
        <time>2022-06-14T13:45:36Z</time>
      </trkpt>
      <trkpt lat="47.7081" lon="-3.36056">
        <ele>24.73</ele>
        <time>2022-06-14T13:45:37Z</time>
      </trkpt>
      <trkpt lat="47.70811" lon="-3.36057">
        <ele>24.71</ele>
        <time>2022-06-14T13:45:38Z</time>
      </trkpt>
      <trkpt lat="47.7082" lon="-3.36079">
        <ele>24.41</ele>
        <time>2022-06-14T13:45:51Z</time>
      </trkpt>
      <trkpt lat="47.7082" lon="-3.36083">
        <ele>24.38</ele>
        <time>2022-06-14T13:45:53Z</time>
      </trkpt>
      <trkpt lat="47.7082" lon="-3.36086">
        <ele>24.37</ele>
        <time>2022-06-14T13:45:55Z</time>
      </trkpt>
      <trkpt lat="47.70816" lon="-3.36095">
        <ele>24.39</ele>
        <time>2022-06-14T13:46:05Z</time>
      </trkpt>
      <trkpt lat="47.70813" lon="-3.36099">
        <ele>24.6</ele>
        <time>2022-06-14T13:46:18Z</time>
      </trkpt>
      <trkpt lat="47.70807" lon="-3.36114">
        <ele>24.67</ele>
        <time>2022-06-14T13:46:33Z</time>
      </trkpt>
      <trkpt lat="47.70808" lon="-3.36114">
        <ele>24.51</ele>
        <time>2022-06-14T13:46:51Z</time>
      </trkpt>
      <trkpt lat="47.70809" lon="-3.36103">
        <ele>24.51</ele>
        <time>2022-06-14T13:47:08Z</time>
      </trkpt>
      <trkpt lat="47.70816" lon="-3.36097">
        <ele>24.39</ele>
        <time>2022-06-14T13:47:20Z</time>
      </trkpt>
      <trkpt lat="47.70827" lon="-3.36102">
        <ele>24.44</ele>
        <time>2022-06-14T13:47:34Z</time>
      </trkpt>
      <trkpt lat="47.70835" lon="-3.36123">
        <ele>24.81</ele>
        <time>2022-06-14T13:47:50Z</time>
      </trkpt>
      <trkpt lat="47.70843" lon="-3.3614">
        <ele>24.95</ele>
        <time>2022-06-14T13:48:02Z</time>
      </trkpt>
      <trkpt lat="47.70855" lon="-3.36155">
        <ele>25.17</ele>
        <time>2022-06-14T13:48:14Z</time>
      </trkpt>
      <trkpt lat="47.70863" lon="-3.36163">
        <ele>25.17</ele>
        <time>2022-06-14T13:48:21Z</time>
      </trkpt>
      <trkpt lat="47.70874" lon="-3.36181">
        <ele>25.46</ele>
        <time>2022-06-14T13:48:32Z</time>
      </trkpt>
      <trkpt lat="47.70883" lon="-3.36199">
        <ele>25.97</ele>
        <time>2022-06-14T13:48:45Z</time>
      </trkpt>
      <trkpt lat="47.70895" lon="-3.36214">
        <ele>26.39</ele>
        <time>2022-06-14T13:48:57Z</time>
      </trkpt>
      <trkpt lat="47.70907" lon="-3.36233">
        <ele>27.91</ele>
        <time>2022-06-14T13:49:12Z</time>
      </trkpt>
      <trkpt lat="47.70914" lon="-3.36248">
        <ele>28.47</ele>
        <time>2022-06-14T13:49:25Z</time>
      </trkpt>
      <trkpt lat="47.7092" lon="-3.36256">
        <ele>27.29</ele>
        <time>2022-06-14T13:49:38Z</time>
      </trkpt>
      <trkpt lat="47.70922" lon="-3.36257">
        <ele>27.17</ele>
        <time>2022-06-14T13:49:40Z</time>
      </trkpt>
      <trkpt lat="47.70936" lon="-3.36265">
        <ele>26.87</ele>
        <time>2022-06-14T13:49:52Z</time>
      </trkpt>
      <trkpt lat="47.70939" lon="-3.36264">
        <ele>26.93</ele>
        <time>2022-06-14T13:50:12Z</time>
      </trkpt>
      <trkpt lat="47.70942" lon="-3.36263">
        <ele>27</ele>
        <time>2022-06-14T13:50:24Z</time>
      </trkpt>
      <trkpt lat="47.70941" lon="-3.36261">
        <ele>27.23</ele>
        <time>2022-06-14T13:50:49Z</time>
      </trkpt>
      <trkpt lat="47.7094" lon="-3.36259">
        <ele>27.23</ele>
        <time>2022-06-14T13:51:08Z</time>
      </trkpt>
      <trkpt lat="47.70933" lon="-3.36259">
        <ele>27.36</ele>
        <time>2022-06-14T13:51:30Z</time>
      </trkpt>
      <trkpt lat="47.70931" lon="-3.36262">
        <ele>27.52</ele>
        <time>2022-06-14T13:51:44Z</time>
      </trkpt>
      <trkpt lat="47.70933" lon="-3.36266">
        <ele>27.17</ele>
        <time>2022-06-14T13:52:06Z</time>
      </trkpt>
      <trkpt lat="47.70935" lon="-3.36267">
        <ele>26.94</ele>
        <time>2022-06-14T13:52:30Z</time>
      </trkpt>
      <trkpt lat="47.70932" lon="-3.36265">
        <ele>27.05</ele>
        <time>2022-06-14T13:52:49Z</time>
      </trkpt>
      <trkpt lat="47.70929" lon="-3.36263">
        <ele>27.04</ele>
        <time>2022-06-14T13:52:51Z</time>
      </trkpt>
      <trkpt lat="47.70917" lon="-3.36242">
        <ele>27.27</ele>
        <time>2022-06-14T13:53:07Z</time>
      </trkpt>
      <trkpt lat="47.70911" lon="-3.36224">
        <ele>28.08</ele>
        <time>2022-06-14T13:53:20Z</time>
      </trkpt>
      <trkpt lat="47.70908" lon="-3.362">
        <ele>27.88</ele>
        <time>2022-06-14T13:53:33Z</time>
      </trkpt>
      <trkpt lat="47.70907" lon="-3.36179">
        <ele>27.91</ele>
        <time>2022-06-14T13:53:45Z</time>
      </trkpt>
      <trkpt lat="47.70908" lon="-3.36156">
        <ele>28.19</ele>
        <time>2022-06-14T13:53:58Z</time>
      </trkpt>
      <trkpt lat="47.70909" lon="-3.36153">
        <ele>28.33</ele>
        <time>2022-06-14T13:54:02Z</time>
      </trkpt>
      <trkpt lat="47.70915" lon="-3.36154">
        <ele>28.41</ele>
        <time>2022-06-14T13:54:07Z</time>
      </trkpt>
      <trkpt lat="47.70935" lon="-3.36164">
        <ele>28.59</ele>
        <time>2022-06-14T13:54:25Z</time>
      </trkpt>
      <trkpt lat="47.70953" lon="-3.3617">
        <ele>28.66</ele>
        <time>2022-06-14T13:54:40Z</time>
      </trkpt>
      <trkpt lat="47.70976" lon="-3.36163">
        <ele>28.1</ele>
        <time>2022-06-14T13:54:59Z</time>
      </trkpt>
      <trkpt lat="47.70995" lon="-3.36158">
        <ele>28.05</ele>
        <time>2022-06-14T13:55:16Z</time>
      </trkpt>
      <trkpt lat="47.71007" lon="-3.36138">
        <ele>28.11</ele>
        <time>2022-06-14T13:55:31Z</time>
      </trkpt>
      <trkpt lat="47.7101" lon="-3.3613">
        <ele>28.34</ele>
        <time>2022-06-14T13:55:43Z</time>
      </trkpt>
      <trkpt lat="47.71007" lon="-3.36123">
        <ele>28.57</ele>
        <time>2022-06-14T13:56:03Z</time>
      </trkpt>
      <trkpt lat="47.71006" lon="-3.36116">
        <ele>28.29</ele>
        <time>2022-06-14T13:56:08Z</time>
      </trkpt>
      <trkpt lat="47.71001" lon="-3.36092">
        <ele>27.45</ele>
        <time>2022-06-14T13:56:22Z</time>
      </trkpt>
      <trkpt lat="47.70999" lon="-3.36087">
        <ele>27.25</ele>
        <time>2022-06-14T13:56:26Z</time>
      </trkpt>
      <trkpt lat="47.70991" lon="-3.36057">
        <ele>25.24</ele>
        <time>2022-06-14T13:56:41Z</time>
      </trkpt>
      <trkpt lat="47.70982" lon="-3.36034">
        <ele>24.49</ele>
        <time>2022-06-14T13:56:54Z</time>
      </trkpt>
      <trkpt lat="47.70982" lon="-3.36017">
        <ele>24.51</ele>
        <time>2022-06-14T13:57:05Z</time>
      </trkpt>
      <trkpt lat="47.70982" lon="-3.35995">
        <ele>24.53</ele>
        <time>2022-06-14T13:57:16Z</time>
      </trkpt>
      <trkpt lat="47.7098" lon="-3.3599">
        <ele>24.47</ele>
        <time>2022-06-14T13:57:19Z</time>
      </trkpt>
      <trkpt lat="47.70978" lon="-3.35986">
        <ele>24.78</ele>
        <time>2022-06-14T13:57:28Z</time>
      </trkpt>
      <trkpt lat="47.70977" lon="-3.35982">
        <ele>24.95</ele>
        <time>2022-06-14T13:57:31Z</time>
      </trkpt>
      <trkpt lat="47.70967" lon="-3.35959">
        <ele>24.69</ele>
        <time>2022-06-14T13:57:46Z</time>
      </trkpt>
      <trkpt lat="47.70967" lon="-3.35957">
        <ele>24.69</ele>
        <time>2022-06-14T13:57:47Z</time>
      </trkpt>
      <trkpt lat="47.70963" lon="-3.35952">
        <ele>24.69</ele>
        <time>2022-06-14T13:57:51Z</time>
      </trkpt>
      <trkpt lat="47.70959" lon="-3.35931">
        <ele>24.67</ele>
        <time>2022-06-14T13:58:05Z</time>
      </trkpt>
      <trkpt lat="47.7096" lon="-3.35929">
        <ele>24.71</ele>
        <time>2022-06-14T13:58:06Z</time>
      </trkpt>
      <trkpt lat="47.70969" lon="-3.35911">
        <ele>24.67</ele>
        <time>2022-06-14T13:58:17Z</time>
      </trkpt>
      <trkpt lat="47.70974" lon="-3.35902">
        <ele>24.81</ele>
        <time>2022-06-14T13:58:27Z</time>
      </trkpt>
      <trkpt lat="47.70977" lon="-3.35897">
        <ele>24.81</ele>
        <time>2022-06-14T13:58:31Z</time>
      </trkpt>
      <trkpt lat="47.70978" lon="-3.35895">
        <ele>24.81</ele>
        <time>2022-06-14T13:58:32Z</time>
      </trkpt>
      <trkpt lat="47.70979" lon="-3.35892">
        <ele>24.81</ele>
        <time>2022-06-14T13:58:34Z</time>
      </trkpt>
      <trkpt lat="47.70982" lon="-3.35888">
        <ele>25.06</ele>
        <time>2022-06-14T13:58:37Z</time>
      </trkpt>
      <trkpt lat="47.70994" lon="-3.35868">
        <ele>25.21</ele>
        <time>2022-06-14T13:58:50Z</time>
      </trkpt>
      <trkpt lat="47.70997" lon="-3.35858">
        <ele>25.92</ele>
        <time>2022-06-14T13:59:02Z</time>
      </trkpt>
      <trkpt lat="47.70997" lon="-3.35856">
        <ele>25.98</ele>
        <time>2022-06-14T13:59:03Z</time>
      </trkpt>
      <trkpt lat="47.70999" lon="-3.3585">
        <ele>26.45</ele>
        <time>2022-06-14T13:59:14Z</time>
      </trkpt>
      <trkpt lat="47.71" lon="-3.3585">
        <ele>26.13</ele>
        <time>2022-06-14T13:59:30Z</time>
      </trkpt>
      <trkpt lat="47.71" lon="-3.35842">
        <ele>26.46</ele>
        <time>2022-06-14T14:00:02Z</time>
      </trkpt>
      <trkpt lat="47.71" lon="-3.35839">
        <ele>26.6</ele>
        <time>2022-06-14T14:00:04Z</time>
      </trkpt>
      <trkpt lat="47.71011" lon="-3.35825">
        <ele>27.22</ele>
        <time>2022-06-14T14:00:15Z</time>
      </trkpt>
      <trkpt lat="47.71021" lon="-3.3581">
        <ele>27.2</ele>
        <time>2022-06-14T14:00:27Z</time>
      </trkpt>
      <trkpt lat="47.71037" lon="-3.35793">
        <ele>27.75</ele>
        <time>2022-06-14T14:00:40Z</time>
      </trkpt>
      <trkpt lat="47.71041" lon="-3.35789">
        <ele>27.77</ele>
        <time>2022-06-14T14:00:44Z</time>
      </trkpt>
      <trkpt lat="47.71053" lon="-3.35781">
        <ele>27.86</ele>
        <time>2022-06-14T14:00:56Z</time>
      </trkpt>
      <trkpt lat="47.71067" lon="-3.35772">
        <ele>27.84</ele>
        <time>2022-06-14T14:01:07Z</time>
      </trkpt>
      <trkpt lat="47.71068" lon="-3.35771">
        <ele>27.88</ele>
        <time>2022-06-14T14:01:08Z</time>
      </trkpt>
      <trkpt lat="47.71069" lon="-3.3577">
        <ele>27.89</ele>
        <time>2022-06-14T14:01:09Z</time>
      </trkpt>
      <trkpt lat="47.71077" lon="-3.35757">
        <ele>27.7</ele>
        <time>2022-06-14T14:01:21Z</time>
      </trkpt>
      <trkpt lat="47.71084" lon="-3.35739">
        <ele>27.35</ele>
        <time>2022-06-14T14:01:32Z</time>
      </trkpt>
      <trkpt lat="47.71086" lon="-3.35731">
        <ele>26.98</ele>
        <time>2022-06-14T14:01:37Z</time>
      </trkpt>
      <trkpt lat="47.71086" lon="-3.3573">
        <ele>26.9</ele>
        <time>2022-06-14T14:01:38Z</time>
      </trkpt>
      <trkpt lat="47.71086" lon="-3.35728">
        <ele>26.81</ele>
        <time>2022-06-14T14:01:39Z</time>
      </trkpt>
      <trkpt lat="47.71086" lon="-3.35726">
        <ele>26.73</ele>
        <time>2022-06-14T14:01:40Z</time>
      </trkpt>
      <trkpt lat="47.71087" lon="-3.35724">
        <ele>26.65</ele>
        <time>2022-06-14T14:01:41Z</time>
      </trkpt>
      <trkpt lat="47.71087" lon="-3.35722">
        <ele>26.61</ele>
        <time>2022-06-14T14:01:42Z</time>
      </trkpt>
      <trkpt lat="47.71087" lon="-3.35721">
        <ele>26.57</ele>
        <time>2022-06-14T14:01:43Z</time>
      </trkpt>
      <trkpt lat="47.71086" lon="-3.3572">
        <ele>26.5</ele>
        <time>2022-06-14T14:01:44Z</time>
      </trkpt>
      <trkpt lat="47.71087" lon="-3.35717">
        <ele>26.34</ele>
        <time>2022-06-14T14:01:46Z</time>
      </trkpt>
      <trkpt lat="47.71086" lon="-3.35716">
        <ele>26.26</ele>
        <time>2022-06-14T14:01:47Z</time>
      </trkpt>
      <trkpt lat="47.71086" lon="-3.35714">
        <ele>26.18</ele>
        <time>2022-06-14T14:01:48Z</time>
      </trkpt>
      <trkpt lat="47.71086" lon="-3.35699">
        <ele>25.55</ele>
        <time>2022-06-14T14:01:57Z</time>
      </trkpt>
      <trkpt lat="47.71086" lon="-3.35697">
        <ele>25.48</ele>
        <time>2022-06-14T14:01:58Z</time>
      </trkpt>
      <trkpt lat="47.71089" lon="-3.35692">
        <ele>25.23</ele>
        <time>2022-06-14T14:02:02Z</time>
      </trkpt>
      <trkpt lat="47.71101" lon="-3.3569">
        <ele>25.27</ele>
        <time>2022-06-14T14:02:12Z</time>
      </trkpt>
      <trkpt lat="47.71102" lon="-3.3569">
        <ele>25.24</ele>
        <time>2022-06-14T14:02:13Z</time>
      </trkpt>
      <trkpt lat="47.71109" lon="-3.35686">
        <ele>25.09</ele>
        <time>2022-06-14T14:02:17Z</time>
      </trkpt>
      <trkpt lat="47.7111" lon="-3.35684">
        <ele>25.07</ele>
        <time>2022-06-14T14:02:18Z</time>
      </trkpt>
      <trkpt lat="47.71116" lon="-3.35676">
        <ele>24.98</ele>
        <time>2022-06-14T14:02:25Z</time>
      </trkpt>
      <trkpt lat="47.71117" lon="-3.35675">
        <ele>24.99</ele>
        <time>2022-06-14T14:02:26Z</time>
      </trkpt>
      <trkpt lat="47.71118" lon="-3.35673">
        <ele>25</ele>
        <time>2022-06-14T14:02:27Z</time>
      </trkpt>
      <trkpt lat="47.71119" lon="-3.35672">
        <ele>25.02</ele>
        <time>2022-06-14T14:02:28Z</time>
      </trkpt>
      <trkpt lat="47.71121" lon="-3.3567">
        <ele>25.05</ele>
        <time>2022-06-14T14:02:29Z</time>
      </trkpt>
      <trkpt lat="47.71133" lon="-3.35663">
        <ele>25.45</ele>
        <time>2022-06-14T14:02:40Z</time>
      </trkpt>
      <trkpt lat="47.71139" lon="-3.35657">
        <ele>25.19</ele>
        <time>2022-06-14T14:02:46Z</time>
      </trkpt>
      <trkpt lat="47.71141" lon="-3.35655">
        <ele>25.1</ele>
        <time>2022-06-14T14:02:48Z</time>
      </trkpt>
      <trkpt lat="47.71142" lon="-3.35655">
        <ele>25.06</ele>
        <time>2022-06-14T14:02:49Z</time>
      </trkpt>
      <trkpt lat="47.71148" lon="-3.35651">
        <ele>24.81</ele>
        <time>2022-06-14T14:03:01Z</time>
      </trkpt>
      <trkpt lat="47.71148" lon="-3.3565">
        <ele>25.18</ele>
        <time>2022-06-14T14:03:14Z</time>
      </trkpt>
      <trkpt lat="47.71143" lon="-3.35655">
        <ele>25.4</ele>
        <time>2022-06-14T14:03:28Z</time>
      </trkpt>
      <trkpt lat="47.71137" lon="-3.35664">
        <ele>25.46</ele>
        <time>2022-06-14T14:03:42Z</time>
      </trkpt>
      <trkpt lat="47.71138" lon="-3.35668">
        <ele>26.01</ele>
        <time>2022-06-14T14:03:57Z</time>
      </trkpt>
      <trkpt lat="47.71123" lon="-3.35655">
        <ele>26.16</ele>
        <time>2022-06-14T14:04:45Z</time>
      </trkpt>
      <trkpt lat="47.71133" lon="-3.35653">
        <ele>26.14</ele>
        <time>2022-06-14T14:05:03Z</time>
      </trkpt>
      <trkpt lat="47.71136" lon="-3.35656">
        <ele>26.14</ele>
        <time>2022-06-14T14:05:22Z</time>
      </trkpt>
      <trkpt lat="47.71133" lon="-3.35649">
        <ele>26.14</ele>
        <time>2022-06-14T14:05:45Z</time>
      </trkpt>
      <trkpt lat="47.71133" lon="-3.35652">
        <ele>26.14</ele>
        <time>2022-06-14T14:06:08Z</time>
      </trkpt>
      <trkpt lat="47.71135" lon="-3.35654">
        <ele>26.14</ele>
        <time>2022-06-14T14:06:31Z</time>
      </trkpt>
      <trkpt lat="47.71136" lon="-3.35657">
        <ele>26.14</ele>
        <time>2022-06-14T14:06:54Z</time>
      </trkpt>
      <trkpt lat="47.71135" lon="-3.35657">
        <ele>26.14</ele>
        <time>2022-06-14T14:07:14Z</time>
      </trkpt>
      <trkpt lat="47.71137" lon="-3.35656">
        <ele>26.14</ele>
        <time>2022-06-14T14:07:33Z</time>
      </trkpt>
      <trkpt lat="47.71138" lon="-3.35652">
        <ele>26.14</ele>
        <time>2022-06-14T14:07:49Z</time>
      </trkpt>
      <trkpt lat="47.7114" lon="-3.35651">
        <ele>26.14</ele>
        <time>2022-06-14T14:08:12Z</time>
      </trkpt>
      <trkpt lat="47.71141" lon="-3.35651">
        <ele>26.14</ele>
        <time>2022-06-14T14:08:39Z</time>
      </trkpt>
      <trkpt lat="47.71144" lon="-3.35653">
        <ele>26.14</ele>
        <time>2022-06-14T14:09:04Z</time>
      </trkpt>
      <trkpt lat="47.71149" lon="-3.35651">
        <ele>26.02</ele>
        <time>2022-06-14T14:09:08Z</time>
      </trkpt>
      <trkpt lat="47.71156" lon="-3.35641">
        <ele>25.76</ele>
        <time>2022-06-14T14:09:22Z</time>
      </trkpt>
      <trkpt lat="47.71159" lon="-3.35633">
        <ele>25.7</ele>
        <time>2022-06-14T14:09:38Z</time>
      </trkpt>
      <trkpt lat="47.7116" lon="-3.35635">
        <ele>25.51</ele>
        <time>2022-06-14T14:10:04Z</time>
      </trkpt>
      <trkpt lat="47.7116" lon="-3.35637">
        <ele>25.39</ele>
        <time>2022-06-14T14:10:25Z</time>
      </trkpt>
      <trkpt lat="47.71161" lon="-3.35638">
        <ele>25.39</ele>
        <time>2022-06-14T14:10:54Z</time>
      </trkpt>
      <trkpt lat="47.71161" lon="-3.35636">
        <ele>25.39</ele>
        <time>2022-06-14T14:11:19Z</time>
      </trkpt>
      <trkpt lat="47.71162" lon="-3.35635">
        <ele>25.39</ele>
        <time>2022-06-14T14:11:47Z</time>
      </trkpt>
      <trkpt lat="47.71161" lon="-3.35633">
        <ele>25.39</ele>
        <time>2022-06-14T14:12:13Z</time>
      </trkpt>
      <trkpt lat="47.7116" lon="-3.35624">
        <ele>25.41</ele>
        <time>2022-06-14T14:12:25Z</time>
      </trkpt>
      <trkpt lat="47.71161" lon="-3.35623">
        <ele>25.41</ele>
        <time>2022-06-14T14:12:26Z</time>
      </trkpt>
      <trkpt lat="47.71172" lon="-3.35604">
        <ele>25.01</ele>
        <time>2022-06-14T14:12:41Z</time>
      </trkpt>
      <trkpt lat="47.71174" lon="-3.35598">
        <ele>24.75</ele>
        <time>2022-06-14T14:12:56Z</time>
      </trkpt>
      <trkpt lat="47.71177" lon="-3.35592">
        <ele>25.4</ele>
        <time>2022-06-14T14:13:11Z</time>
      </trkpt>
      <trkpt lat="47.71179" lon="-3.35583">
        <ele>25.85</ele>
        <time>2022-06-14T14:13:24Z</time>
      </trkpt>
      <trkpt lat="47.71179" lon="-3.3558">
        <ele>25.4</ele>
        <time>2022-06-14T14:13:40Z</time>
      </trkpt>
      <trkpt lat="47.71181" lon="-3.35577">
        <ele>25.22</ele>
        <time>2022-06-14T14:14:23Z</time>
      </trkpt>
      <trkpt lat="47.71181" lon="-3.35576">
        <ele>25.2</ele>
        <time>2022-06-14T14:14:59Z</time>
      </trkpt>
      <trkpt lat="47.71181" lon="-3.35574">
        <ele>25.2</ele>
        <time>2022-06-14T14:15:43Z</time>
      </trkpt>
      <trkpt lat="47.71182" lon="-3.35574">
        <ele>25.2</ele>
        <time>2022-06-14T14:16:25Z</time>
      </trkpt>
      <trkpt lat="47.71188" lon="-3.35577">
        <ele>25.2</ele>
        <time>2022-06-14T14:16:59Z</time>
      </trkpt>
      <trkpt lat="47.71207" lon="-3.35555">
        <ele>25.62</ele>
        <time>2022-06-14T14:17:14Z</time>
      </trkpt>
      <trkpt lat="47.71207" lon="-3.35553">
        <ele>25.66</ele>
        <time>2022-06-14T14:17:15Z</time>
      </trkpt>
      <trkpt lat="47.71206" lon="-3.3555">
        <ele>25.76</ele>
        <time>2022-06-14T14:17:17Z</time>
      </trkpt>
      <trkpt lat="47.71202" lon="-3.3556">
        <ele>26.34</ele>
        <time>2022-06-14T14:17:26Z</time>
      </trkpt>
      <trkpt lat="47.71203" lon="-3.35562">
        <ele>26.35</ele>
        <time>2022-06-14T14:17:27Z</time>
      </trkpt>
      <trkpt lat="47.71238" lon="-3.3561">
        <ele>26.3</ele>
        <time>2022-06-14T14:17:41Z</time>
      </trkpt>
      <trkpt lat="47.71293" lon="-3.35693">
        <ele>26.25</ele>
        <time>2022-06-14T14:18:00Z</time>
      </trkpt>
      <trkpt lat="47.71312" lon="-3.35766">
        <ele>26.3</ele>
        <time>2022-06-14T14:18:13Z</time>
      </trkpt>
      <trkpt lat="47.7135" lon="-3.35918">
        <ele>26.62</ele>
        <time>2022-06-14T14:18:39Z</time>
      </trkpt>
      <trkpt lat="47.71395" lon="-3.36095">
        <ele>26.64</ele>
        <time>2022-06-14T14:19:11Z</time>
      </trkpt>
      <trkpt lat="47.71439" lon="-3.36179">
        <ele>26.57</ele>
        <time>2022-06-14T14:19:29Z</time>
      </trkpt>
      <trkpt lat="47.71505" lon="-3.3624">
        <ele>26.33</ele>
        <time>2022-06-14T14:19:48Z</time>
      </trkpt>
      <trkpt lat="47.7159" lon="-3.36277">
        <ele>26</ele>
        <time>2022-06-14T14:20:09Z</time>
      </trkpt>
      <trkpt lat="47.71688" lon="-3.36306">
        <ele>25.92</ele>
        <time>2022-06-14T14:20:31Z</time>
      </trkpt>
      <trkpt lat="47.71788" lon="-3.36338">
        <ele>25.94</ele>
        <time>2022-06-14T14:20:53Z</time>
      </trkpt>
      <trkpt lat="47.71903" lon="-3.36383">
        <ele>25.93</ele>
        <time>2022-06-14T14:21:21Z</time>
      </trkpt>
      <trkpt lat="47.71978" lon="-3.36401">
        <ele>25.96</ele>
        <time>2022-06-14T14:21:39Z</time>
      </trkpt>
      <trkpt lat="47.72167" lon="-3.36451">
        <ele>25.92</ele>
        <time>2022-06-14T14:22:24Z</time>
      </trkpt>
      <trkpt lat="47.72238" lon="-3.36455">
        <ele>26.01</ele>
        <time>2022-06-14T14:22:41Z</time>
      </trkpt>
      <trkpt lat="47.72299" lon="-3.36433">
        <ele>26.01</ele>
        <time>2022-06-14T14:22:56Z</time>
      </trkpt>
      <trkpt lat="47.72389" lon="-3.36372">
        <ele>25.87</ele>
        <time>2022-06-14T14:23:20Z</time>
      </trkpt>
      <trkpt lat="47.72446" lon="-3.36321">
        <ele>25.69</ele>
        <time>2022-06-14T14:23:36Z</time>
      </trkpt>
      <trkpt lat="47.72525" lon="-3.36266">
        <ele>25.55</ele>
        <time>2022-06-14T14:23:57Z</time>
      </trkpt>
      <trkpt lat="47.72614" lon="-3.36207">
        <ele>25.34</ele>
        <time>2022-06-14T14:24:20Z</time>
      </trkpt>
      <trkpt lat="47.72682" lon="-3.36162">
        <ele>25.38</ele>
        <time>2022-06-14T14:24:39Z</time>
      </trkpt>
      <trkpt lat="47.72733" lon="-3.36127">
        <ele>25.29</ele>
        <time>2022-06-14T14:24:57Z</time>
      </trkpt>
      <trkpt lat="47.72784" lon="-3.36082">
        <ele>25.28</ele>
        <time>2022-06-14T14:25:15Z</time>
      </trkpt>
      <trkpt lat="47.72828" lon="-3.36045">
        <ele>25.31</ele>
        <time>2022-06-14T14:25:34Z</time>
      </trkpt>
      <trkpt lat="47.72872" lon="-3.36009">
        <ele>25.33</ele>
        <time>2022-06-14T14:25:55Z</time>
      </trkpt>
      <trkpt lat="47.72899" lon="-3.35978">
        <ele>25.57</ele>
        <time>2022-06-14T14:26:15Z</time>
      </trkpt>
      <trkpt lat="47.72917" lon="-3.35964">
        <ele>25.89</ele>
        <time>2022-06-14T14:26:32Z</time>
      </trkpt>
      <trkpt lat="47.72925" lon="-3.35959">
        <ele>26.48</ele>
        <time>2022-06-14T14:26:43Z</time>
      </trkpt>
      <trkpt lat="47.7293" lon="-3.35957">
        <ele>26.27</ele>
        <time>2022-06-14T14:26:53Z</time>
      </trkpt>
      <trkpt lat="47.72931" lon="-3.35957">
        <ele>26.41</ele>
        <time>2022-06-14T14:27:09Z</time>
      </trkpt>
      <trkpt lat="47.72933" lon="-3.3596">
        <ele>26.43</ele>
        <time>2022-06-14T14:27:22Z</time>
      </trkpt>
      <trkpt lat="47.72938" lon="-3.35956">
        <ele>26.15</ele>
        <time>2022-06-14T14:27:34Z</time>
      </trkpt>
      <trkpt lat="47.72947" lon="-3.35949">
        <ele>26.66</ele>
        <time>2022-06-14T14:27:45Z</time>
      </trkpt>
      <trkpt lat="47.7295" lon="-3.35953">
        <ele>27.04</ele>
        <time>2022-06-14T14:27:51Z</time>
      </trkpt>
      <trkpt lat="47.72961" lon="-3.35961">
        <ele>27.01</ele>
        <time>2022-06-14T14:28:04Z</time>
      </trkpt>
      <trkpt lat="47.72974" lon="-3.35974">
        <ele>27.08</ele>
        <time>2022-06-14T14:28:18Z</time>
      </trkpt>
      <trkpt lat="47.72984" lon="-3.35989">
        <ele>27.11</ele>
        <time>2022-06-14T14:28:31Z</time>
      </trkpt>
      <trkpt lat="47.72998" lon="-3.36">
        <ele>26.97</ele>
        <time>2022-06-14T14:28:44Z</time>
      </trkpt>
      <trkpt lat="47.73011" lon="-3.36002">
        <ele>26.85</ele>
        <time>2022-06-14T14:28:56Z</time>
      </trkpt>
      <trkpt lat="47.73024" lon="-3.36">
        <ele>27.12</ele>
        <time>2022-06-14T14:29:09Z</time>
      </trkpt>
      <trkpt lat="47.73026" lon="-3.36">
        <ele>27.13</ele>
        <time>2022-06-14T14:29:12Z</time>
      </trkpt>
      <trkpt lat="47.73029" lon="-3.36">
        <ele>27.11</ele>
        <time>2022-06-14T14:29:14Z</time>
      </trkpt>
      <trkpt lat="47.7303" lon="-3.36">
        <ele>27.08</ele>
        <time>2022-06-14T14:29:15Z</time>
      </trkpt>
      <trkpt lat="47.73044" lon="-3.35996">
        <ele>27.15</ele>
        <time>2022-06-14T14:29:27Z</time>
      </trkpt>
      <trkpt lat="47.73057" lon="-3.35984">
        <ele>27.39</ele>
        <time>2022-06-14T14:29:40Z</time>
      </trkpt>
      <trkpt lat="47.73061" lon="-3.35974">
        <ele>27.67</ele>
        <time>2022-06-14T14:29:54Z</time>
      </trkpt>
      <trkpt lat="47.73062" lon="-3.35975">
        <ele>27.71</ele>
        <time>2022-06-14T14:30:04Z</time>
      </trkpt>
      <trkpt lat="47.73063" lon="-3.35976">
        <ele>28.24</ele>
        <time>2022-06-14T14:30:19Z</time>
      </trkpt>
      <trkpt lat="47.73064" lon="-3.35976">
        <ele>28.19</ele>
        <time>2022-06-14T14:30:44Z</time>
      </trkpt>
      <trkpt lat="47.73063" lon="-3.35977">
        <ele>27.45</ele>
        <time>2022-06-14T14:31:01Z</time>
      </trkpt>
      <trkpt lat="47.73062" lon="-3.35976">
        <ele>27.45</ele>
        <time>2022-06-14T14:31:17Z</time>
      </trkpt>
      <trkpt lat="47.73055" lon="-3.35982">
        <ele>27.45</ele>
        <time>2022-06-14T14:31:20Z</time>
      </trkpt>
      <trkpt lat="47.73027" lon="-3.36013">
        <ele>28</ele>
        <time>2022-06-14T14:31:29Z</time>
      </trkpt>
      <trkpt lat="47.73024" lon="-3.36027">
        <ele>27.86</ele>
        <time>2022-06-14T14:31:32Z</time>
      </trkpt>
      <trkpt lat="47.73023" lon="-3.3603">
        <ele>27.82</ele>
        <time>2022-06-14T14:31:33Z</time>
      </trkpt>
      <trkpt lat="47.73028" lon="-3.36078">
        <ele>27.96</ele>
        <time>2022-06-14T14:31:41Z</time>
      </trkpt>
      <trkpt lat="47.73037" lon="-3.36162">
        <ele>28.92</ele>
        <time>2022-06-14T14:31:51Z</time>
      </trkpt>
      <trkpt lat="47.73048" lon="-3.36228">
        <ele>29.6</ele>
        <time>2022-06-14T14:32:01Z</time>
      </trkpt>
      <trkpt lat="47.73051" lon="-3.36233">
        <ele>29.64</ele>
        <time>2022-06-14T14:32:02Z</time>
      </trkpt>
      <trkpt lat="47.73056" lon="-3.36237">
        <ele>29.69</ele>
        <time>2022-06-14T14:32:03Z</time>
      </trkpt>
      <trkpt lat="47.73061" lon="-3.36241">
        <ele>29.75</ele>
        <time>2022-06-14T14:32:04Z</time>
      </trkpt>
      <trkpt lat="47.73116" lon="-3.36281">
        <ele>31.33</ele>
        <time>2022-06-14T14:32:14Z</time>
      </trkpt>
      <trkpt lat="47.7312" lon="-3.36283">
        <ele>31.46</ele>
        <time>2022-06-14T14:32:15Z</time>
      </trkpt>
      <trkpt lat="47.73125" lon="-3.36285">
        <ele>31.57</ele>
        <time>2022-06-14T14:32:16Z</time>
      </trkpt>
      <trkpt lat="47.73166" lon="-3.36314">
        <ele>33.03</ele>
        <time>2022-06-14T14:32:25Z</time>
      </trkpt>
      <trkpt lat="47.73211" lon="-3.3635">
        <ele>33.73</ele>
        <time>2022-06-14T14:32:34Z</time>
      </trkpt>
      <trkpt lat="47.73284" lon="-3.36404">
        <ele>33.71</ele>
        <time>2022-06-14T14:32:45Z</time>
      </trkpt>
      <trkpt lat="47.73351" lon="-3.36453">
        <ele>33.42</ele>
        <time>2022-06-14T14:32:55Z</time>
      </trkpt>
      <trkpt lat="47.73424" lon="-3.36512">
        <ele>32.73</ele>
        <time>2022-06-14T14:33:05Z</time>
      </trkpt>
      <trkpt lat="47.73501" lon="-3.36578">
        <ele>32.57</ele>
        <time>2022-06-14T14:33:16Z</time>
      </trkpt>
      <trkpt lat="47.73524" lon="-3.36596">
        <ele>32.76</ele>
        <time>2022-06-14T14:33:23Z</time>
      </trkpt>
      <trkpt lat="47.73529" lon="-3.36601">
        <ele>32.91</ele>
        <time>2022-06-14T14:33:34Z</time>
      </trkpt>
      <trkpt lat="47.73547" lon="-3.36609">
        <ele>33.19</ele>
        <time>2022-06-14T14:33:39Z</time>
      </trkpt>
      <trkpt lat="47.73551" lon="-3.36606">
        <ele>33.33</ele>
        <time>2022-06-14T14:33:40Z</time>
      </trkpt>
      <trkpt lat="47.73554" lon="-3.366">
        <ele>33.49</ele>
        <time>2022-06-14T14:33:41Z</time>
      </trkpt>
      <trkpt lat="47.73557" lon="-3.36593">
        <ele>33.66</ele>
        <time>2022-06-14T14:33:42Z</time>
      </trkpt>
      <trkpt lat="47.73559" lon="-3.36584">
        <ele>33.82</ele>
        <time>2022-06-14T14:33:43Z</time>
      </trkpt>
      <trkpt lat="47.73568" lon="-3.36561">
        <ele>33.97</ele>
        <time>2022-06-14T14:33:46Z</time>
      </trkpt>
      <trkpt lat="47.73582" lon="-3.36522">
        <ele>32.9</ele>
        <time>2022-06-14T14:33:51Z</time>
      </trkpt>
      <trkpt lat="47.73586" lon="-3.36515">
        <ele>32.64</ele>
        <time>2022-06-14T14:33:52Z</time>
      </trkpt>
      <trkpt lat="47.73589" lon="-3.36509">
        <ele>32.4</ele>
        <time>2022-06-14T14:33:53Z</time>
      </trkpt>
      <trkpt lat="47.73594" lon="-3.36504">
        <ele>32.16</ele>
        <time>2022-06-14T14:33:54Z</time>
      </trkpt>
      <trkpt lat="47.73599" lon="-3.36502">
        <ele>31.9</ele>
        <time>2022-06-14T14:33:55Z</time>
      </trkpt>
      <trkpt lat="47.73605" lon="-3.36503">
        <ele>31.64</ele>
        <time>2022-06-14T14:33:56Z</time>
      </trkpt>
      <trkpt lat="47.7361" lon="-3.36503">
        <ele>31.13</ele>
        <time>2022-06-14T14:33:57Z</time>
      </trkpt>
      <trkpt lat="47.73616" lon="-3.36503">
        <ele>30.89</ele>
        <time>2022-06-14T14:33:58Z</time>
      </trkpt>
      <trkpt lat="47.73621" lon="-3.36501">
        <ele>30.74</ele>
        <time>2022-06-14T14:33:59Z</time>
      </trkpt>
      <trkpt lat="47.73626" lon="-3.36497">
        <ele>30.66</ele>
        <time>2022-06-14T14:34:00Z</time>
      </trkpt>
      <trkpt lat="47.73632" lon="-3.3649">
        <ele>30.63</ele>
        <time>2022-06-14T14:34:01Z</time>
      </trkpt>
      <trkpt lat="47.73639" lon="-3.36481">
        <ele>30.65</ele>
        <time>2022-06-14T14:34:02Z</time>
      </trkpt>
      <trkpt lat="47.73716" lon="-3.36378">
        <ele>31.76</ele>
        <time>2022-06-14T14:34:13Z</time>
      </trkpt>
      <trkpt lat="47.7374" lon="-3.36344">
        <ele>31.3</ele>
        <time>2022-06-14T14:34:17Z</time>
      </trkpt>
      <trkpt lat="47.73745" lon="-3.36334">
        <ele>31.24</ele>
        <time>2022-06-14T14:34:18Z</time>
      </trkpt>
      <trkpt lat="47.73769" lon="-3.36282">
        <ele>31.08</ele>
        <time>2022-06-14T14:34:25Z</time>
      </trkpt>
      <trkpt lat="47.73773" lon="-3.36279">
        <ele>31.02</ele>
        <time>2022-06-14T14:34:26Z</time>
      </trkpt>
      <trkpt lat="47.73777" lon="-3.36277">
        <ele>30.91</ele>
        <time>2022-06-14T14:34:27Z</time>
      </trkpt>
      <trkpt lat="47.7378" lon="-3.36277">
        <ele>30.78</ele>
        <time>2022-06-14T14:34:28Z</time>
      </trkpt>
      <trkpt lat="47.73785" lon="-3.36277">
        <ele>30.63</ele>
        <time>2022-06-14T14:34:29Z</time>
      </trkpt>
      <trkpt lat="47.73793" lon="-3.36278">
        <ele>30.29</ele>
        <time>2022-06-14T14:34:31Z</time>
      </trkpt>
      <trkpt lat="47.73799" lon="-3.36275">
        <ele>30.17</ele>
        <time>2022-06-14T14:34:32Z</time>
      </trkpt>
      <trkpt lat="47.73805" lon="-3.36271">
        <ele>30.11</ele>
        <time>2022-06-14T14:34:33Z</time>
      </trkpt>
      <trkpt lat="47.73811" lon="-3.36265">
        <ele>30.08</ele>
        <time>2022-06-14T14:34:34Z</time>
      </trkpt>
      <trkpt lat="47.73818" lon="-3.36257">
        <ele>30.06</ele>
        <time>2022-06-14T14:34:35Z</time>
      </trkpt>
      <trkpt lat="47.73882" lon="-3.36169">
        <ele>30.66</ele>
        <time>2022-06-14T14:34:44Z</time>
      </trkpt>
      <trkpt lat="47.73964" lon="-3.36064">
        <ele>30.98</ele>
        <time>2022-06-14T14:34:55Z</time>
      </trkpt>
      <trkpt lat="47.73972" lon="-3.3606">
        <ele>30.94</ele>
        <time>2022-06-14T14:34:56Z</time>
      </trkpt>
      <trkpt lat="47.74036" lon="-3.3603">
        <ele>30.85</ele>
        <time>2022-06-14T14:35:04Z</time>
      </trkpt>
      <trkpt lat="47.74045" lon="-3.36023">
        <ele>30.86</ele>
        <time>2022-06-14T14:35:05Z</time>
      </trkpt>
      <trkpt lat="47.74052" lon="-3.36015">
        <ele>30.87</ele>
        <time>2022-06-14T14:35:06Z</time>
      </trkpt>
      <trkpt lat="47.74059" lon="-3.36005">
        <ele>30.9</ele>
        <time>2022-06-14T14:35:07Z</time>
      </trkpt>
      <trkpt lat="47.74066" lon="-3.35995">
        <ele>30.94</ele>
        <time>2022-06-14T14:35:08Z</time>
      </trkpt>
      <trkpt lat="47.74072" lon="-3.35984">
        <ele>31</ele>
        <time>2022-06-14T14:35:09Z</time>
      </trkpt>
      <trkpt lat="47.74077" lon="-3.35972">
        <ele>31.08</ele>
        <time>2022-06-14T14:35:10Z</time>
      </trkpt>
      <trkpt lat="47.74082" lon="-3.35959">
        <ele>31.15</ele>
        <time>2022-06-14T14:35:11Z</time>
      </trkpt>
      <trkpt lat="47.74116" lon="-3.35853">
        <ele>31.2</ele>
        <time>2022-06-14T14:35:20Z</time>
      </trkpt>
      <trkpt lat="47.74127" lon="-3.35823">
        <ele>30.11</ele>
        <time>2022-06-14T14:35:25Z</time>
      </trkpt>
      <trkpt lat="47.74127" lon="-3.35817">
        <ele>29.88</ele>
        <time>2022-06-14T14:35:26Z</time>
      </trkpt>
      <trkpt lat="47.74132" lon="-3.35786">
        <ele>29.5</ele>
        <time>2022-06-14T14:35:30Z</time>
      </trkpt>
      <trkpt lat="47.74135" lon="-3.3578">
        <ele>29.48</ele>
        <time>2022-06-14T14:35:31Z</time>
      </trkpt>
      <trkpt lat="47.74138" lon="-3.35775">
        <ele>29.47</ele>
        <time>2022-06-14T14:35:32Z</time>
      </trkpt>
      <trkpt lat="47.74142" lon="-3.35771">
        <ele>29.44</ele>
        <time>2022-06-14T14:35:33Z</time>
      </trkpt>
      <trkpt lat="47.74147" lon="-3.3577">
        <ele>29.37</ele>
        <time>2022-06-14T14:35:34Z</time>
      </trkpt>
      <trkpt lat="47.74151" lon="-3.35769">
        <ele>29.27</ele>
        <time>2022-06-14T14:35:35Z</time>
      </trkpt>
      <trkpt lat="47.74156" lon="-3.35771">
        <ele>29.17</ele>
        <time>2022-06-14T14:35:36Z</time>
      </trkpt>
      <trkpt lat="47.74161" lon="-3.35773">
        <ele>28.97</ele>
        <time>2022-06-14T14:35:37Z</time>
      </trkpt>
      <trkpt lat="47.74165" lon="-3.35778">
        <ele>28.87</ele>
        <time>2022-06-14T14:35:38Z</time>
      </trkpt>
      <trkpt lat="47.74168" lon="-3.35783">
        <ele>28.8</ele>
        <time>2022-06-14T14:35:39Z</time>
      </trkpt>
      <trkpt lat="47.74169" lon="-3.3579">
        <ele>28.74</ele>
        <time>2022-06-14T14:35:40Z</time>
      </trkpt>
      <trkpt lat="47.74171" lon="-3.35797">
        <ele>28.7</ele>
        <time>2022-06-14T14:35:41Z</time>
      </trkpt>
      <trkpt lat="47.74173" lon="-3.35804">
        <ele>28.66</ele>
        <time>2022-06-14T14:35:42Z</time>
      </trkpt>
      <trkpt lat="47.74175" lon="-3.35811">
        <ele>28.64</ele>
        <time>2022-06-14T14:35:43Z</time>
      </trkpt>
      <trkpt lat="47.74178" lon="-3.35817">
        <ele>28.63</ele>
        <time>2022-06-14T14:35:44Z</time>
      </trkpt>
      <trkpt lat="47.74181" lon="-3.35823">
        <ele>28.63</ele>
        <time>2022-06-14T14:35:45Z</time>
      </trkpt>
      <trkpt lat="47.74185" lon="-3.35828">
        <ele>28.63</ele>
        <time>2022-06-14T14:35:46Z</time>
      </trkpt>
      <trkpt lat="47.74189" lon="-3.35832">
        <ele>28.63</ele>
        <time>2022-06-14T14:35:47Z</time>
      </trkpt>
      <trkpt lat="47.74193" lon="-3.35834">
        <ele>28.68</ele>
        <time>2022-06-14T14:35:48Z</time>
      </trkpt>
      <trkpt lat="47.74198" lon="-3.35835">
        <ele>28.75</ele>
        <time>2022-06-14T14:35:49Z</time>
      </trkpt>
      <trkpt lat="47.74202" lon="-3.35835">
        <ele>28.84</ele>
        <time>2022-06-14T14:35:50Z</time>
      </trkpt>
      <trkpt lat="47.74207" lon="-3.35835">
        <ele>28.92</ele>
        <time>2022-06-14T14:35:51Z</time>
      </trkpt>
      <trkpt lat="47.74211" lon="-3.35834">
        <ele>29.01</ele>
        <time>2022-06-14T14:35:52Z</time>
      </trkpt>
      <trkpt lat="47.74216" lon="-3.35832">
        <ele>29.1</ele>
        <time>2022-06-14T14:35:53Z</time>
      </trkpt>
      <trkpt lat="47.7426" lon="-3.35798">
        <ele>28.95</ele>
        <time>2022-06-14T14:36:03Z</time>
      </trkpt>
      <trkpt lat="47.74266" lon="-3.35785">
        <ele>28.26</ele>
        <time>2022-06-14T14:36:11Z</time>
      </trkpt>
      <trkpt lat="47.74269" lon="-3.35782">
        <ele>28.06</ele>
        <time>2022-06-14T14:36:15Z</time>
      </trkpt>
      <trkpt lat="47.74271" lon="-3.3578">
        <ele>28.04</ele>
        <time>2022-06-14T14:36:16Z</time>
      </trkpt>
      <trkpt lat="47.74293" lon="-3.35761">
        <ele>28.22</ele>
        <time>2022-06-14T14:36:22Z</time>
      </trkpt>
      <trkpt lat="47.74337" lon="-3.3573">
        <ele>28.72</ele>
        <time>2022-06-14T14:36:32Z</time>
      </trkpt>
      <trkpt lat="47.74341" lon="-3.35735">
        <ele>28.72</ele>
        <time>2022-06-14T14:36:33Z</time>
      </trkpt>
      <trkpt lat="47.74346" lon="-3.35742">
        <ele>28.68</ele>
        <time>2022-06-14T14:36:34Z</time>
      </trkpt>
      <trkpt lat="47.74349" lon="-3.3575">
        <ele>28.61</ele>
        <time>2022-06-14T14:36:35Z</time>
      </trkpt>
      <trkpt lat="47.74352" lon="-3.35759">
        <ele>28.57</ele>
        <time>2022-06-14T14:36:36Z</time>
      </trkpt>
      <trkpt lat="47.74355" lon="-3.35768">
        <ele>28.56</ele>
        <time>2022-06-14T14:36:37Z</time>
      </trkpt>
      <trkpt lat="47.74385" lon="-3.35844">
        <ele>28.85</ele>
        <time>2022-06-14T14:36:46Z</time>
      </trkpt>
      <trkpt lat="47.74394" lon="-3.35865">
        <ele>28.78</ele>
        <time>2022-06-14T14:36:49Z</time>
      </trkpt>
      <trkpt lat="47.744" lon="-3.35877">
        <ele>28.67</ele>
        <time>2022-06-14T14:36:51Z</time>
      </trkpt>
      <trkpt lat="47.74417" lon="-3.35923">
        <ele>28.42</ele>
        <time>2022-06-14T14:37:02Z</time>
      </trkpt>
      <trkpt lat="47.74419" lon="-3.35932">
        <ele>28.47</ele>
        <time>2022-06-14T14:37:07Z</time>
      </trkpt>
      <trkpt lat="47.74437" lon="-3.35932">
        <ele>28.61</ele>
        <time>2022-06-14T14:37:13Z</time>
      </trkpt>
      <trkpt lat="47.74484" lon="-3.35892">
        <ele>29.44</ele>
        <time>2022-06-14T14:37:22Z</time>
      </trkpt>
      <trkpt lat="47.74519" lon="-3.35857">
        <ele>29.36</ele>
        <time>2022-06-14T14:37:32Z</time>
      </trkpt>
      <trkpt lat="47.74522" lon="-3.35851">
        <ele>28.75</ele>
        <time>2022-06-14T14:37:41Z</time>
      </trkpt>
      <trkpt lat="47.74522" lon="-3.35848">
        <ele>28.75</ele>
        <time>2022-06-14T14:37:43Z</time>
      </trkpt>
      <trkpt lat="47.74522" lon="-3.3584">
        <ele>28.83</ele>
        <time>2022-06-14T14:37:46Z</time>
      </trkpt>
      <trkpt lat="47.74521" lon="-3.35835">
        <ele>28.87</ele>
        <time>2022-06-14T14:37:47Z</time>
      </trkpt>
      <trkpt lat="47.74514" lon="-3.35814">
        <ele>29.07</ele>
        <time>2022-06-14T14:37:55Z</time>
      </trkpt>
      <trkpt lat="47.74501" lon="-3.35785">
        <ele>28.97</ele>
        <time>2022-06-14T14:38:03Z</time>
      </trkpt>
      <trkpt lat="47.74476" lon="-3.35722">
        <ele>29.22</ele>
        <time>2022-06-14T14:38:16Z</time>
      </trkpt>
      <trkpt lat="47.74466" lon="-3.3569">
        <ele>29.13</ele>
        <time>2022-06-14T14:38:25Z</time>
      </trkpt>
      <trkpt lat="47.74452" lon="-3.35656">
        <ele>29.44</ele>
        <time>2022-06-14T14:38:33Z</time>
      </trkpt>
      <trkpt lat="47.74452" lon="-3.35653">
        <ele>29.38</ele>
        <time>2022-06-14T14:38:34Z</time>
      </trkpt>
      <trkpt lat="47.74453" lon="-3.3565">
        <ele>29.28</ele>
        <time>2022-06-14T14:38:35Z</time>
      </trkpt>
      <trkpt lat="47.74454" lon="-3.35649">
        <ele>29.16</ele>
        <time>2022-06-14T14:38:36Z</time>
      </trkpt>
      <trkpt lat="47.74481" lon="-3.35652">
        <ele>29.28</ele>
        <time>2022-06-14T14:38:44Z</time>
      </trkpt>
      <trkpt lat="47.74506" lon="-3.35645">
        <ele>30.93</ele>
        <time>2022-06-14T14:38:53Z</time>
      </trkpt>
      <trkpt lat="47.74507" lon="-3.35647">
        <ele>31.89</ele>
        <time>2022-06-14T14:39:02Z</time>
      </trkpt>
      <trkpt lat="47.74502" lon="-3.35644">
        <ele>32.38</ele>
        <time>2022-06-14T14:39:29Z</time>
      </trkpt>
      <trkpt lat="47.74502" lon="-3.35649">
        <ele>32.3</ele>
        <time>2022-06-14T14:39:49Z</time>
      </trkpt>
      <trkpt lat="47.74495" lon="-3.35652">
        <ele>32.12</ele>
        <time>2022-06-14T14:40:01Z</time>
      </trkpt>
      <trkpt lat="47.74482" lon="-3.35658">
        <ele>31.65</ele>
        <time>2022-06-14T14:40:15Z</time>
      </trkpt>
      <trkpt lat="47.74476" lon="-3.35658">
        <ele>31.12</ele>
        <time>2022-06-14T14:40:26Z</time>
      </trkpt>
      <trkpt lat="47.74464" lon="-3.35661">
        <ele>30.27</ele>
        <time>2022-06-14T14:40:38Z</time>
      </trkpt>
      <trkpt lat="47.74452" lon="-3.35654">
        <ele>29.58</ele>
        <time>2022-06-14T14:40:53Z</time>
      </trkpt>
      <trkpt lat="47.74444" lon="-3.3565">
        <ele>29.53</ele>
        <time>2022-06-14T14:41:02Z</time>
      </trkpt>
      <trkpt lat="47.74441" lon="-3.35647">
        <ele>29.51</ele>
        <time>2022-06-14T14:41:04Z</time>
      </trkpt>
      <trkpt lat="47.74439" lon="-3.35646">
        <ele>29.51</ele>
        <time>2022-06-14T14:41:05Z</time>
      </trkpt>
      <trkpt lat="47.74438" lon="-3.35645">
        <ele>29.51</ele>
        <time>2022-06-14T14:41:06Z</time>
      </trkpt>
      <trkpt lat="47.74437" lon="-3.35643">
        <ele>29.51</ele>
        <time>2022-06-14T14:41:07Z</time>
      </trkpt>
      <trkpt lat="47.74436" lon="-3.35642">
        <ele>29.51</ele>
        <time>2022-06-14T14:41:08Z</time>
      </trkpt>
      <trkpt lat="47.74435" lon="-3.35641">
        <ele>29.51</ele>
        <time>2022-06-14T14:41:09Z</time>
      </trkpt>
      <trkpt lat="47.74433" lon="-3.3564">
        <ele>29.51</ele>
        <time>2022-06-14T14:41:10Z</time>
      </trkpt>
      <trkpt lat="47.74423" lon="-3.3563">
        <ele>29.54</ele>
        <time>2022-06-14T14:41:19Z</time>
      </trkpt>
      <trkpt lat="47.74422" lon="-3.35629">
        <ele>29.54</ele>
        <time>2022-06-14T14:41:20Z</time>
      </trkpt>
      <trkpt lat="47.7442" lon="-3.35627">
        <ele>29.53</ele>
        <time>2022-06-14T14:41:22Z</time>
      </trkpt>
      <trkpt lat="47.74419" lon="-3.35625">
        <ele>29.52</ele>
        <time>2022-06-14T14:41:23Z</time>
      </trkpt>
      <trkpt lat="47.74419" lon="-3.35624">
        <ele>29.52</ele>
        <time>2022-06-14T14:41:24Z</time>
      </trkpt>
      <trkpt lat="47.74418" lon="-3.35621">
        <ele>29.52</ele>
        <time>2022-06-14T14:41:27Z</time>
      </trkpt>
      <trkpt lat="47.74418" lon="-3.35615">
        <ele>29.47</ele>
        <time>2022-06-14T14:41:30Z</time>
      </trkpt>
      <trkpt lat="47.74417" lon="-3.35593">
        <ele>29.14</ele>
        <time>2022-06-14T14:41:44Z</time>
      </trkpt>
      <trkpt lat="47.74417" lon="-3.35587">
        <ele>29.19</ele>
        <time>2022-06-14T14:41:47Z</time>
      </trkpt>
      <trkpt lat="47.74417" lon="-3.35577">
        <ele>28.79</ele>
        <time>2022-06-14T14:41:54Z</time>
      </trkpt>
      <trkpt lat="47.74418" lon="-3.3557">
        <ele>28.64</ele>
        <time>2022-06-14T14:41:58Z</time>
      </trkpt>
      <trkpt lat="47.74417" lon="-3.35545">
        <ele>29.16</ele>
        <time>2022-06-14T14:42:13Z</time>
      </trkpt>
      <trkpt lat="47.74416" lon="-3.3553">
        <ele>29.21</ele>
        <time>2022-06-14T14:42:27Z</time>
      </trkpt>
      <trkpt lat="47.74416" lon="-3.35522">
        <ele>29.24</ele>
        <time>2022-06-14T14:42:42Z</time>
      </trkpt>
      <trkpt lat="47.74411" lon="-3.35504">
        <ele>29.28</ele>
        <time>2022-06-14T14:42:55Z</time>
      </trkpt>
      <trkpt lat="47.74411" lon="-3.35492">
        <ele>28.99</ele>
        <time>2022-06-14T14:43:06Z</time>
      </trkpt>
      <trkpt lat="47.74406" lon="-3.35479">
        <ele>29.03</ele>
        <time>2022-06-14T14:43:18Z</time>
      </trkpt>
      <trkpt lat="47.74406" lon="-3.35471">
        <ele>29.03</ele>
        <time>2022-06-14T14:43:22Z</time>
      </trkpt>
      <trkpt lat="47.74408" lon="-3.35437">
        <ele>29.27</ele>
        <time>2022-06-14T14:43:37Z</time>
      </trkpt>
      <trkpt lat="47.74409" lon="-3.35414">
        <ele>29.36</ele>
        <time>2022-06-14T14:43:50Z</time>
      </trkpt>
      <trkpt lat="47.74408" lon="-3.3541">
        <ele>29.4</ele>
        <time>2022-06-14T14:43:53Z</time>
      </trkpt>
      <trkpt lat="47.74408" lon="-3.35408">
        <ele>29.41</ele>
        <time>2022-06-14T14:43:54Z</time>
      </trkpt>
      <trkpt lat="47.74408" lon="-3.35407">
        <ele>29.41</ele>
        <time>2022-06-14T14:43:55Z</time>
      </trkpt>
      <trkpt lat="47.74408" lon="-3.35405">
        <ele>29.42</ele>
        <time>2022-06-14T14:43:56Z</time>
      </trkpt>
      <trkpt lat="47.74407" lon="-3.35404">
        <ele>29.42</ele>
        <time>2022-06-14T14:43:57Z</time>
      </trkpt>
      <trkpt lat="47.74407" lon="-3.35402">
        <ele>29.43</ele>
        <time>2022-06-14T14:43:58Z</time>
      </trkpt>
      <trkpt lat="47.74406" lon="-3.354">
        <ele>29.43</ele>
        <time>2022-06-14T14:43:59Z</time>
      </trkpt>
      <trkpt lat="47.74405" lon="-3.35398">
        <ele>29.44</ele>
        <time>2022-06-14T14:44:00Z</time>
      </trkpt>
      <trkpt lat="47.74398" lon="-3.35377">
        <ele>29.61</ele>
        <time>2022-06-14T14:44:13Z</time>
      </trkpt>
      <trkpt lat="47.74395" lon="-3.35366">
        <ele>29.66</ele>
        <time>2022-06-14T14:44:20Z</time>
      </trkpt>
      <trkpt lat="47.74388" lon="-3.35354">
        <ele>29.8</ele>
        <time>2022-06-14T14:44:29Z</time>
      </trkpt>
      <trkpt lat="47.74388" lon="-3.35353">
        <ele>29.82</ele>
        <time>2022-06-14T14:44:30Z</time>
      </trkpt>
      <trkpt lat="47.74387" lon="-3.35351">
        <ele>29.83</ele>
        <time>2022-06-14T14:44:31Z</time>
      </trkpt>
      <trkpt lat="47.74386" lon="-3.3535">
        <ele>29.84</ele>
        <time>2022-06-14T14:44:32Z</time>
      </trkpt>
      <trkpt lat="47.74379" lon="-3.35328">
        <ele>29.79</ele>
        <time>2022-06-14T14:44:46Z</time>
      </trkpt>
      <trkpt lat="47.74377" lon="-3.35304">
        <ele>29.89</ele>
        <time>2022-06-14T14:45:01Z</time>
      </trkpt>
      <trkpt lat="47.74377" lon="-3.35302">
        <ele>29.86</ele>
        <time>2022-06-14T14:45:04Z</time>
      </trkpt>
      <trkpt lat="47.74378" lon="-3.35298">
        <ele>29.75</ele>
        <time>2022-06-14T14:45:21Z</time>
      </trkpt>
      <trkpt lat="47.74377" lon="-3.35296">
        <ele>29.75</ele>
        <time>2022-06-14T14:45:22Z</time>
      </trkpt>
      <trkpt lat="47.74375" lon="-3.35271">
        <ele>29.85</ele>
        <time>2022-06-14T14:45:36Z</time>
      </trkpt>
      <trkpt lat="47.74368" lon="-3.35246">
        <ele>30.02</ele>
        <time>2022-06-14T14:45:51Z</time>
      </trkpt>
      <trkpt lat="47.74367" lon="-3.35247">
        <ele>30.14</ele>
        <time>2022-06-14T14:46:06Z</time>
      </trkpt>
      <trkpt lat="47.74366" lon="-3.35245">
        <ele>30.21</ele>
        <time>2022-06-14T14:46:32Z</time>
      </trkpt>
      <trkpt lat="47.74366" lon="-3.35248">
        <ele>29.92</ele>
        <time>2022-06-14T14:47:05Z</time>
      </trkpt>
      <trkpt lat="47.74366" lon="-3.35249">
        <ele>29.92</ele>
        <time>2022-06-14T14:47:41Z</time>
      </trkpt>
      <trkpt lat="47.74366" lon="-3.35247">
        <ele>29.92</ele>
        <time>2022-06-14T14:47:58Z</time>
      </trkpt>
      <trkpt lat="47.74365" lon="-3.35241">
        <ele>29.89</ele>
        <time>2022-06-14T14:48:08Z</time>
      </trkpt>
      <trkpt lat="47.74364" lon="-3.35238">
        <ele>29.72</ele>
        <time>2022-06-14T14:48:21Z</time>
      </trkpt>
      <trkpt lat="47.74364" lon="-3.35221">
        <ele>30.13</ele>
        <time>2022-06-14T14:48:34Z</time>
      </trkpt>
      <trkpt lat="47.74364" lon="-3.35208">
        <ele>30.2</ele>
        <time>2022-06-14T14:48:48Z</time>
      </trkpt>
      <trkpt lat="47.74362" lon="-3.35207">
        <ele>30.21</ele>
        <time>2022-06-14T14:49:08Z</time>
      </trkpt>
      <trkpt lat="47.74362" lon="-3.35199">
        <ele>30.25</ele>
        <time>2022-06-14T14:49:24Z</time>
      </trkpt>
      <trkpt lat="47.74362" lon="-3.35192">
        <ele>30.43</ele>
        <time>2022-06-14T14:49:46Z</time>
      </trkpt>
      <trkpt lat="47.74361" lon="-3.35173">
        <ele>30.72</ele>
        <time>2022-06-14T14:50:00Z</time>
      </trkpt>
      <trkpt lat="47.74364" lon="-3.35162">
        <ele>30.74</ele>
        <time>2022-06-14T14:50:12Z</time>
      </trkpt>
      <trkpt lat="47.74372" lon="-3.35141">
        <ele>30.7</ele>
        <time>2022-06-14T14:50:26Z</time>
      </trkpt>
      <trkpt lat="47.74373" lon="-3.35127">
        <ele>30.6</ele>
        <time>2022-06-14T14:50:39Z</time>
      </trkpt>
      <trkpt lat="47.74378" lon="-3.35117">
        <ele>30.38</ele>
        <time>2022-06-14T14:50:46Z</time>
      </trkpt>
      <trkpt lat="47.74378" lon="-3.35115">
        <ele>30.37</ele>
        <time>2022-06-14T14:50:47Z</time>
      </trkpt>
      <trkpt lat="47.74386" lon="-3.35092">
        <ele>30.17</ele>
        <time>2022-06-14T14:51:03Z</time>
      </trkpt>
      <trkpt lat="47.74395" lon="-3.35079">
        <ele>30.37</ele>
        <time>2022-06-14T14:51:16Z</time>
      </trkpt>
      <trkpt lat="47.74402" lon="-3.3507">
        <ele>30.34</ele>
        <time>2022-06-14T14:51:28Z</time>
      </trkpt>
      <trkpt lat="47.7441" lon="-3.35064">
        <ele>30.28</ele>
        <time>2022-06-14T14:51:40Z</time>
      </trkpt>
      <trkpt lat="47.74413" lon="-3.35071">
        <ele>30.55</ele>
        <time>2022-06-14T14:51:51Z</time>
      </trkpt>
      <trkpt lat="47.74414" lon="-3.35071">
        <ele>30.64</ele>
        <time>2022-06-14T14:52:04Z</time>
      </trkpt>
      <trkpt lat="47.74414" lon="-3.35076">
        <ele>30.96</ele>
        <time>2022-06-14T14:52:14Z</time>
      </trkpt>
      <trkpt lat="47.74412" lon="-3.3508">
        <ele>31.33</ele>
        <time>2022-06-14T14:52:30Z</time>
      </trkpt>
      <trkpt lat="47.74414" lon="-3.35079">
        <ele>31.22</ele>
        <time>2022-06-14T14:52:44Z</time>
      </trkpt>
      <trkpt lat="47.74413" lon="-3.35081">
        <ele>31.27</ele>
        <time>2022-06-14T14:52:58Z</time>
      </trkpt>
      <trkpt lat="47.74414" lon="-3.3508">
        <ele>31.05</ele>
        <time>2022-06-14T14:53:14Z</time>
      </trkpt>
      <trkpt lat="47.74417" lon="-3.35084">
        <ele>30.94</ele>
        <time>2022-06-14T14:53:33Z</time>
      </trkpt>
      <trkpt lat="47.74418" lon="-3.3508">
        <ele>31.4</ele>
        <time>2022-06-14T14:53:52Z</time>
      </trkpt>
      <trkpt lat="47.74419" lon="-3.35081">
        <ele>30.67</ele>
        <time>2022-06-14T14:54:09Z</time>
      </trkpt>
      <trkpt lat="47.74421" lon="-3.35082">
        <ele>31.14</ele>
        <time>2022-06-14T14:54:25Z</time>
      </trkpt>
      <trkpt lat="47.74424" lon="-3.35085">
        <ele>31.19</ele>
        <time>2022-06-14T14:54:41Z</time>
      </trkpt>
      <trkpt lat="47.74422" lon="-3.35082">
        <ele>31.33</ele>
        <time>2022-06-14T14:55:01Z</time>
      </trkpt>
      <trkpt lat="47.74426" lon="-3.35081">
        <ele>31.55</ele>
        <time>2022-06-14T14:55:19Z</time>
      </trkpt>
      <trkpt lat="47.74422" lon="-3.35079">
        <ele>31.88</ele>
        <time>2022-06-14T14:55:37Z</time>
      </trkpt>
      <trkpt lat="47.74416" lon="-3.35079">
        <ele>31.64</ele>
        <time>2022-06-14T14:55:50Z</time>
      </trkpt>
      <trkpt lat="47.74413" lon="-3.35078">
        <ele>31.45</ele>
        <time>2022-06-14T14:56:01Z</time>
      </trkpt>
      <trkpt lat="47.74413" lon="-3.35079">
        <ele>31.45</ele>
        <time>2022-06-14T14:56:17Z</time>
      </trkpt>
      <trkpt lat="47.74417" lon="-3.35082">
        <ele>31.45</ele>
        <time>2022-06-14T14:56:33Z</time>
      </trkpt>
      <trkpt lat="47.74417" lon="-3.35083">
        <ele>31.45</ele>
        <time>2022-06-14T14:56:50Z</time>
      </trkpt>
      <trkpt lat="47.74419" lon="-3.35081">
        <ele>31.45</ele>
        <time>2022-06-14T14:57:11Z</time>
      </trkpt>
      <trkpt lat="47.74416" lon="-3.35078">
        <ele>31.45</ele>
        <time>2022-06-14T14:57:29Z</time>
      </trkpt>
      <trkpt lat="47.74416" lon="-3.35078">
        <ele>31.45</ele>
        <time>2022-06-14T14:57:48Z</time>
      </trkpt>
      <trkpt lat="47.74416" lon="-3.35078">
        <ele>31.45</ele>
        <time>2022-06-14T14:58:15Z</time>
      </trkpt>
      <trkpt lat="47.7442" lon="-3.35083">
        <ele>31.45</ele>
        <time>2022-06-14T14:58:35Z</time>
      </trkpt>
      <trkpt lat="47.74422" lon="-3.35083">
        <ele>31.45</ele>
        <time>2022-06-14T14:58:57Z</time>
      </trkpt>
      <trkpt lat="47.74422" lon="-3.35083">
        <ele>31.45</ele>
        <time>2022-06-14T14:59:13Z</time>
      </trkpt>
      <trkpt lat="47.74421" lon="-3.35083">
        <ele>31.45</ele>
        <time>2022-06-14T14:59:34Z</time>
      </trkpt>
      <trkpt lat="47.74424" lon="-3.35086">
        <ele>31.45</ele>
        <time>2022-06-14T14:59:52Z</time>
      </trkpt>
      <trkpt lat="47.74422" lon="-3.35083">
        <ele>31.45</ele>
        <time>2022-06-14T15:00:11Z</time>
      </trkpt>
      <trkpt lat="47.74425" lon="-3.35086">
        <ele>31.45</ele>
        <time>2022-06-14T15:00:31Z</time>
      </trkpt>
      <trkpt lat="47.74428" lon="-3.35089">
        <ele>31.57</ele>
        <time>2022-06-14T15:00:54Z</time>
      </trkpt>
      <trkpt lat="47.7442" lon="-3.35084">
        <ele>31.54</ele>
        <time>2022-06-14T15:01:12Z</time>
      </trkpt>
      <trkpt lat="47.74419" lon="-3.35083">
        <ele>31.3</ele>
        <time>2022-06-14T15:01:34Z</time>
      </trkpt>
      <trkpt lat="47.74416" lon="-3.35081">
        <ele>31.08</ele>
        <time>2022-06-14T15:01:53Z</time>
      </trkpt>
      <trkpt lat="47.74412" lon="-3.35078">
        <ele>31.24</ele>
        <time>2022-06-14T15:02:13Z</time>
      </trkpt>
      <trkpt lat="47.74413" lon="-3.35077">
        <ele>31.45</ele>
        <time>2022-06-14T15:02:33Z</time>
      </trkpt>
      <trkpt lat="47.74412" lon="-3.35075">
        <ele>31.5</ele>
        <time>2022-06-14T15:02:50Z</time>
      </trkpt>
      <trkpt lat="47.74408" lon="-3.35067">
        <ele>31.5</ele>
        <time>2022-06-14T15:03:07Z</time>
      </trkpt>
      <trkpt lat="47.74409" lon="-3.35067">
        <ele>31.5</ele>
        <time>2022-06-14T15:03:27Z</time>
      </trkpt>
      <trkpt lat="47.7441" lon="-3.35068">
        <ele>31.5</ele>
        <time>2022-06-14T15:03:47Z</time>
      </trkpt>
      <trkpt lat="47.74413" lon="-3.35071">
        <ele>31.26</ele>
        <time>2022-06-14T15:04:09Z</time>
      </trkpt>
      <trkpt lat="47.74411" lon="-3.35068">
        <ele>31.38</ele>
        <time>2022-06-14T15:04:27Z</time>
      </trkpt>
      <trkpt lat="47.74416" lon="-3.35069">
        <ele>31.48</ele>
        <time>2022-06-14T15:04:48Z</time>
      </trkpt>
      <trkpt lat="47.74422" lon="-3.35072">
        <ele>31.54</ele>
        <time>2022-06-14T15:05:05Z</time>
      </trkpt>
      <trkpt lat="47.7442" lon="-3.35076">
        <ele>31.57</ele>
        <time>2022-06-14T15:05:24Z</time>
      </trkpt>
      <trkpt lat="47.74418" lon="-3.35079">
        <ele>31.57</ele>
        <time>2022-06-14T15:05:43Z</time>
      </trkpt>
      <trkpt lat="47.74415" lon="-3.35074">
        <ele>31.57</ele>
        <time>2022-06-14T15:06:01Z</time>
      </trkpt>
      <trkpt lat="47.74419" lon="-3.35075">
        <ele>31.57</ele>
        <time>2022-06-14T15:06:21Z</time>
      </trkpt>
      <trkpt lat="47.7442" lon="-3.35078">
        <ele>31.57</ele>
        <time>2022-06-14T15:06:38Z</time>
      </trkpt>
      <trkpt lat="47.74419" lon="-3.35079">
        <ele>31.57</ele>
        <time>2022-06-14T15:06:56Z</time>
      </trkpt>
      <trkpt lat="47.74418" lon="-3.35081">
        <ele>31.57</ele>
        <time>2022-06-14T15:07:15Z</time>
      </trkpt>
      <trkpt lat="47.74418" lon="-3.3508">
        <ele>31.57</ele>
        <time>2022-06-14T15:07:34Z</time>
      </trkpt>
      <trkpt lat="47.74416" lon="-3.35081">
        <ele>31.57</ele>
        <time>2022-06-14T15:07:55Z</time>
      </trkpt>
      <trkpt lat="47.74416" lon="-3.35085">
        <ele>31.57</ele>
        <time>2022-06-14T15:08:19Z</time>
      </trkpt>
      <trkpt lat="47.74415" lon="-3.35082">
        <ele>31.57</ele>
        <time>2022-06-14T15:08:43Z</time>
      </trkpt>
      <trkpt lat="47.74412" lon="-3.35076">
        <ele>31.57</ele>
        <time>2022-06-14T15:09:08Z</time>
      </trkpt>
      <trkpt lat="47.7441" lon="-3.35069">
        <ele>31.57</ele>
        <time>2022-06-14T15:09:31Z</time>
      </trkpt>
      <trkpt lat="47.74416" lon="-3.35076">
        <ele>31.57</ele>
        <time>2022-06-14T15:09:54Z</time>
      </trkpt>
      <trkpt lat="47.74421" lon="-3.35079">
        <ele>31.57</ele>
        <time>2022-06-14T15:10:17Z</time>
      </trkpt>
      <trkpt lat="47.74416" lon="-3.35078">
        <ele>31.57</ele>
        <time>2022-06-14T15:10:37Z</time>
      </trkpt>
      <trkpt lat="47.74415" lon="-3.35077">
        <ele>31.57</ele>
        <time>2022-06-14T15:10:59Z</time>
      </trkpt>
      <trkpt lat="47.74412" lon="-3.35075">
        <ele>31.57</ele>
        <time>2022-06-14T15:11:16Z</time>
      </trkpt>
      <trkpt lat="47.74411" lon="-3.35073">
        <ele>31.57</ele>
        <time>2022-06-14T15:11:37Z</time>
      </trkpt>
      <trkpt lat="47.74416" lon="-3.35073">
        <ele>31.57</ele>
        <time>2022-06-14T15:11:54Z</time>
      </trkpt>
      <trkpt lat="47.74419" lon="-3.35073">
        <ele>31.68</ele>
        <time>2022-06-14T15:12:15Z</time>
      </trkpt>
      <trkpt lat="47.7442" lon="-3.35074">
        <ele>31.67</ele>
        <time>2022-06-14T15:12:33Z</time>
      </trkpt>
      <trkpt lat="47.74424" lon="-3.35079">
        <ele>31.55</ele>
        <time>2022-06-14T15:12:53Z</time>
      </trkpt>
      <trkpt lat="47.74429" lon="-3.35079">
        <ele>31.71</ele>
        <time>2022-06-14T15:13:11Z</time>
      </trkpt>
      <trkpt lat="47.7443" lon="-3.35075">
        <ele>31.71</ele>
        <time>2022-06-14T15:13:29Z</time>
      </trkpt>
      <trkpt lat="47.74421" lon="-3.35078">
        <ele>31.78</ele>
        <time>2022-06-14T15:13:43Z</time>
      </trkpt>
      <trkpt lat="47.74414" lon="-3.3508">
        <ele>31.85</ele>
        <time>2022-06-14T15:13:57Z</time>
      </trkpt>
      <trkpt lat="47.74414" lon="-3.35083">
        <ele>31.95</ele>
        <time>2022-06-14T15:14:17Z</time>
      </trkpt>
      <trkpt lat="47.74422" lon="-3.35095">
        <ele>31.96</ele>
        <time>2022-06-14T15:14:40Z</time>
      </trkpt>
      <trkpt lat="47.74421" lon="-3.35094">
        <ele>31.98</ele>
        <time>2022-06-14T15:15:08Z</time>
      </trkpt>
      <trkpt lat="47.74419" lon="-3.35088">
        <ele>31.98</ele>
        <time>2022-06-14T15:15:21Z</time>
      </trkpt>
      <trkpt lat="47.74415" lon="-3.35076">
        <ele>32.1</ele>
        <time>2022-06-14T15:15:47Z</time>
      </trkpt>
      <trkpt lat="47.74416" lon="-3.35075">
        <ele>32.15</ele>
        <time>2022-06-14T15:16:02Z</time>
      </trkpt>
      <trkpt lat="47.74423" lon="-3.35074">
        <ele>32.28</ele>
        <time>2022-06-14T15:16:20Z</time>
      </trkpt>
      <trkpt lat="47.74424" lon="-3.35073">
        <ele>32.29</ele>
        <time>2022-06-14T15:16:39Z</time>
      </trkpt>
      <trkpt lat="47.7442" lon="-3.35071">
        <ele>32.34</ele>
        <time>2022-06-14T15:16:59Z</time>
      </trkpt>
      <trkpt lat="47.74419" lon="-3.35072">
        <ele>32.34</ele>
        <time>2022-06-14T15:17:04Z</time>
      </trkpt>
      <trkpt lat="47.74416" lon="-3.35075">
        <ele>32.65</ele>
        <time>2022-06-14T15:17:19Z</time>
      </trkpt>
      <trkpt lat="47.74415" lon="-3.35071">
        <ele>32.4</ele>
        <time>2022-06-14T15:17:34Z</time>
      </trkpt>
      <trkpt lat="47.74416" lon="-3.35073">
        <ele>32.48</ele>
        <time>2022-06-14T15:17:53Z</time>
      </trkpt>
      <trkpt lat="47.74412" lon="-3.35072">
        <ele>32.46</ele>
        <time>2022-06-14T15:18:10Z</time>
      </trkpt>
      <trkpt lat="47.74413" lon="-3.35075">
        <ele>32.46</ele>
        <time>2022-06-14T15:18:25Z</time>
      </trkpt>
      <trkpt lat="47.74415" lon="-3.35076">
        <ele>32.46</ele>
        <time>2022-06-14T15:18:42Z</time>
      </trkpt>
      <trkpt lat="47.74414" lon="-3.35072">
        <ele>32.46</ele>
        <time>2022-06-14T15:18:58Z</time>
      </trkpt>
      <trkpt lat="47.7442" lon="-3.35061">
        <ele>32.34</ele>
        <time>2022-06-14T15:19:11Z</time>
      </trkpt>
      <trkpt lat="47.74417" lon="-3.35054">
        <ele>32.08</ele>
        <time>2022-06-14T15:19:23Z</time>
      </trkpt>
      <trkpt lat="47.74417" lon="-3.35054">
        <ele>32.34</ele>
        <time>2022-06-14T15:19:32Z</time>
      </trkpt>
      <trkpt lat="47.74415" lon="-3.35052">
        <ele>32.44</ele>
        <time>2022-06-14T15:19:44Z</time>
      </trkpt>
      <trkpt lat="47.74414" lon="-3.3505">
        <ele>33.04</ele>
        <time>2022-06-14T15:20:12Z</time>
      </trkpt>
      <trkpt lat="47.74415" lon="-3.35056">
        <ele>32.95</ele>
        <time>2022-06-14T15:20:24Z</time>
      </trkpt>
      <trkpt lat="47.74417" lon="-3.35058">
        <ele>32.45</ele>
        <time>2022-06-14T15:20:43Z</time>
      </trkpt>
      <trkpt lat="47.74419" lon="-3.35062">
        <ele>32.58</ele>
        <time>2022-06-14T15:21:01Z</time>
      </trkpt>
      <trkpt lat="47.74422" lon="-3.35064">
        <ele>33.25</ele>
        <time>2022-06-14T15:21:22Z</time>
      </trkpt>
      <trkpt lat="47.74428" lon="-3.35071">
        <ele>33.45</ele>
        <time>2022-06-14T15:21:34Z</time>
      </trkpt>
      <trkpt lat="47.74436" lon="-3.3508">
        <ele>33.11</ele>
        <time>2022-06-14T15:21:47Z</time>
      </trkpt>
      <trkpt lat="47.7444" lon="-3.35082">
        <ele>33.06</ele>
        <time>2022-06-14T15:22:00Z</time>
      </trkpt>
      <trkpt lat="47.74448" lon="-3.35074">
        <ele>33.06</ele>
        <time>2022-06-14T15:22:14Z</time>
      </trkpt>
      <trkpt lat="47.74462" lon="-3.35067">
        <ele>33.09</ele>
        <time>2022-06-14T15:22:28Z</time>
      </trkpt>
      <trkpt lat="47.74472" lon="-3.35088">
        <ele>32.81</ele>
        <time>2022-06-14T15:22:41Z</time>
      </trkpt>
      <trkpt lat="47.74474" lon="-3.35091">
        <ele>32.82</ele>
        <time>2022-06-14T15:22:42Z</time>
      </trkpt>
      <trkpt lat="47.74477" lon="-3.35121">
        <ele>33.32</ele>
        <time>2022-06-14T15:22:52Z</time>
      </trkpt>
      <trkpt lat="47.74478" lon="-3.35124">
        <ele>33.31</ele>
        <time>2022-06-14T15:22:54Z</time>
      </trkpt>
      <trkpt lat="47.74474" lon="-3.35139">
        <ele>33.27</ele>
        <time>2022-06-14T15:23:06Z</time>
      </trkpt>
      <trkpt lat="47.74473" lon="-3.35141">
        <ele>33.3</ele>
        <time>2022-06-14T15:23:07Z</time>
      </trkpt>
      <trkpt lat="47.74469" lon="-3.35153">
        <ele>33.36</ele>
        <time>2022-06-14T15:23:20Z</time>
      </trkpt>
      <trkpt lat="47.74467" lon="-3.35155">
        <ele>33.33</ele>
        <time>2022-06-14T15:23:26Z</time>
      </trkpt>
      <trkpt lat="47.74455" lon="-3.35174">
        <ele>33.11</ele>
        <time>2022-06-14T15:23:40Z</time>
      </trkpt>
      <trkpt lat="47.74452" lon="-3.35187">
        <ele>32.99</ele>
        <time>2022-06-14T15:23:51Z</time>
      </trkpt>
      <trkpt lat="47.7446" lon="-3.35213">
        <ele>33.04</ele>
        <time>2022-06-14T15:24:04Z</time>
      </trkpt>
      <trkpt lat="47.74465" lon="-3.35222">
        <ele>33.21</ele>
        <time>2022-06-14T15:24:17Z</time>
      </trkpt>
      <trkpt lat="47.74473" lon="-3.35231">
        <ele>33.21</ele>
        <time>2022-06-14T15:24:34Z</time>
      </trkpt>
      <trkpt lat="47.74479" lon="-3.35237">
        <ele>33.21</ele>
        <time>2022-06-14T15:24:49Z</time>
      </trkpt>
      <trkpt lat="47.74484" lon="-3.35239">
        <ele>33.21</ele>
        <time>2022-06-14T15:25:05Z</time>
      </trkpt>
      <trkpt lat="47.74486" lon="-3.35245">
        <ele>33.21</ele>
        <time>2022-06-14T15:25:20Z</time>
      </trkpt>
      <trkpt lat="47.74481" lon="-3.35253">
        <ele>33.21</ele>
        <time>2022-06-14T15:25:36Z</time>
      </trkpt>
      <trkpt lat="47.74481" lon="-3.35253">
        <ele>33.21</ele>
        <time>2022-06-14T15:25:37Z</time>
      </trkpt>
      <trkpt lat="47.7448" lon="-3.35259">
        <ele>33.16</ele>
        <time>2022-06-14T15:25:49Z</time>
      </trkpt>
      <trkpt lat="47.74483" lon="-3.35266">
        <ele>32.96</ele>
        <time>2022-06-14T15:25:56Z</time>
      </trkpt>
      <trkpt lat="47.74481" lon="-3.35272">
        <ele>33.17</ele>
        <time>2022-06-14T15:26:00Z</time>
      </trkpt>
      <trkpt lat="47.74478" lon="-3.35282">
        <ele>33.18</ele>
        <time>2022-06-14T15:26:13Z</time>
      </trkpt>
      <trkpt lat="47.74479" lon="-3.35286">
        <ele>33.16</ele>
        <time>2022-06-14T15:26:25Z</time>
      </trkpt>
      <trkpt lat="47.74478" lon="-3.35288">
        <ele>33.01</ele>
        <time>2022-06-14T15:26:45Z</time>
      </trkpt>
      <trkpt lat="47.74478" lon="-3.35293">
        <ele>33.04</ele>
        <time>2022-06-14T15:27:20Z</time>
      </trkpt>
      <trkpt lat="47.74478" lon="-3.35295">
        <ele>33.04</ele>
        <time>2022-06-14T15:27:44Z</time>
      </trkpt>
      <trkpt lat="47.74479" lon="-3.35295">
        <ele>33.04</ele>
        <time>2022-06-14T15:27:59Z</time>
      </trkpt>
      <trkpt lat="47.74479" lon="-3.35298">
        <ele>33.04</ele>
        <time>2022-06-14T15:28:25Z</time>
      </trkpt>
      <trkpt lat="47.74481" lon="-3.35296">
        <ele>33.04</ele>
        <time>2022-06-14T15:28:47Z</time>
      </trkpt>
      <trkpt lat="47.74482" lon="-3.35295">
        <ele>33.04</ele>
        <time>2022-06-14T15:29:05Z</time>
      </trkpt>
      <trkpt lat="47.74485" lon="-3.35291">
        <ele>32.9</ele>
        <time>2022-06-14T15:29:17Z</time>
      </trkpt>
      <trkpt lat="47.74486" lon="-3.35288">
        <ele>32.72</ele>
        <time>2022-06-14T15:29:24Z</time>
      </trkpt>
      <trkpt lat="47.74488" lon="-3.35284">
        <ele>32.73</ele>
        <time>2022-06-14T15:29:27Z</time>
      </trkpt>
      <trkpt lat="47.74488" lon="-3.35283">
        <ele>32.73</ele>
        <time>2022-06-14T15:29:28Z</time>
      </trkpt>
      <trkpt lat="47.74488" lon="-3.35281">
        <ele>32.76</ele>
        <time>2022-06-14T15:29:29Z</time>
      </trkpt>
      <trkpt lat="47.74489" lon="-3.35269">
        <ele>32.83</ele>
        <time>2022-06-14T15:29:38Z</time>
      </trkpt>
      <trkpt lat="47.74493" lon="-3.3526">
        <ele>32.94</ele>
        <time>2022-06-14T15:29:48Z</time>
      </trkpt>
      <trkpt lat="47.74497" lon="-3.35252">
        <ele>32.99</ele>
        <time>2022-06-14T15:29:58Z</time>
      </trkpt>
      <trkpt lat="47.74498" lon="-3.35252">
        <ele>32.93</ele>
        <time>2022-06-14T15:30:00Z</time>
      </trkpt>
      <trkpt lat="47.74502" lon="-3.35252">
        <ele>32.84</ele>
        <time>2022-06-14T15:30:04Z</time>
      </trkpt>
      <trkpt lat="47.7451" lon="-3.35258">
        <ele>33.43</ele>
        <time>2022-06-14T15:30:18Z</time>
      </trkpt>
      <trkpt lat="47.74509" lon="-3.35266">
        <ele>33.51</ele>
        <time>2022-06-14T15:30:27Z</time>
      </trkpt>
      <trkpt lat="47.7451" lon="-3.35268">
        <ele>33.84</ele>
        <time>2022-06-14T15:30:32Z</time>
      </trkpt>
      <trkpt lat="47.7451" lon="-3.35275">
        <ele>33.99</ele>
        <time>2022-06-14T15:30:48Z</time>
      </trkpt>
      <trkpt lat="47.7451" lon="-3.35276">
        <ele>33.97</ele>
        <time>2022-06-14T15:30:49Z</time>
      </trkpt>
      <trkpt lat="47.74509" lon="-3.35278">
        <ele>33.96</ele>
        <time>2022-06-14T15:30:50Z</time>
      </trkpt>
      <trkpt lat="47.74503" lon="-3.3529">
        <ele>34.43</ele>
        <time>2022-06-14T15:30:59Z</time>
      </trkpt>
      <trkpt lat="47.74503" lon="-3.35292">
        <ele>34.52</ele>
        <time>2022-06-14T15:31:00Z</time>
      </trkpt>
      <trkpt lat="47.74503" lon="-3.35294">
        <ele>34.61</ele>
        <time>2022-06-14T15:31:01Z</time>
      </trkpt>
      <trkpt lat="47.74499" lon="-3.35319">
        <ele>36.3</ele>
        <time>2022-06-14T15:31:16Z</time>
      </trkpt>
      <trkpt lat="47.74499" lon="-3.35336">
        <ele>37.75</ele>
        <time>2022-06-14T15:31:27Z</time>
      </trkpt>
      <trkpt lat="47.74499" lon="-3.35356">
        <ele>39.15</ele>
        <time>2022-06-14T15:31:41Z</time>
      </trkpt>
      <trkpt lat="47.74501" lon="-3.35361">
        <ele>40.14</ele>
        <time>2022-06-14T15:31:56Z</time>
      </trkpt>
      <trkpt lat="47.74501" lon="-3.35368">
        <ele>40.09</ele>
        <time>2022-06-14T15:32:22Z</time>
      </trkpt>
      <trkpt lat="47.74502" lon="-3.3537">
        <ele>40.41</ele>
        <time>2022-06-14T15:32:37Z</time>
      </trkpt>
      <trkpt lat="47.74501" lon="-3.35375">
        <ele>40.38</ele>
        <time>2022-06-14T15:32:59Z</time>
      </trkpt>
      <trkpt lat="47.74502" lon="-3.35391">
        <ele>40.78</ele>
        <time>2022-06-14T15:33:12Z</time>
      </trkpt>
      <trkpt lat="47.74506" lon="-3.35405">
        <ele>40.88</ele>
        <time>2022-06-14T15:33:24Z</time>
      </trkpt>
      <trkpt lat="47.74512" lon="-3.35416">
        <ele>41.19</ele>
        <time>2022-06-14T15:33:41Z</time>
      </trkpt>
      <trkpt lat="47.7452" lon="-3.35433">
        <ele>41.3</ele>
        <time>2022-06-14T15:33:56Z</time>
      </trkpt>
      <trkpt lat="47.74529" lon="-3.35443">
        <ele>41.5</ele>
        <time>2022-06-14T15:34:10Z</time>
      </trkpt>
      <trkpt lat="47.74537" lon="-3.35441">
        <ele>41.68</ele>
        <time>2022-06-14T15:34:26Z</time>
      </trkpt>
      <trkpt lat="47.74543" lon="-3.35431">
        <ele>42.22</ele>
        <time>2022-06-14T15:34:37Z</time>
      </trkpt>
      <trkpt lat="47.7455" lon="-3.35416">
        <ele>44.18</ele>
        <time>2022-06-14T15:34:53Z</time>
      </trkpt>
      <trkpt lat="47.74553" lon="-3.35408">
        <ele>45.47</ele>
        <time>2022-06-14T15:35:11Z</time>
      </trkpt>
      <trkpt lat="47.7455" lon="-3.35384">
        <ele>46.41</ele>
        <time>2022-06-14T15:35:24Z</time>
      </trkpt>
      <trkpt lat="47.74548" lon="-3.35381">
        <ele>47.11</ele>
        <time>2022-06-14T15:35:38Z</time>
      </trkpt>
      <trkpt lat="47.74545" lon="-3.35377">
        <ele>47.36</ele>
        <time>2022-06-14T15:35:49Z</time>
      </trkpt>
      <trkpt lat="47.74542" lon="-3.35364">
        <ele>48.31</ele>
        <time>2022-06-14T15:36:02Z</time>
      </trkpt>
      <trkpt lat="47.7454" lon="-3.35354">
        <ele>48.57</ele>
        <time>2022-06-14T15:36:06Z</time>
      </trkpt>
      <trkpt lat="47.74538" lon="-3.3535">
        <ele>48.81</ele>
        <time>2022-06-14T15:36:08Z</time>
      </trkpt>
      <trkpt lat="47.74531" lon="-3.35344">
        <ele>49.06</ele>
        <time>2022-06-14T15:36:23Z</time>
      </trkpt>
      <trkpt lat="47.74531" lon="-3.35344">
        <ele>49.16</ele>
        <time>2022-06-14T15:36:35Z</time>
      </trkpt>
      <trkpt lat="47.74529" lon="-3.35343">
        <ele>49.07</ele>
        <time>2022-06-14T15:36:55Z</time>
      </trkpt>
      <trkpt lat="47.74528" lon="-3.35343">
        <ele>49.1</ele>
        <time>2022-06-14T15:37:13Z</time>
      </trkpt>
      <trkpt lat="47.74528" lon="-3.35345">
        <ele>48.84</ele>
        <time>2022-06-14T15:37:30Z</time>
      </trkpt>
      <trkpt lat="47.74531" lon="-3.35347">
        <ele>48.84</ele>
        <time>2022-06-14T15:37:50Z</time>
      </trkpt>
      <trkpt lat="47.74536" lon="-3.35344">
        <ele>48.68</ele>
        <time>2022-06-14T15:38:02Z</time>
      </trkpt>
      <trkpt lat="47.74541" lon="-3.35338">
        <ele>48.93</ele>
        <time>2022-06-14T15:38:16Z</time>
      </trkpt>
      <trkpt lat="47.74543" lon="-3.35335">
        <ele>48.71</ele>
        <time>2022-06-14T15:38:26Z</time>
      </trkpt>
      <trkpt lat="47.74543" lon="-3.35333">
        <ele>48.96</ele>
        <time>2022-06-14T15:38:41Z</time>
      </trkpt>
      <trkpt lat="47.74541" lon="-3.35335">
        <ele>48.93</ele>
        <time>2022-06-14T15:38:52Z</time>
      </trkpt>
      <trkpt lat="47.74538" lon="-3.35343">
        <ele>48.96</ele>
        <time>2022-06-14T15:39:03Z</time>
      </trkpt>
      <trkpt lat="47.74537" lon="-3.35354">
        <ele>48.55</ele>
        <time>2022-06-14T15:39:18Z</time>
      </trkpt>
      <trkpt lat="47.74538" lon="-3.35364">
        <ele>47.79</ele>
        <time>2022-06-14T15:39:30Z</time>
      </trkpt>
      <trkpt lat="47.74538" lon="-3.35366">
        <ele>47.68</ele>
        <time>2022-06-14T15:39:31Z</time>
      </trkpt>
      <trkpt lat="47.74541" lon="-3.35378">
        <ele>46.52</ele>
        <time>2022-06-14T15:39:46Z</time>
      </trkpt>
      <trkpt lat="47.74545" lon="-3.35387">
        <ele>44.77</ele>
        <time>2022-06-14T15:40:01Z</time>
      </trkpt>
      <trkpt lat="47.74537" lon="-3.35405">
        <ele>42.91</ele>
        <time>2022-06-14T15:40:18Z</time>
      </trkpt>
      <trkpt lat="47.74537" lon="-3.35415">
        <ele>42.12</ele>
        <time>2022-06-14T15:40:25Z</time>
      </trkpt>
      <trkpt lat="47.74542" lon="-3.35429">
        <ele>41.64</ele>
        <time>2022-06-14T15:40:37Z</time>
      </trkpt>
      <trkpt lat="47.74559" lon="-3.35452">
        <ele>41.25</ele>
        <time>2022-06-14T15:40:53Z</time>
      </trkpt>
      <trkpt lat="47.74569" lon="-3.35456">
        <ele>41.03</ele>
        <time>2022-06-14T15:41:08Z</time>
      </trkpt>
      <trkpt lat="47.74576" lon="-3.35459">
        <ele>41.06</ele>
        <time>2022-06-14T15:41:19Z</time>
      </trkpt>
      <trkpt lat="47.74576" lon="-3.3546">
        <ele>41</ele>
        <time>2022-06-14T15:41:20Z</time>
      </trkpt>
      <trkpt lat="47.7458" lon="-3.35464">
        <ele>40.76</ele>
        <time>2022-06-14T15:41:25Z</time>
      </trkpt>
      <trkpt lat="47.74581" lon="-3.35465">
        <ele>40.76</ele>
        <time>2022-06-14T15:41:26Z</time>
      </trkpt>
      <trkpt lat="47.74581" lon="-3.35466">
        <ele>40.76</ele>
        <time>2022-06-14T15:41:27Z</time>
      </trkpt>
      <trkpt lat="47.74586" lon="-3.35484">
        <ele>40.93</ele>
        <time>2022-06-14T15:41:42Z</time>
      </trkpt>
      <trkpt lat="47.7459" lon="-3.35505">
        <ele>41.08</ele>
        <time>2022-06-14T15:41:58Z</time>
      </trkpt>
      <trkpt lat="47.7459" lon="-3.35518">
        <ele>41.08</ele>
        <time>2022-06-14T15:42:10Z</time>
      </trkpt>
      <trkpt lat="47.74591" lon="-3.35534">
        <ele>41.22</ele>
        <time>2022-06-14T15:42:22Z</time>
      </trkpt>
      <trkpt lat="47.74593" lon="-3.35555">
        <ele>41.06</ele>
        <time>2022-06-14T15:42:39Z</time>
      </trkpt>
      <trkpt lat="47.74592" lon="-3.35578">
        <ele>41.14</ele>
        <time>2022-06-14T15:42:54Z</time>
      </trkpt>
      <trkpt lat="47.74594" lon="-3.35586">
        <ele>41.26</ele>
        <time>2022-06-14T15:43:03Z</time>
      </trkpt>
      <trkpt lat="47.74597" lon="-3.35592">
        <ele>41.27</ele>
        <time>2022-06-14T15:43:07Z</time>
      </trkpt>
      <trkpt lat="47.74597" lon="-3.35602">
        <ele>41.38</ele>
        <time>2022-06-14T15:43:17Z</time>
      </trkpt>
      <trkpt lat="47.74596" lon="-3.35606">
        <ele>41.33</ele>
        <time>2022-06-14T15:43:23Z</time>
      </trkpt>
      <trkpt lat="47.74596" lon="-3.35609">
        <ele>41.39</ele>
        <time>2022-06-14T15:43:25Z</time>
      </trkpt>
      <trkpt lat="47.74595" lon="-3.3561">
        <ele>41.4</ele>
        <time>2022-06-14T15:43:26Z</time>
      </trkpt>
      <trkpt lat="47.74597" lon="-3.35614">
        <ele>41.33</ele>
        <time>2022-06-14T15:43:36Z</time>
      </trkpt>
      <trkpt lat="47.74598" lon="-3.35614">
        <ele>41.4</ele>
        <time>2022-06-14T15:43:49Z</time>
      </trkpt>
      <trkpt lat="47.74599" lon="-3.35613">
        <ele>41.29</ele>
        <time>2022-06-14T15:44:17Z</time>
      </trkpt>
      <trkpt lat="47.74596" lon="-3.35621">
        <ele>41.02</ele>
        <time>2022-06-14T15:44:27Z</time>
      </trkpt>
      <trkpt lat="47.74591" lon="-3.35629">
        <ele>40.86</ele>
        <time>2022-06-14T15:44:40Z</time>
      </trkpt>
      <trkpt lat="47.74574" lon="-3.35652">
        <ele>39.71</ele>
        <time>2022-06-14T15:44:58Z</time>
      </trkpt>
      <trkpt lat="47.74574" lon="-3.35653">
        <ele>39.65</ele>
        <time>2022-06-14T15:44:59Z</time>
      </trkpt>
      <trkpt lat="47.74565" lon="-3.35655">
        <ele>38.6</ele>
        <time>2022-06-14T15:45:14Z</time>
      </trkpt>
      <trkpt lat="47.74561" lon="-3.35648">
        <ele>37.49</ele>
        <time>2022-06-14T15:45:28Z</time>
      </trkpt>
      <trkpt lat="47.74549" lon="-3.35648">
        <ele>36.86</ele>
        <time>2022-06-14T15:45:39Z</time>
      </trkpt>
      <trkpt lat="47.7453" lon="-3.35643">
        <ele>35.74</ele>
        <time>2022-06-14T15:45:53Z</time>
      </trkpt>
      <trkpt lat="47.7452" lon="-3.35647">
        <ele>35.54</ele>
        <time>2022-06-14T15:46:08Z</time>
      </trkpt>
      <trkpt lat="47.74512" lon="-3.35652">
        <ele>35.27</ele>
        <time>2022-06-14T15:46:26Z</time>
      </trkpt>
      <trkpt lat="47.74506" lon="-3.3565">
        <ele>34.05</ele>
        <time>2022-06-14T15:46:41Z</time>
      </trkpt>
      <trkpt lat="47.74512" lon="-3.35646">
        <ele>34.77</ele>
        <time>2022-06-14T15:47:03Z</time>
      </trkpt>
      <trkpt lat="47.74534" lon="-3.35647">
        <ele>35.13</ele>
        <time>2022-06-14T15:47:09Z</time>
      </trkpt>
      <trkpt lat="47.7454" lon="-3.35647">
        <ele>35.3</ele>
        <time>2022-06-14T15:47:10Z</time>
      </trkpt>
      <trkpt lat="47.74592" lon="-3.35642">
        <ele>37.99</ele>
        <time>2022-06-14T15:47:19Z</time>
      </trkpt>
      <trkpt lat="47.74599" lon="-3.35638">
        <ele>39.58</ele>
        <time>2022-06-14T15:47:25Z</time>
      </trkpt>
      <trkpt lat="47.746" lon="-3.35637">
        <ele>39.69</ele>
        <time>2022-06-14T15:47:26Z</time>
      </trkpt>
      <trkpt lat="47.74602" lon="-3.35637">
        <ele>39.77</ele>
        <time>2022-06-14T15:47:27Z</time>
      </trkpt>
      <trkpt lat="47.74611" lon="-3.35641">
        <ele>40.1</ele>
        <time>2022-06-14T15:47:30Z</time>
      </trkpt>
      <trkpt lat="47.74612" lon="-3.35647">
        <ele>40.22</ele>
        <time>2022-06-14T15:47:31Z</time>
      </trkpt>
      <trkpt lat="47.74613" lon="-3.35653">
        <ele>40.3</ele>
        <time>2022-06-14T15:47:32Z</time>
      </trkpt>
      <trkpt lat="47.74614" lon="-3.35659">
        <ele>40.34</ele>
        <time>2022-06-14T15:47:33Z</time>
      </trkpt>
      <trkpt lat="47.74613" lon="-3.35664">
        <ele>40.36</ele>
        <time>2022-06-14T15:47:34Z</time>
      </trkpt>
      <trkpt lat="47.74627" lon="-3.35699">
        <ele>40.27</ele>
        <time>2022-06-14T15:47:42Z</time>
      </trkpt>
      <trkpt lat="47.74643" lon="-3.35737">
        <ele>40</ele>
        <time>2022-06-14T15:47:51Z</time>
      </trkpt>
      <trkpt lat="47.74673" lon="-3.35795">
        <ele>39.79</ele>
        <time>2022-06-14T15:48:01Z</time>
      </trkpt>
      <trkpt lat="47.74708" lon="-3.35823">
        <ele>39.25</ele>
        <time>2022-06-14T15:48:12Z</time>
      </trkpt>
      <trkpt lat="47.74718" lon="-3.35836">
        <ele>39.42</ele>
        <time>2022-06-14T15:48:19Z</time>
      </trkpt>
      <trkpt lat="47.74719" lon="-3.35836">
        <ele>39.43</ele>
        <time>2022-06-14T15:48:20Z</time>
      </trkpt>
      <trkpt lat="47.74723" lon="-3.35835">
        <ele>39.45</ele>
        <time>2022-06-14T15:48:21Z</time>
      </trkpt>
      <trkpt lat="47.7474" lon="-3.35829">
        <ele>39.68</ele>
        <time>2022-06-14T15:48:26Z</time>
      </trkpt>
      <trkpt lat="47.74743" lon="-3.35831">
        <ele>39.74</ele>
        <time>2022-06-14T15:48:27Z</time>
      </trkpt>
      <trkpt lat="47.74746" lon="-3.35835">
        <ele>39.84</ele>
        <time>2022-06-14T15:48:28Z</time>
      </trkpt>
      <trkpt lat="47.74777" lon="-3.35861">
        <ele>40.46</ele>
        <time>2022-06-14T15:48:38Z</time>
      </trkpt>
      <trkpt lat="47.74782" lon="-3.35861">
        <ele>40.28</ele>
        <time>2022-06-14T15:48:40Z</time>
      </trkpt>
      <trkpt lat="47.74785" lon="-3.35858">
        <ele>40.19</ele>
        <time>2022-06-14T15:48:41Z</time>
      </trkpt>
      <trkpt lat="47.74787" lon="-3.35855">
        <ele>40.12</ele>
        <time>2022-06-14T15:48:42Z</time>
      </trkpt>
      <trkpt lat="47.74798" lon="-3.35848">
        <ele>40.06</ele>
        <time>2022-06-14T15:48:45Z</time>
      </trkpt>
      <trkpt lat="47.74802" lon="-3.35848">
        <ele>40.08</ele>
        <time>2022-06-14T15:48:46Z</time>
      </trkpt>
      <trkpt lat="47.74805" lon="-3.35849">
        <ele>40.09</ele>
        <time>2022-06-14T15:48:47Z</time>
      </trkpt>
      <trkpt lat="47.7481" lon="-3.35852">
        <ele>40.09</ele>
        <time>2022-06-14T15:48:48Z</time>
      </trkpt>
      <trkpt lat="47.74815" lon="-3.35856">
        <ele>40.09</ele>
        <time>2022-06-14T15:48:49Z</time>
      </trkpt>
      <trkpt lat="47.74821" lon="-3.35861">
        <ele>40.09</ele>
        <time>2022-06-14T15:48:50Z</time>
      </trkpt>
      <trkpt lat="47.7488" lon="-3.35899">
        <ele>39.49</ele>
        <time>2022-06-14T15:49:00Z</time>
      </trkpt>
      <trkpt lat="47.74916" lon="-3.35927">
        <ele>37.3</ele>
        <time>2022-06-14T15:49:09Z</time>
      </trkpt>
      <trkpt lat="47.74944" lon="-3.3595">
        <ele>36.19</ele>
        <time>2022-06-14T15:49:18Z</time>
      </trkpt>
      <trkpt lat="47.75013" lon="-3.35992">
        <ele>35.85</ele>
        <time>2022-06-14T15:49:28Z</time>
      </trkpt>
      <trkpt lat="47.75066" lon="-3.36032">
        <ele>36.66</ele>
        <time>2022-06-14T15:49:37Z</time>
      </trkpt>
      <trkpt lat="47.75069" lon="-3.36038">
        <ele>36.62</ele>
        <time>2022-06-14T15:49:45Z</time>
      </trkpt>
      <trkpt lat="47.75077" lon="-3.36045">
        <ele>36.4</ele>
        <time>2022-06-14T15:49:58Z</time>
      </trkpt>
      <trkpt lat="47.75082" lon="-3.36048">
        <ele>36.4</ele>
        <time>2022-06-14T15:49:59Z</time>
      </trkpt>
      <trkpt lat="47.75123" lon="-3.36079">
        <ele>37.22</ele>
        <time>2022-06-14T15:50:06Z</time>
      </trkpt>
      <trkpt lat="47.75136" lon="-3.3609">
        <ele>37.55</ele>
        <time>2022-06-14T15:50:12Z</time>
      </trkpt>
      <trkpt lat="47.75141" lon="-3.36088">
        <ele>37.7</ele>
        <time>2022-06-14T15:50:27Z</time>
      </trkpt>
      <trkpt lat="47.75144" lon="-3.36089">
        <ele>37.75</ele>
        <time>2022-06-14T15:50:34Z</time>
      </trkpt>
      <trkpt lat="47.75145" lon="-3.3609">
        <ele>37.77</ele>
        <time>2022-06-14T15:50:35Z</time>
      </trkpt>
      <trkpt lat="47.75151" lon="-3.36091">
        <ele>37.88</ele>
        <time>2022-06-14T15:50:37Z</time>
      </trkpt>
      <trkpt lat="47.75156" lon="-3.36094">
        <ele>37.91</ele>
        <time>2022-06-14T15:50:38Z</time>
      </trkpt>
      <trkpt lat="47.75206" lon="-3.36125">
        <ele>38.73</ele>
        <time>2022-06-14T15:50:46Z</time>
      </trkpt>
      <trkpt lat="47.75243" lon="-3.36148">
        <ele>38.97</ele>
        <time>2022-06-14T15:50:54Z</time>
      </trkpt>
      <trkpt lat="47.75246" lon="-3.36149">
        <ele>38.96</ele>
        <time>2022-06-14T15:51:03Z</time>
      </trkpt>
      <trkpt lat="47.75249" lon="-3.36152">
        <ele>39.06</ele>
        <time>2022-06-14T15:51:18Z</time>
      </trkpt>
      <trkpt lat="47.75251" lon="-3.36153">
        <ele>39.09</ele>
        <time>2022-06-14T15:51:19Z</time>
      </trkpt>
      <trkpt lat="47.7526" lon="-3.3616">
        <ele>39.04</ele>
        <time>2022-06-14T15:51:25Z</time>
      </trkpt>
      <trkpt lat="47.75261" lon="-3.36162">
        <ele>39.03</ele>
        <time>2022-06-14T15:51:26Z</time>
      </trkpt>
      <trkpt lat="47.75272" lon="-3.36168">
        <ele>38.98</ele>
        <time>2022-06-14T15:51:36Z</time>
      </trkpt>
      <trkpt lat="47.75275" lon="-3.36172">
        <ele>39.05</ele>
        <time>2022-06-14T15:51:45Z</time>
      </trkpt>
      <trkpt lat="47.75277" lon="-3.36177">
        <ele>39.07</ele>
        <time>2022-06-14T15:51:46Z</time>
      </trkpt>
      <trkpt lat="47.75279" lon="-3.36182">
        <ele>39.1</ele>
        <time>2022-06-14T15:51:47Z</time>
      </trkpt>
      <trkpt lat="47.7528" lon="-3.36188">
        <ele>39.14</ele>
        <time>2022-06-14T15:51:48Z</time>
      </trkpt>
      <trkpt lat="47.7528" lon="-3.36195">
        <ele>39.18</ele>
        <time>2022-06-14T15:51:49Z</time>
      </trkpt>
      <trkpt lat="47.75279" lon="-3.36203">
        <ele>39.23</ele>
        <time>2022-06-14T15:51:50Z</time>
      </trkpt>
      <trkpt lat="47.75278" lon="-3.36212">
        <ele>39.31</ele>
        <time>2022-06-14T15:51:51Z</time>
      </trkpt>
      <trkpt lat="47.75276" lon="-3.36221">
        <ele>39.39</ele>
        <time>2022-06-14T15:51:52Z</time>
      </trkpt>
      <trkpt lat="47.75249" lon="-3.36329">
        <ele>41.13</ele>
        <time>2022-06-14T15:52:03Z</time>
      </trkpt>
      <trkpt lat="47.75218" lon="-3.36429">
        <ele>42.74</ele>
        <time>2022-06-14T15:52:14Z</time>
      </trkpt>
      <trkpt lat="47.75215" lon="-3.36445">
        <ele>42.89</ele>
        <time>2022-06-14T15:52:16Z</time>
      </trkpt>
      <trkpt lat="47.75212" lon="-3.36453">
        <ele>42.94</ele>
        <time>2022-06-14T15:52:17Z</time>
      </trkpt>
      <trkpt lat="47.75206" lon="-3.36467">
        <ele>43.06</ele>
        <time>2022-06-14T15:52:19Z</time>
      </trkpt>
      <trkpt lat="47.75193" lon="-3.36506">
        <ele>42.74</ele>
        <time>2022-06-14T15:52:26Z</time>
      </trkpt>
      <trkpt lat="47.75196" lon="-3.36518">
        <ele>42.35</ele>
        <time>2022-06-14T15:52:29Z</time>
      </trkpt>
      <trkpt lat="47.75198" lon="-3.36519">
        <ele>42.3</ele>
        <time>2022-06-14T15:52:30Z</time>
      </trkpt>
      <trkpt lat="47.7523" lon="-3.36536">
        <ele>42.62</ele>
        <time>2022-06-14T15:52:37Z</time>
      </trkpt>
      <trkpt lat="47.75297" lon="-3.3656">
        <ele>43.42</ele>
        <time>2022-06-14T15:52:47Z</time>
      </trkpt>
      <trkpt lat="47.7533" lon="-3.36574">
        <ele>43.75</ele>
        <time>2022-06-14T15:52:55Z</time>
      </trkpt>
      <trkpt lat="47.75335" lon="-3.36578">
        <ele>43.65</ele>
        <time>2022-06-14T15:53:04Z</time>
      </trkpt>
      <trkpt lat="47.75338" lon="-3.36578">
        <ele>43.63</ele>
        <time>2022-06-14T15:53:06Z</time>
      </trkpt>
      <trkpt lat="47.75346" lon="-3.3658">
        <ele>43.63</ele>
        <time>2022-06-14T15:53:09Z</time>
      </trkpt>
      <trkpt lat="47.75387" lon="-3.36596">
        <ele>44.3</ele>
        <time>2022-06-14T15:53:18Z</time>
      </trkpt>
      <trkpt lat="47.75407" lon="-3.36605">
        <ele>44.21</ele>
        <time>2022-06-14T15:53:26Z</time>
      </trkpt>
      <trkpt lat="47.75426" lon="-3.36617">
        <ele>43.84</ele>
        <time>2022-06-14T15:53:35Z</time>
      </trkpt>
      <trkpt lat="47.75428" lon="-3.36621">
        <ele>43.47</ele>
        <time>2022-06-14T15:53:43Z</time>
      </trkpt>
      <trkpt lat="47.75426" lon="-3.36638">
        <ele>43.58</ele>
        <time>2022-06-14T15:53:52Z</time>
      </trkpt>
      <trkpt lat="47.75424" lon="-3.36656">
        <ele>43.62</ele>
        <time>2022-06-14T15:53:55Z</time>
      </trkpt>
      <trkpt lat="47.75411" lon="-3.3673">
        <ele>43.31</ele>
        <time>2022-06-14T15:54:06Z</time>
      </trkpt>
      <trkpt lat="47.75401" lon="-3.36813">
        <ele>42.26</ele>
        <time>2022-06-14T15:54:15Z</time>
      </trkpt>
      <trkpt lat="47.75394" lon="-3.36858">
        <ele>41.91</ele>
        <time>2022-06-14T15:54:19Z</time>
      </trkpt>
      <trkpt lat="47.75393" lon="-3.36869">
        <ele>41.8</ele>
        <time>2022-06-14T15:54:20Z</time>
      </trkpt>
      <trkpt lat="47.75378" lon="-3.36958">
        <ele>40.67</ele>
        <time>2022-06-14T15:54:29Z</time>
      </trkpt>
      <trkpt lat="47.75376" lon="-3.36974">
        <ele>39.8</ele>
        <time>2022-06-14T15:54:35Z</time>
      </trkpt>
      <trkpt lat="47.75376" lon="-3.36978">
        <ele>39.14</ele>
        <time>2022-06-14T15:54:50Z</time>
      </trkpt>
      <trkpt lat="47.75375" lon="-3.36984">
        <ele>39.14</ele>
        <time>2022-06-14T15:54:51Z</time>
      </trkpt>
      <trkpt lat="47.75373" lon="-3.3699">
        <ele>39.15</ele>
        <time>2022-06-14T15:54:52Z</time>
      </trkpt>
      <trkpt lat="47.75356" lon="-3.37079">
        <ele>39.73</ele>
        <time>2022-06-14T15:55:01Z</time>
      </trkpt>
      <trkpt lat="47.75346" lon="-3.37187">
        <ele>40.57</ele>
        <time>2022-06-14T15:55:09Z</time>
      </trkpt>
      <trkpt lat="47.75333" lon="-3.37337">
        <ele>42.68</ele>
        <time>2022-06-14T15:55:21Z</time>
      </trkpt>
      <trkpt lat="47.75321" lon="-3.37467">
        <ele>43.92</ele>
        <time>2022-06-14T15:55:31Z</time>
      </trkpt>
      <trkpt lat="47.75315" lon="-3.37557">
        <ele>44.24</ele>
        <time>2022-06-14T15:55:40Z</time>
      </trkpt>
      <trkpt lat="47.75317" lon="-3.37565">
        <ele>44.05</ele>
        <time>2022-06-14T15:55:42Z</time>
      </trkpt>
      <trkpt lat="47.75319" lon="-3.37566">
        <ele>43.91</ele>
        <time>2022-06-14T15:55:43Z</time>
      </trkpt>
      <trkpt lat="47.75322" lon="-3.37567">
        <ele>43.89</ele>
        <time>2022-06-14T15:55:44Z</time>
      </trkpt>
      <trkpt lat="47.75326" lon="-3.37567">
        <ele>43.9</ele>
        <time>2022-06-14T15:55:45Z</time>
      </trkpt>
      <trkpt lat="47.75331" lon="-3.37568">
        <ele>44.02</ele>
        <time>2022-06-14T15:55:46Z</time>
      </trkpt>
      <trkpt lat="47.75336" lon="-3.37568">
        <ele>44.16</ele>
        <time>2022-06-14T15:55:47Z</time>
      </trkpt>
      <trkpt lat="47.75387" lon="-3.37565">
        <ele>45.9</ele>
        <time>2022-06-14T15:55:54Z</time>
      </trkpt>
      <trkpt lat="47.75421" lon="-3.3756">
        <ele>48.21</ele>
        <time>2022-06-14T15:55:59Z</time>
      </trkpt>
      <trkpt lat="47.75427" lon="-3.37556">
        <ele>48.63</ele>
        <time>2022-06-14T15:56:00Z</time>
      </trkpt>
      <trkpt lat="47.75432" lon="-3.37552">
        <ele>48.92</ele>
        <time>2022-06-14T15:56:01Z</time>
      </trkpt>
      <trkpt lat="47.75436" lon="-3.37546">
        <ele>49.08</ele>
        <time>2022-06-14T15:56:02Z</time>
      </trkpt>
      <trkpt lat="47.75439" lon="-3.37539">
        <ele>49.18</ele>
        <time>2022-06-14T15:56:03Z</time>
      </trkpt>
      <trkpt lat="47.75442" lon="-3.37533">
        <ele>49.23</ele>
        <time>2022-06-14T15:56:04Z</time>
      </trkpt>
      <trkpt lat="47.75453" lon="-3.37515">
        <ele>49.32</ele>
        <time>2022-06-14T15:56:07Z</time>
      </trkpt>
      <trkpt lat="47.75456" lon="-3.37511">
        <ele>49.33</ele>
        <time>2022-06-14T15:56:08Z</time>
      </trkpt>
      <trkpt lat="47.75461" lon="-3.37508">
        <ele>49.29</ele>
        <time>2022-06-14T15:56:09Z</time>
      </trkpt>
      <trkpt lat="47.75466" lon="-3.37508">
        <ele>49.21</ele>
        <time>2022-06-14T15:56:10Z</time>
      </trkpt>
      <trkpt lat="47.7547" lon="-3.3751">
        <ele>49.11</ele>
        <time>2022-06-14T15:56:11Z</time>
      </trkpt>
      <trkpt lat="47.75475" lon="-3.37515">
        <ele>49.05</ele>
        <time>2022-06-14T15:56:12Z</time>
      </trkpt>
      <trkpt lat="47.75478" lon="-3.37521">
        <ele>49.01</ele>
        <time>2022-06-14T15:56:13Z</time>
      </trkpt>
      <trkpt lat="47.7548" lon="-3.37527">
        <ele>48.98</ele>
        <time>2022-06-14T15:56:14Z</time>
      </trkpt>
      <trkpt lat="47.7548" lon="-3.37534">
        <ele>48.93</ele>
        <time>2022-06-14T15:56:15Z</time>
      </trkpt>
      <trkpt lat="47.75482" lon="-3.37541">
        <ele>48.87</ele>
        <time>2022-06-14T15:56:16Z</time>
      </trkpt>
      <trkpt lat="47.75483" lon="-3.37547">
        <ele>48.79</ele>
        <time>2022-06-14T15:56:17Z</time>
      </trkpt>
      <trkpt lat="47.75484" lon="-3.37552">
        <ele>48.71</ele>
        <time>2022-06-14T15:56:18Z</time>
      </trkpt>
      <trkpt lat="47.75486" lon="-3.37556">
        <ele>48.65</ele>
        <time>2022-06-14T15:56:19Z</time>
      </trkpt>
      <trkpt lat="47.7549" lon="-3.37559">
        <ele>48.63</ele>
        <time>2022-06-14T15:56:20Z</time>
      </trkpt>
      <trkpt lat="47.75495" lon="-3.37559">
        <ele>48.62</ele>
        <time>2022-06-14T15:56:21Z</time>
      </trkpt>
      <trkpt lat="47.755" lon="-3.3756">
        <ele>48.62</ele>
        <time>2022-06-14T15:56:22Z</time>
      </trkpt>
      <trkpt lat="47.75544" lon="-3.37558">
        <ele>49.7</ele>
        <time>2022-06-14T15:56:29Z</time>
      </trkpt>
      <trkpt lat="47.75549" lon="-3.37557">
        <ele>49.75</ele>
        <time>2022-06-14T15:56:30Z</time>
      </trkpt>
      <trkpt lat="47.75554" lon="-3.37557">
        <ele>49.77</ele>
        <time>2022-06-14T15:56:31Z</time>
      </trkpt>
      <trkpt lat="47.75556" lon="-3.37561">
        <ele>49.8</ele>
        <time>2022-06-14T15:56:32Z</time>
      </trkpt>
      <trkpt lat="47.75558" lon="-3.37565">
        <ele>49.88</ele>
        <time>2022-06-14T15:56:33Z</time>
      </trkpt>
      <trkpt lat="47.75559" lon="-3.37571">
        <ele>49.9</ele>
        <time>2022-06-14T15:56:34Z</time>
      </trkpt>
      <trkpt lat="47.7556" lon="-3.37579">
        <ele>49.9</ele>
        <time>2022-06-14T15:56:35Z</time>
      </trkpt>
      <trkpt lat="47.75561" lon="-3.37587">
        <ele>49.9</ele>
        <time>2022-06-14T15:56:36Z</time>
      </trkpt>
      <trkpt lat="47.75561" lon="-3.37597">
        <ele>49.87</ele>
        <time>2022-06-14T15:56:37Z</time>
      </trkpt>
      <trkpt lat="47.75561" lon="-3.37605">
        <ele>49.77</ele>
        <time>2022-06-14T15:56:38Z</time>
      </trkpt>
      <trkpt lat="47.75558" lon="-3.37697">
        <ele>48.34</ele>
        <time>2022-06-14T15:56:47Z</time>
      </trkpt>
      <trkpt lat="47.7556" lon="-3.37709">
        <ele>48.17</ele>
        <time>2022-06-14T15:56:48Z</time>
      </trkpt>
      <trkpt lat="47.75563" lon="-3.37722">
        <ele>47.95</ele>
        <time>2022-06-14T15:56:49Z</time>
      </trkpt>
      <trkpt lat="47.75597" lon="-3.37836">
        <ele>46.14</ele>
        <time>2022-06-14T15:56:59Z</time>
      </trkpt>
      <trkpt lat="47.75598" lon="-3.37846">
        <ele>46</ele>
        <time>2022-06-14T15:57:00Z</time>
      </trkpt>
      <trkpt lat="47.75598" lon="-3.37857">
        <ele>45.85</ele>
        <time>2022-06-14T15:57:01Z</time>
      </trkpt>
      <trkpt lat="47.75597" lon="-3.37867">
        <ele>45.71</ele>
        <time>2022-06-14T15:57:02Z</time>
      </trkpt>
      <trkpt lat="47.75583" lon="-3.37946">
        <ele>45.05</ele>
        <time>2022-06-14T15:57:10Z</time>
      </trkpt>
      <trkpt lat="47.75583" lon="-3.37954">
        <ele>44.98</ele>
        <time>2022-06-14T15:57:11Z</time>
      </trkpt>
      <trkpt lat="47.75584" lon="-3.3796">
        <ele>44.89</ele>
        <time>2022-06-14T15:57:12Z</time>
      </trkpt>
      <trkpt lat="47.75587" lon="-3.37964">
        <ele>44.83</ele>
        <time>2022-06-14T15:57:13Z</time>
      </trkpt>
      <trkpt lat="47.75591" lon="-3.37968">
        <ele>44.8</ele>
        <time>2022-06-14T15:57:14Z</time>
      </trkpt>
      <trkpt lat="47.75596" lon="-3.3797">
        <ele>44.78</ele>
        <time>2022-06-14T15:57:15Z</time>
      </trkpt>
      <trkpt lat="47.75602" lon="-3.37972">
        <ele>44.78</ele>
        <time>2022-06-14T15:57:16Z</time>
      </trkpt>
      <trkpt lat="47.75656" lon="-3.37998">
        <ele>47.16</ele>
        <time>2022-06-14T15:57:23Z</time>
      </trkpt>
      <trkpt lat="47.75663" lon="-3.37999">
        <ele>48.41</ele>
        <time>2022-06-14T15:57:24Z</time>
      </trkpt>
      <trkpt lat="47.75669" lon="-3.37999">
        <ele>49.02</ele>
        <time>2022-06-14T15:57:25Z</time>
      </trkpt>
      <trkpt lat="47.7568" lon="-3.37999">
        <ele>50.09</ele>
        <time>2022-06-14T15:57:27Z</time>
      </trkpt>
      <trkpt lat="47.75684" lon="-3.38">
        <ele>50.54</ele>
        <time>2022-06-14T15:57:28Z</time>
      </trkpt>
      <trkpt lat="47.75687" lon="-3.38004">
        <ele>50.98</ele>
        <time>2022-06-14T15:57:29Z</time>
      </trkpt>
      <trkpt lat="47.75689" lon="-3.38009">
        <ele>51.42</ele>
        <time>2022-06-14T15:57:30Z</time>
      </trkpt>
      <trkpt lat="47.75689" lon="-3.38014">
        <ele>51.79</ele>
        <time>2022-06-14T15:57:31Z</time>
      </trkpt>
      <trkpt lat="47.75689" lon="-3.38018">
        <ele>52.09</ele>
        <time>2022-06-14T15:57:32Z</time>
      </trkpt>
      <trkpt lat="47.75689" lon="-3.38024">
        <ele>52.33</ele>
        <time>2022-06-14T15:57:33Z</time>
      </trkpt>
      <trkpt lat="47.75684" lon="-3.38073">
        <ele>53.23</ele>
        <time>2022-06-14T15:57:41Z</time>
      </trkpt>
      <trkpt lat="47.75683" lon="-3.38081">
        <ele>53.27</ele>
        <time>2022-06-14T15:57:42Z</time>
      </trkpt>
      <trkpt lat="47.75681" lon="-3.38158">
        <ele>53.18</ele>
        <time>2022-06-14T15:57:51Z</time>
      </trkpt>
      <trkpt lat="47.75681" lon="-3.38165">
        <ele>53.11</ele>
        <time>2022-06-14T15:57:52Z</time>
      </trkpt>
      <trkpt lat="47.75683" lon="-3.38172">
        <ele>53.02</ele>
        <time>2022-06-14T15:57:53Z</time>
      </trkpt>
      <trkpt lat="47.75684" lon="-3.38178">
        <ele>52.92</ele>
        <time>2022-06-14T15:57:54Z</time>
      </trkpt>
      <trkpt lat="47.75686" lon="-3.38183">
        <ele>52.8</ele>
        <time>2022-06-14T15:57:55Z</time>
      </trkpt>
      <trkpt lat="47.75688" lon="-3.38186">
        <ele>52.69</ele>
        <time>2022-06-14T15:57:56Z</time>
      </trkpt>
      <trkpt lat="47.75699" lon="-3.38204">
        <ele>52.07</ele>
        <time>2022-06-14T15:58:05Z</time>
      </trkpt>
      <trkpt lat="47.75699" lon="-3.38209">
        <ele>51.52</ele>
        <time>2022-06-14T15:58:13Z</time>
      </trkpt>
      <trkpt lat="47.75699" lon="-3.38208">
        <ele>51.52</ele>
        <time>2022-06-14T15:58:24Z</time>
      </trkpt>
      <trkpt lat="47.75697" lon="-3.38206">
        <ele>51.44</ele>
        <time>2022-06-14T15:58:41Z</time>
      </trkpt>
      <trkpt lat="47.75698" lon="-3.38205">
        <ele>51.53</ele>
        <time>2022-06-14T15:58:56Z</time>
      </trkpt>
      <trkpt lat="47.75698" lon="-3.38209">
        <ele>52.15</ele>
        <time>2022-06-14T15:59:16Z</time>
      </trkpt>
      <trkpt lat="47.75698" lon="-3.38207">
        <ele>52.08</ele>
        <time>2022-06-14T15:59:32Z</time>
      </trkpt>
      <trkpt lat="47.75696" lon="-3.38206">
        <ele>52.22</ele>
        <time>2022-06-14T15:59:46Z</time>
      </trkpt>
      <trkpt lat="47.75697" lon="-3.38202">
        <ele>52.38</ele>
        <time>2022-06-14T16:00:01Z</time>
      </trkpt>
      <trkpt lat="47.75699" lon="-3.38204">
        <ele>52.73</ele>
        <time>2022-06-14T16:00:20Z</time>
      </trkpt>
      <trkpt lat="47.75709" lon="-3.38208">
        <ele>53.11</ele>
        <time>2022-06-14T16:00:36Z</time>
      </trkpt>
      <trkpt lat="47.75714" lon="-3.38203">
        <ele>54.21</ele>
        <time>2022-06-14T16:00:50Z</time>
      </trkpt>
      <trkpt lat="47.75718" lon="-3.38203">
        <ele>54.5</ele>
        <time>2022-06-14T16:01:03Z</time>
      </trkpt>
      <trkpt lat="47.75721" lon="-3.38203">
        <ele>54.37</ele>
        <time>2022-06-14T16:01:21Z</time>
      </trkpt>
      <trkpt lat="47.75725" lon="-3.38198">
        <ele>54.23</ele>
        <time>2022-06-14T16:01:37Z</time>
      </trkpt>
      <trkpt lat="47.75725" lon="-3.38203">
        <ele>55.55</ele>
        <time>2022-06-14T16:02:07Z</time>
      </trkpt>
    </trkseg>
  </trk>
</gpx>